<?xml version="1.0" encoding="UTF-8" standalone="no" ?>
<gpx xmlns="http://www.topografix.com/GPX/1/1" xmlns:xsi="http://www.w3.org/2001/XMLSchema-instance" xsi:schemaLocation="http://www.topografix.com/GPX/1/1 http://www.topografix.com/GPX/1/1/gpx.xsd" version="1.1" creator="VisuGPX - https://www.visugpx.com">
  <metadata>
    <name>Les Fontanettes, lac des Vaches, le ruisseau de l'Arcellin</name>
    <desc><![CDATA[Les Fontanettes, torrent et pont de la Glière, lac des Vaches, chalet de la Cha, ruisseau de l'Arcellin, bois de la Glière. La descente du ruisseau de l'Arcellin est difficile et dangereuse surtout par temps humide ; il est préférable de monter le ruisseau de l'Arcellin et de parcourir ce circuit dans l'autre sens.]]></desc>
  </metadata>
  <trk>
    <name><![CDATA[SEP-10-19 15:49:25]]></name>
    <trkseg>
      <trkpt lat="45.38165" lon="6.7358">
        <ele>1645.91</ele>
        <time>2019-09-10T06:52:03Z</time>
      </trkpt>
      <trkpt lat="45.38149" lon="6.7358">
        <ele>1647.36</ele>
        <time>2019-09-10T06:52:20Z</time>
      </trkpt>
      <trkpt lat="45.38165" lon="6.73577">
        <ele>1651.2</ele>
        <time>2019-09-10T06:52:35Z</time>
      </trkpt>
      <trkpt lat="45.38173" lon="6.73583">
        <ele>1651.68</ele>
        <time>2019-09-10T06:52:45Z</time>
      </trkpt>
      <trkpt lat="45.38179" lon="6.73588">
        <ele>1653.12</ele>
        <time>2019-09-10T06:53:22Z</time>
      </trkpt>
      <trkpt lat="45.38177" lon="6.7359">
        <ele>1653.6</ele>
        <time>2019-09-10T06:53:53Z</time>
      </trkpt>
      <trkpt lat="45.38177" lon="6.73586">
        <ele>1653.12</ele>
        <time>2019-09-10T06:54:45Z</time>
      </trkpt>
      <trkpt lat="45.38156" lon="6.73583">
        <ele>1649.76</ele>
        <time>2019-09-10T06:55:03Z</time>
      </trkpt>
      <trkpt lat="45.38137" lon="6.73591">
        <ele>1650.72</ele>
        <time>2019-09-10T06:55:20Z</time>
      </trkpt>
      <trkpt lat="45.38123" lon="6.73593">
        <ele>1651.2</ele>
        <time>2019-09-10T06:55:34Z</time>
      </trkpt>
      <trkpt lat="45.38109" lon="6.73597">
        <ele>1654.57</ele>
        <time>2019-09-10T06:55:56Z</time>
      </trkpt>
      <trkpt lat="45.38094" lon="6.73608">
        <ele>1654.09</ele>
        <time>2019-09-10T06:56:13Z</time>
      </trkpt>
      <trkpt lat="45.38093" lon="6.73609">
        <ele>1654.09</ele>
        <time>2019-09-10T06:56:14Z</time>
      </trkpt>
      <trkpt lat="45.38089" lon="6.73613">
        <ele>1653.12</ele>
        <time>2019-09-10T06:56:19Z</time>
      </trkpt>
      <trkpt lat="45.38085" lon="6.73614">
        <ele>1652.64</ele>
        <time>2019-09-10T06:56:21Z</time>
      </trkpt>
      <trkpt lat="45.38077" lon="6.73627">
        <ele>1652.64</ele>
        <time>2019-09-10T06:56:34Z</time>
      </trkpt>
      <trkpt lat="45.38072" lon="6.7363">
        <ele>1653.6</ele>
        <time>2019-09-10T06:56:38Z</time>
      </trkpt>
      <trkpt lat="45.38069" lon="6.73638">
        <ele>1654.09</ele>
        <time>2019-09-10T06:56:44Z</time>
      </trkpt>
      <trkpt lat="45.38067" lon="6.73642">
        <ele>1655.05</ele>
        <time>2019-09-10T06:56:48Z</time>
      </trkpt>
      <trkpt lat="45.38065" lon="6.73644">
        <ele>1655.05</ele>
        <time>2019-09-10T06:56:50Z</time>
      </trkpt>
      <trkpt lat="45.38056" lon="6.73662">
        <ele>1654.57</ele>
        <time>2019-09-10T06:57:03Z</time>
      </trkpt>
      <trkpt lat="45.38056" lon="6.73671">
        <ele>1653.6</ele>
        <time>2019-09-10T06:57:10Z</time>
      </trkpt>
      <trkpt lat="45.3806" lon="6.73684">
        <ele>1654.09</ele>
        <time>2019-09-10T06:57:18Z</time>
      </trkpt>
      <trkpt lat="45.38067" lon="6.73693">
        <ele>1656.01</ele>
        <time>2019-09-10T06:57:24Z</time>
      </trkpt>
      <trkpt lat="45.38074" lon="6.73704">
        <ele>1656.97</ele>
        <time>2019-09-10T06:57:32Z</time>
      </trkpt>
      <trkpt lat="45.38079" lon="6.73728">
        <ele>1656.49</ele>
        <time>2019-09-10T06:57:51Z</time>
      </trkpt>
      <trkpt lat="45.3808" lon="6.73741">
        <ele>1657.45</ele>
        <time>2019-09-10T06:57:59Z</time>
      </trkpt>
      <trkpt lat="45.38078" lon="6.73764">
        <ele>1659.37</ele>
        <time>2019-09-10T06:58:15Z</time>
      </trkpt>
      <trkpt lat="45.38076" lon="6.73771">
        <ele>1660.33</ele>
        <time>2019-09-10T06:58:19Z</time>
      </trkpt>
      <trkpt lat="45.38075" lon="6.73775">
        <ele>1660.81</ele>
        <time>2019-09-10T06:58:21Z</time>
      </trkpt>
      <trkpt lat="45.38076" lon="6.73786">
        <ele>1663.22</ele>
        <time>2019-09-10T06:58:29Z</time>
      </trkpt>
      <trkpt lat="45.38073" lon="6.73801">
        <ele>1666.1</ele>
        <time>2019-09-10T06:58:39Z</time>
      </trkpt>
      <trkpt lat="45.38071" lon="6.73805">
        <ele>1666.58</ele>
        <time>2019-09-10T06:58:42Z</time>
      </trkpt>
      <trkpt lat="45.38069" lon="6.73836">
        <ele>1664.18</ele>
        <time>2019-09-10T06:59:00Z</time>
      </trkpt>
      <trkpt lat="45.38069" lon="6.73846">
        <ele>1664.18</ele>
        <time>2019-09-10T06:59:08Z</time>
      </trkpt>
      <trkpt lat="45.38067" lon="6.73867">
        <ele>1665.62</ele>
        <time>2019-09-10T06:59:24Z</time>
      </trkpt>
      <trkpt lat="45.38067" lon="6.73868">
        <ele>1665.62</ele>
        <time>2019-09-10T06:59:25Z</time>
      </trkpt>
      <trkpt lat="45.38067" lon="6.73874">
        <ele>1666.1</ele>
        <time>2019-09-10T06:59:29Z</time>
      </trkpt>
      <trkpt lat="45.38067" lon="6.73878">
        <ele>1666.1</ele>
        <time>2019-09-10T06:59:32Z</time>
      </trkpt>
      <trkpt lat="45.38067" lon="6.73885">
        <ele>1667.06</ele>
        <time>2019-09-10T06:59:36Z</time>
      </trkpt>
      <trkpt lat="45.38066" lon="6.739">
        <ele>1667.54</ele>
        <time>2019-09-10T06:59:46Z</time>
      </trkpt>
      <trkpt lat="45.38062" lon="6.73924">
        <ele>1668.51</ele>
        <time>2019-09-10T07:00:04Z</time>
      </trkpt>
      <trkpt lat="45.38061" lon="6.73935">
        <ele>1669.95</ele>
        <time>2019-09-10T07:00:19Z</time>
      </trkpt>
      <trkpt lat="45.38061" lon="6.73957">
        <ele>1670.43</ele>
        <time>2019-09-10T07:00:34Z</time>
      </trkpt>
      <trkpt lat="45.38062" lon="6.73963">
        <ele>1670.43</ele>
        <time>2019-09-10T07:00:38Z</time>
      </trkpt>
      <trkpt lat="45.38061" lon="6.73982">
        <ele>1670.91</ele>
        <time>2019-09-10T07:00:51Z</time>
      </trkpt>
      <trkpt lat="45.38061" lon="6.73985">
        <ele>1670.91</ele>
        <time>2019-09-10T07:00:53Z</time>
      </trkpt>
      <trkpt lat="45.38061" lon="6.73988">
        <ele>1670.91</ele>
        <time>2019-09-10T07:00:55Z</time>
      </trkpt>
      <trkpt lat="45.3806" lon="6.73994">
        <ele>1670.91</ele>
        <time>2019-09-10T07:00:59Z</time>
      </trkpt>
      <trkpt lat="45.38063" lon="6.74015">
        <ele>1671.39</ele>
        <time>2019-09-10T07:01:14Z</time>
      </trkpt>
      <trkpt lat="45.38061" lon="6.74019">
        <ele>1671.87</ele>
        <time>2019-09-10T07:01:17Z</time>
      </trkpt>
      <trkpt lat="45.38062" lon="6.74023">
        <ele>1671.39</ele>
        <time>2019-09-10T07:01:22Z</time>
      </trkpt>
      <trkpt lat="45.38063" lon="6.74028">
        <ele>1671.39</ele>
        <time>2019-09-10T07:01:27Z</time>
      </trkpt>
      <trkpt lat="45.38064" lon="6.74033">
        <ele>1671.87</ele>
        <time>2019-09-10T07:01:30Z</time>
      </trkpt>
      <trkpt lat="45.38065" lon="6.74038">
        <ele>1671.87</ele>
        <time>2019-09-10T07:01:33Z</time>
      </trkpt>
      <trkpt lat="45.38066" lon="6.7404">
        <ele>1672.35</ele>
        <time>2019-09-10T07:01:35Z</time>
      </trkpt>
      <trkpt lat="45.38066" lon="6.74044">
        <ele>1672.35</ele>
        <time>2019-09-10T07:01:37Z</time>
      </trkpt>
      <trkpt lat="45.38068" lon="6.74054">
        <ele>1672.83</ele>
        <time>2019-09-10T07:01:44Z</time>
      </trkpt>
      <trkpt lat="45.38059" lon="6.74074">
        <ele>1675.23</ele>
        <time>2019-09-10T07:02:01Z</time>
      </trkpt>
      <trkpt lat="45.38058" lon="6.74076">
        <ele>1675.72</ele>
        <time>2019-09-10T07:02:04Z</time>
      </trkpt>
      <trkpt lat="45.38054" lon="6.74083">
        <ele>1676.68</ele>
        <time>2019-09-10T07:02:11Z</time>
      </trkpt>
      <trkpt lat="45.38046" lon="6.74098">
        <ele>1678.12</ele>
        <time>2019-09-10T07:02:27Z</time>
      </trkpt>
      <trkpt lat="45.38045" lon="6.74099">
        <ele>1678.6</ele>
        <time>2019-09-10T07:02:28Z</time>
      </trkpt>
      <trkpt lat="45.38046" lon="6.74119">
        <ele>1684.85</ele>
        <time>2019-09-10T07:02:47Z</time>
      </trkpt>
      <trkpt lat="45.38049" lon="6.74129">
        <ele>1686.77</ele>
        <time>2019-09-10T07:02:58Z</time>
      </trkpt>
      <trkpt lat="45.3805" lon="6.74149">
        <ele>1687.73</ele>
        <time>2019-09-10T07:03:15Z</time>
      </trkpt>
      <trkpt lat="45.38048" lon="6.74162">
        <ele>1686.77</ele>
        <time>2019-09-10T07:03:32Z</time>
      </trkpt>
      <trkpt lat="45.38049" lon="6.74164">
        <ele>1686.77</ele>
        <time>2019-09-10T07:03:34Z</time>
      </trkpt>
      <trkpt lat="45.38051" lon="6.74178">
        <ele>1687.25</ele>
        <time>2019-09-10T07:03:43Z</time>
      </trkpt>
      <trkpt lat="45.3805" lon="6.74194">
        <ele>1687.73</ele>
        <time>2019-09-10T07:03:55Z</time>
      </trkpt>
      <trkpt lat="45.38054" lon="6.74205">
        <ele>1688.21</ele>
        <time>2019-09-10T07:04:04Z</time>
      </trkpt>
      <trkpt lat="45.38055" lon="6.74209">
        <ele>1688.69</ele>
        <time>2019-09-10T07:04:10Z</time>
      </trkpt>
      <trkpt lat="45.38057" lon="6.74215">
        <ele>1688.21</ele>
        <time>2019-09-10T07:04:14Z</time>
      </trkpt>
      <trkpt lat="45.38062" lon="6.74233">
        <ele>1690.14</ele>
        <time>2019-09-10T07:04:28Z</time>
      </trkpt>
      <trkpt lat="45.38062" lon="6.74234">
        <ele>1690.14</ele>
        <time>2019-09-10T07:04:29Z</time>
      </trkpt>
      <trkpt lat="45.38064" lon="6.74242">
        <ele>1690.62</ele>
        <time>2019-09-10T07:04:37Z</time>
      </trkpt>
      <trkpt lat="45.38063" lon="6.74248">
        <ele>1691.58</ele>
        <time>2019-09-10T07:04:41Z</time>
      </trkpt>
      <trkpt lat="45.38065" lon="6.74269">
        <ele>1694.94</ele>
        <time>2019-09-10T07:05:01Z</time>
      </trkpt>
      <trkpt lat="45.38066" lon="6.74272">
        <ele>1694.46</ele>
        <time>2019-09-10T07:05:05Z</time>
      </trkpt>
      <trkpt lat="45.38068" lon="6.7428">
        <ele>1693.98</ele>
        <time>2019-09-10T07:05:12Z</time>
      </trkpt>
      <trkpt lat="45.38069" lon="6.74286">
        <ele>1694.46</ele>
        <time>2019-09-10T07:05:18Z</time>
      </trkpt>
      <trkpt lat="45.3807" lon="6.74298">
        <ele>1694.46</ele>
        <time>2019-09-10T07:05:28Z</time>
      </trkpt>
      <trkpt lat="45.38072" lon="6.74318">
        <ele>1696.86</ele>
        <time>2019-09-10T07:05:44Z</time>
      </trkpt>
      <trkpt lat="45.38075" lon="6.74328">
        <ele>1698.31</ele>
        <time>2019-09-10T07:05:52Z</time>
      </trkpt>
      <trkpt lat="45.38076" lon="6.74333">
        <ele>1699.27</ele>
        <time>2019-09-10T07:05:56Z</time>
      </trkpt>
      <trkpt lat="45.38079" lon="6.74344">
        <ele>1701.19</ele>
        <time>2019-09-10T07:06:05Z</time>
      </trkpt>
      <trkpt lat="45.38085" lon="6.74363">
        <ele>1702.63</ele>
        <time>2019-09-10T07:06:22Z</time>
      </trkpt>
      <trkpt lat="45.38086" lon="6.74377">
        <ele>1703.59</ele>
        <time>2019-09-10T07:06:36Z</time>
      </trkpt>
      <trkpt lat="45.38087" lon="6.74392">
        <ele>1710.32</ele>
        <time>2019-09-10T07:06:53Z</time>
      </trkpt>
      <trkpt lat="45.38087" lon="6.74396">
        <ele>1712.25</ele>
        <time>2019-09-10T07:06:58Z</time>
      </trkpt>
      <trkpt lat="45.38084" lon="6.7441">
        <ele>1720.9</ele>
        <time>2019-09-10T07:07:16Z</time>
      </trkpt>
      <trkpt lat="45.38083" lon="6.74425">
        <ele>1726.18</ele>
        <time>2019-09-10T07:07:33Z</time>
      </trkpt>
      <trkpt lat="45.38082" lon="6.74441">
        <ele>1732.43</ele>
        <time>2019-09-10T07:07:50Z</time>
      </trkpt>
      <trkpt lat="45.3808" lon="6.7446">
        <ele>1736.76</ele>
        <time>2019-09-10T07:08:07Z</time>
      </trkpt>
      <trkpt lat="45.38078" lon="6.74471">
        <ele>1736.28</ele>
        <time>2019-09-10T07:08:19Z</time>
      </trkpt>
      <trkpt lat="45.38077" lon="6.74476">
        <ele>1735.8</ele>
        <time>2019-09-10T07:08:23Z</time>
      </trkpt>
      <trkpt lat="45.38076" lon="6.74498">
        <ele>1736.28</ele>
        <time>2019-09-10T07:08:39Z</time>
      </trkpt>
      <trkpt lat="45.3808" lon="6.74516">
        <ele>1736.76</ele>
        <time>2019-09-10T07:08:54Z</time>
      </trkpt>
      <trkpt lat="45.38081" lon="6.74523">
        <ele>1736.76</ele>
        <time>2019-09-10T07:09:00Z</time>
      </trkpt>
      <trkpt lat="45.38082" lon="6.7454">
        <ele>1740.6</ele>
        <time>2019-09-10T07:09:17Z</time>
      </trkpt>
      <trkpt lat="45.38083" lon="6.74551">
        <ele>1741.57</ele>
        <time>2019-09-10T07:09:27Z</time>
      </trkpt>
      <trkpt lat="45.3809" lon="6.74569">
        <ele>1742.53</ele>
        <time>2019-09-10T07:09:44Z</time>
      </trkpt>
      <trkpt lat="45.38095" lon="6.74578">
        <ele>1742.53</ele>
        <time>2019-09-10T07:09:53Z</time>
      </trkpt>
      <trkpt lat="45.38106" lon="6.74591">
        <ele>1743.49</ele>
        <time>2019-09-10T07:10:09Z</time>
      </trkpt>
      <trkpt lat="45.38107" lon="6.74593">
        <ele>1743.49</ele>
        <time>2019-09-10T07:10:11Z</time>
      </trkpt>
      <trkpt lat="45.38109" lon="6.74594">
        <ele>1743.49</ele>
        <time>2019-09-10T07:10:14Z</time>
      </trkpt>
      <trkpt lat="45.38119" lon="6.74616">
        <ele>1742.53</ele>
        <time>2019-09-10T07:10:32Z</time>
      </trkpt>
      <trkpt lat="45.38126" lon="6.74633">
        <ele>1744.93</ele>
        <time>2019-09-10T07:10:48Z</time>
      </trkpt>
      <trkpt lat="45.38126" lon="6.74634">
        <ele>1744.93</ele>
        <time>2019-09-10T07:10:49Z</time>
      </trkpt>
      <trkpt lat="45.38127" lon="6.74642">
        <ele>1745.41</ele>
        <time>2019-09-10T07:10:54Z</time>
      </trkpt>
      <trkpt lat="45.38132" lon="6.7465">
        <ele>1745.89</ele>
        <time>2019-09-10T07:11:03Z</time>
      </trkpt>
      <trkpt lat="45.38133" lon="6.74653">
        <ele>1746.37</ele>
        <time>2019-09-10T07:11:05Z</time>
      </trkpt>
      <trkpt lat="45.38137" lon="6.74661">
        <ele>1748.29</ele>
        <time>2019-09-10T07:11:16Z</time>
      </trkpt>
      <trkpt lat="45.38138" lon="6.74663">
        <ele>1748.78</ele>
        <time>2019-09-10T07:11:18Z</time>
      </trkpt>
      <trkpt lat="45.38145" lon="6.7468">
        <ele>1752.14</ele>
        <time>2019-09-10T07:11:36Z</time>
      </trkpt>
      <trkpt lat="45.38153" lon="6.74698">
        <ele>1751.18</ele>
        <time>2019-09-10T07:11:52Z</time>
      </trkpt>
      <trkpt lat="45.38162" lon="6.74716">
        <ele>1752.62</ele>
        <time>2019-09-10T07:12:09Z</time>
      </trkpt>
      <trkpt lat="45.38171" lon="6.74732">
        <ele>1754.06</ele>
        <time>2019-09-10T07:12:25Z</time>
      </trkpt>
      <trkpt lat="45.38176" lon="6.74737">
        <ele>1755.5</ele>
        <time>2019-09-10T07:12:31Z</time>
      </trkpt>
      <trkpt lat="45.38182" lon="6.7474">
        <ele>1757.43</ele>
        <time>2019-09-10T07:12:52Z</time>
      </trkpt>
      <trkpt lat="45.38183" lon="6.74741">
        <ele>1757.43</ele>
        <time>2019-09-10T07:13:33Z</time>
      </trkpt>
      <trkpt lat="45.38188" lon="6.74742">
        <ele>1757.91</ele>
        <time>2019-09-10T07:13:50Z</time>
      </trkpt>
      <trkpt lat="45.38196" lon="6.74746">
        <ele>1757.43</ele>
        <time>2019-09-10T07:13:59Z</time>
      </trkpt>
      <trkpt lat="45.38199" lon="6.74747">
        <ele>1757.43</ele>
        <time>2019-09-10T07:14:02Z</time>
      </trkpt>
      <trkpt lat="45.38204" lon="6.74748">
        <ele>1756.95</ele>
        <time>2019-09-10T07:14:08Z</time>
      </trkpt>
      <trkpt lat="45.3821" lon="6.74748">
        <ele>1758.87</ele>
        <time>2019-09-10T07:14:22Z</time>
      </trkpt>
      <trkpt lat="45.38205" lon="6.74751">
        <ele>1759.35</ele>
        <time>2019-09-10T07:14:40Z</time>
      </trkpt>
      <trkpt lat="45.3821" lon="6.7475">
        <ele>1758.39</ele>
        <time>2019-09-10T07:14:58Z</time>
      </trkpt>
      <trkpt lat="45.38216" lon="6.74748">
        <ele>1757.91</ele>
        <time>2019-09-10T07:15:05Z</time>
      </trkpt>
      <trkpt lat="45.38232" lon="6.74755">
        <ele>1755.5</ele>
        <time>2019-09-10T07:15:22Z</time>
      </trkpt>
      <trkpt lat="45.38235" lon="6.74754">
        <ele>1755.5</ele>
        <time>2019-09-10T07:15:26Z</time>
      </trkpt>
      <trkpt lat="45.38243" lon="6.74753">
        <ele>1755.5</ele>
        <time>2019-09-10T07:15:33Z</time>
      </trkpt>
      <trkpt lat="45.38247" lon="6.74751">
        <ele>1755.5</ele>
        <time>2019-09-10T07:15:38Z</time>
      </trkpt>
      <trkpt lat="45.38256" lon="6.7475">
        <ele>1754.54</ele>
        <time>2019-09-10T07:15:48Z</time>
      </trkpt>
      <trkpt lat="45.38258" lon="6.74751">
        <ele>1754.06</ele>
        <time>2019-09-10T07:15:51Z</time>
      </trkpt>
      <trkpt lat="45.38262" lon="6.74754">
        <ele>1753.58</ele>
        <time>2019-09-10T07:15:57Z</time>
      </trkpt>
      <trkpt lat="45.38264" lon="6.74754">
        <ele>1753.58</ele>
        <time>2019-09-10T07:15:59Z</time>
      </trkpt>
      <trkpt lat="45.38271" lon="6.74755">
        <ele>1753.1</ele>
        <time>2019-09-10T07:16:05Z</time>
      </trkpt>
      <trkpt lat="45.38281" lon="6.74757">
        <ele>1754.06</ele>
        <time>2019-09-10T07:16:17Z</time>
      </trkpt>
      <trkpt lat="45.38296" lon="6.74756">
        <ele>1754.54</ele>
        <time>2019-09-10T07:16:34Z</time>
      </trkpt>
      <trkpt lat="45.38307" lon="6.74757">
        <ele>1755.99</ele>
        <time>2019-09-10T07:16:49Z</time>
      </trkpt>
      <trkpt lat="45.38317" lon="6.74757">
        <ele>1756.47</ele>
        <time>2019-09-10T07:17:03Z</time>
      </trkpt>
      <trkpt lat="45.38327" lon="6.74757">
        <ele>1757.91</ele>
        <time>2019-09-10T07:17:15Z</time>
      </trkpt>
      <trkpt lat="45.38338" lon="6.74755">
        <ele>1762.71</ele>
        <time>2019-09-10T07:17:32Z</time>
      </trkpt>
      <trkpt lat="45.38345" lon="6.74752">
        <ele>1765.12</ele>
        <time>2019-09-10T07:17:45Z</time>
      </trkpt>
      <trkpt lat="45.38357" lon="6.74748">
        <ele>1765.6</ele>
        <time>2019-09-10T07:18:02Z</time>
      </trkpt>
      <trkpt lat="45.38366" lon="6.74746">
        <ele>1766.56</ele>
        <time>2019-09-10T07:18:17Z</time>
      </trkpt>
      <trkpt lat="45.3837" lon="6.74746">
        <ele>1768.96</ele>
        <time>2019-09-10T07:18:24Z</time>
      </trkpt>
      <trkpt lat="45.3838" lon="6.74746">
        <ele>1772.33</ele>
        <time>2019-09-10T07:18:41Z</time>
      </trkpt>
      <trkpt lat="45.38389" lon="6.74748">
        <ele>1775.21</ele>
        <time>2019-09-10T07:18:56Z</time>
      </trkpt>
      <trkpt lat="45.38397" lon="6.7475">
        <ele>1777.61</ele>
        <time>2019-09-10T07:19:12Z</time>
      </trkpt>
      <trkpt lat="45.38406" lon="6.74756">
        <ele>1783.86</ele>
        <time>2019-09-10T07:19:28Z</time>
      </trkpt>
      <trkpt lat="45.38412" lon="6.74762">
        <ele>1786.75</ele>
        <time>2019-09-10T07:19:43Z</time>
      </trkpt>
      <trkpt lat="45.38417" lon="6.74766">
        <ele>1789.63</ele>
        <time>2019-09-10T07:19:55Z</time>
      </trkpt>
      <trkpt lat="45.38426" lon="6.74766">
        <ele>1791.55</ele>
        <time>2019-09-10T07:20:11Z</time>
      </trkpt>
      <trkpt lat="45.38435" lon="6.74761">
        <ele>1793</ele>
        <time>2019-09-10T07:20:29Z</time>
      </trkpt>
      <trkpt lat="45.38441" lon="6.74758">
        <ele>1792.52</ele>
        <time>2019-09-10T07:20:44Z</time>
      </trkpt>
      <trkpt lat="45.38451" lon="6.74755">
        <ele>1793.96</ele>
        <time>2019-09-10T07:21:01Z</time>
      </trkpt>
      <trkpt lat="45.38461" lon="6.74756">
        <ele>1795.4</ele>
        <time>2019-09-10T07:21:19Z</time>
      </trkpt>
      <trkpt lat="45.38465" lon="6.74761">
        <ele>1796.36</ele>
        <time>2019-09-10T07:21:39Z</time>
      </trkpt>
      <trkpt lat="45.38475" lon="6.74757">
        <ele>1801.65</ele>
        <time>2019-09-10T07:21:56Z</time>
      </trkpt>
      <trkpt lat="45.38485" lon="6.74759">
        <ele>1808.38</ele>
        <time>2019-09-10T07:22:14Z</time>
      </trkpt>
      <trkpt lat="45.38493" lon="6.74759">
        <ele>1809.82</ele>
        <time>2019-09-10T07:22:33Z</time>
      </trkpt>
      <trkpt lat="45.38493" lon="6.74769">
        <ele>1810.3</ele>
        <time>2019-09-10T07:22:50Z</time>
      </trkpt>
      <trkpt lat="45.38491" lon="6.74774">
        <ele>1808.86</ele>
        <time>2019-09-10T07:23:08Z</time>
      </trkpt>
      <trkpt lat="45.38491" lon="6.7478">
        <ele>1810.78</ele>
        <time>2019-09-10T07:23:25Z</time>
      </trkpt>
      <trkpt lat="45.38485" lon="6.74791">
        <ele>1812.7</ele>
        <time>2019-09-10T07:23:44Z</time>
      </trkpt>
      <trkpt lat="45.38484" lon="6.74801">
        <ele>1810.3</ele>
        <time>2019-09-10T07:24:04Z</time>
      </trkpt>
      <trkpt lat="45.38488" lon="6.74796">
        <ele>1812.22</ele>
        <time>2019-09-10T07:24:20Z</time>
      </trkpt>
      <trkpt lat="45.38494" lon="6.74792">
        <ele>1812.22</ele>
        <time>2019-09-10T07:24:40Z</time>
      </trkpt>
      <trkpt lat="45.38504" lon="6.74797">
        <ele>1815.11</ele>
        <time>2019-09-10T07:24:59Z</time>
      </trkpt>
      <trkpt lat="45.38506" lon="6.74796">
        <ele>1815.59</ele>
        <time>2019-09-10T07:25:05Z</time>
      </trkpt>
      <trkpt lat="45.38511" lon="6.74793">
        <ele>1816.07</ele>
        <time>2019-09-10T07:25:10Z</time>
      </trkpt>
      <trkpt lat="45.38519" lon="6.74785">
        <ele>1818.95</ele>
        <time>2019-09-10T07:25:29Z</time>
      </trkpt>
      <trkpt lat="45.3853" lon="6.74781">
        <ele>1820.87</ele>
        <time>2019-09-10T07:25:50Z</time>
      </trkpt>
      <trkpt lat="45.38535" lon="6.74779">
        <ele>1819.91</ele>
        <time>2019-09-10T07:26:08Z</time>
      </trkpt>
      <trkpt lat="45.38539" lon="6.74784">
        <ele>1820.39</ele>
        <time>2019-09-10T07:26:52Z</time>
      </trkpt>
      <trkpt lat="45.3854" lon="6.74794">
        <ele>1823.76</ele>
        <time>2019-09-10T07:27:13Z</time>
      </trkpt>
      <trkpt lat="45.38537" lon="6.74803">
        <ele>1823.76</ele>
        <time>2019-09-10T07:27:39Z</time>
      </trkpt>
      <trkpt lat="45.38536" lon="6.74812">
        <ele>1827.6</ele>
        <time>2019-09-10T07:27:57Z</time>
      </trkpt>
      <trkpt lat="45.38536" lon="6.74805">
        <ele>1831.45</ele>
        <time>2019-09-10T07:28:14Z</time>
      </trkpt>
      <trkpt lat="45.38542" lon="6.74805">
        <ele>1834.81</ele>
        <time>2019-09-10T07:28:36Z</time>
      </trkpt>
      <trkpt lat="45.38548" lon="6.74811">
        <ele>1836.74</ele>
        <time>2019-09-10T07:28:53Z</time>
      </trkpt>
      <trkpt lat="45.38549" lon="6.74807">
        <ele>1837.7</ele>
        <time>2019-09-10T07:29:11Z</time>
      </trkpt>
      <trkpt lat="45.38556" lon="6.7481">
        <ele>1835.77</ele>
        <time>2019-09-10T07:29:30Z</time>
      </trkpt>
      <trkpt lat="45.38557" lon="6.74811">
        <ele>1835.29</ele>
        <time>2019-09-10T07:29:36Z</time>
      </trkpt>
      <trkpt lat="45.38571" lon="6.74808">
        <ele>1839.62</ele>
        <time>2019-09-10T07:29:55Z</time>
      </trkpt>
      <trkpt lat="45.38582" lon="6.74819">
        <ele>1839.62</ele>
        <time>2019-09-10T07:30:13Z</time>
      </trkpt>
      <trkpt lat="45.38588" lon="6.74821">
        <ele>1839.14</ele>
        <time>2019-09-10T07:30:30Z</time>
      </trkpt>
      <trkpt lat="45.38589" lon="6.74831">
        <ele>1840.1</ele>
        <time>2019-09-10T07:30:50Z</time>
      </trkpt>
      <trkpt lat="45.38585" lon="6.74838">
        <ele>1841.06</ele>
        <time>2019-09-10T07:31:08Z</time>
      </trkpt>
      <trkpt lat="45.38575" lon="6.74843">
        <ele>1846.35</ele>
        <time>2019-09-10T07:31:29Z</time>
      </trkpt>
      <trkpt lat="45.38575" lon="6.74845">
        <ele>1845.87</ele>
        <time>2019-09-10T07:32:14Z</time>
      </trkpt>
      <trkpt lat="45.38572" lon="6.74846">
        <ele>1849.23</ele>
        <time>2019-09-10T07:34:00Z</time>
      </trkpt>
      <trkpt lat="45.38566" lon="6.74851">
        <ele>1850.19</ele>
        <time>2019-09-10T07:34:21Z</time>
      </trkpt>
      <trkpt lat="45.38559" lon="6.7486">
        <ele>1853.56</ele>
        <time>2019-09-10T07:34:39Z</time>
      </trkpt>
      <trkpt lat="45.38563" lon="6.74854">
        <ele>1858.37</ele>
        <time>2019-09-10T07:34:58Z</time>
      </trkpt>
      <trkpt lat="45.38568" lon="6.74853">
        <ele>1858.85</ele>
        <time>2019-09-10T07:35:16Z</time>
      </trkpt>
      <trkpt lat="45.38573" lon="6.74851">
        <ele>1860.77</ele>
        <time>2019-09-10T07:35:34Z</time>
      </trkpt>
      <trkpt lat="45.38584" lon="6.74848">
        <ele>1865.58</ele>
        <time>2019-09-10T07:35:52Z</time>
      </trkpt>
      <trkpt lat="45.38599" lon="6.74854">
        <ele>1872.3</ele>
        <time>2019-09-10T07:36:14Z</time>
      </trkpt>
      <trkpt lat="45.38602" lon="6.74855">
        <ele>1874.23</ele>
        <time>2019-09-10T07:36:34Z</time>
      </trkpt>
      <trkpt lat="45.38602" lon="6.74874">
        <ele>1875.67</ele>
        <time>2019-09-10T07:36:55Z</time>
      </trkpt>
      <trkpt lat="45.38594" lon="6.74878">
        <ele>1874.71</ele>
        <time>2019-09-10T07:37:15Z</time>
      </trkpt>
      <trkpt lat="45.38592" lon="6.7488">
        <ele>1872.3</ele>
        <time>2019-09-10T07:37:36Z</time>
      </trkpt>
      <trkpt lat="45.38594" lon="6.74872">
        <ele>1874.71</ele>
        <time>2019-09-10T07:37:56Z</time>
      </trkpt>
      <trkpt lat="45.38605" lon="6.74877">
        <ele>1878.55</ele>
        <time>2019-09-10T07:38:11Z</time>
      </trkpt>
      <trkpt lat="45.38608" lon="6.74877">
        <ele>1880</ele>
        <time>2019-09-10T07:38:30Z</time>
      </trkpt>
      <trkpt lat="45.38613" lon="6.74892">
        <ele>1881.44</ele>
        <time>2019-09-10T07:38:51Z</time>
      </trkpt>
      <trkpt lat="45.38607" lon="6.74902">
        <ele>1883.36</ele>
        <time>2019-09-10T07:39:11Z</time>
      </trkpt>
      <trkpt lat="45.38604" lon="6.74908">
        <ele>1886.72</ele>
        <time>2019-09-10T07:39:33Z</time>
      </trkpt>
      <trkpt lat="45.38608" lon="6.74904">
        <ele>1891.05</ele>
        <time>2019-09-10T07:39:51Z</time>
      </trkpt>
      <trkpt lat="45.38616" lon="6.74909">
        <ele>1896.82</ele>
        <time>2019-09-10T07:40:08Z</time>
      </trkpt>
      <trkpt lat="45.38622" lon="6.74908">
        <ele>1896.82</ele>
        <time>2019-09-10T07:40:27Z</time>
      </trkpt>
      <trkpt lat="45.38631" lon="6.74903">
        <ele>1897.78</ele>
        <time>2019-09-10T07:40:45Z</time>
      </trkpt>
      <trkpt lat="45.38635" lon="6.74892">
        <ele>1898.74</ele>
        <time>2019-09-10T07:41:04Z</time>
      </trkpt>
      <trkpt lat="45.3864" lon="6.7489">
        <ele>1900.18</ele>
        <time>2019-09-10T07:41:24Z</time>
      </trkpt>
      <trkpt lat="45.38645" lon="6.74906">
        <ele>1902.59</ele>
        <time>2019-09-10T07:41:41Z</time>
      </trkpt>
      <trkpt lat="45.38642" lon="6.74923">
        <ele>1904.51</ele>
        <time>2019-09-10T07:41:59Z</time>
      </trkpt>
      <trkpt lat="45.38641" lon="6.74927">
        <ele>1907.87</ele>
        <time>2019-09-10T07:42:18Z</time>
      </trkpt>
      <trkpt lat="45.38647" lon="6.74921">
        <ele>1909.8</ele>
        <time>2019-09-10T07:42:44Z</time>
      </trkpt>
      <trkpt lat="45.38651" lon="6.74911">
        <ele>1912.68</ele>
        <time>2019-09-10T07:43:04Z</time>
      </trkpt>
      <trkpt lat="45.38658" lon="6.74902">
        <ele>1916.53</ele>
        <time>2019-09-10T07:43:23Z</time>
      </trkpt>
      <trkpt lat="45.38665" lon="6.74901">
        <ele>1918.45</ele>
        <time>2019-09-10T07:43:42Z</time>
      </trkpt>
      <trkpt lat="45.38677" lon="6.74895">
        <ele>1918.93</ele>
        <time>2019-09-10T07:44:03Z</time>
      </trkpt>
      <trkpt lat="45.38681" lon="6.74891">
        <ele>1920.85</ele>
        <time>2019-09-10T07:44:21Z</time>
      </trkpt>
      <trkpt lat="45.38682" lon="6.74886">
        <ele>1923.74</ele>
        <time>2019-09-10T07:44:37Z</time>
      </trkpt>
      <trkpt lat="45.38686" lon="6.74878">
        <ele>1926.14</ele>
        <time>2019-09-10T07:44:59Z</time>
      </trkpt>
      <trkpt lat="45.38694" lon="6.74864">
        <ele>1929.5</ele>
        <time>2019-09-10T07:45:17Z</time>
      </trkpt>
      <trkpt lat="45.38703" lon="6.74856">
        <ele>1931.43</ele>
        <time>2019-09-10T07:45:33Z</time>
      </trkpt>
      <trkpt lat="45.38704" lon="6.74847">
        <ele>1929.5</ele>
        <time>2019-09-10T07:45:49Z</time>
      </trkpt>
      <trkpt lat="45.38708" lon="6.74844">
        <ele>1930.46</ele>
        <time>2019-09-10T07:46:02Z</time>
      </trkpt>
      <trkpt lat="45.38718" lon="6.74852">
        <ele>1933.35</ele>
        <time>2019-09-10T07:46:19Z</time>
      </trkpt>
      <trkpt lat="45.3872" lon="6.7486">
        <ele>1934.79</ele>
        <time>2019-09-10T07:46:37Z</time>
      </trkpt>
      <trkpt lat="45.3872" lon="6.74869">
        <ele>1935.27</ele>
        <time>2019-09-10T07:46:53Z</time>
      </trkpt>
      <trkpt lat="45.38723" lon="6.74874">
        <ele>1936.71</ele>
        <time>2019-09-10T07:47:15Z</time>
      </trkpt>
      <trkpt lat="45.38731" lon="6.74879">
        <ele>1942.48</ele>
        <time>2019-09-10T07:47:34Z</time>
      </trkpt>
      <trkpt lat="45.38736" lon="6.74891">
        <ele>1941.04</ele>
        <time>2019-09-10T07:47:53Z</time>
      </trkpt>
      <trkpt lat="45.38733" lon="6.74906">
        <ele>1942.48</ele>
        <time>2019-09-10T07:48:11Z</time>
      </trkpt>
      <trkpt lat="45.38727" lon="6.74916">
        <ele>1945.36</ele>
        <time>2019-09-10T07:48:26Z</time>
      </trkpt>
      <trkpt lat="45.38718" lon="6.74923">
        <ele>1944.4</ele>
        <time>2019-09-10T07:48:44Z</time>
      </trkpt>
      <trkpt lat="45.38713" lon="6.7493">
        <ele>1942</ele>
        <time>2019-09-10T07:49:02Z</time>
      </trkpt>
      <trkpt lat="45.38717" lon="6.74929">
        <ele>1945.36</ele>
        <time>2019-09-10T07:49:18Z</time>
      </trkpt>
      <trkpt lat="45.38721" lon="6.7493">
        <ele>1946.81</ele>
        <time>2019-09-10T07:49:33Z</time>
      </trkpt>
      <trkpt lat="45.38719" lon="6.74933">
        <ele>1948.73</ele>
        <time>2019-09-10T07:50:33Z</time>
      </trkpt>
      <trkpt lat="45.38721" lon="6.74933">
        <ele>1949.69</ele>
        <time>2019-09-10T07:50:57Z</time>
      </trkpt>
      <trkpt lat="45.38716" lon="6.74933">
        <ele>1949.69</ele>
        <time>2019-09-10T07:51:23Z</time>
      </trkpt>
      <trkpt lat="45.3871" lon="6.74929">
        <ele>1951.13</ele>
        <time>2019-09-10T07:51:43Z</time>
      </trkpt>
      <trkpt lat="45.38712" lon="6.74929">
        <ele>1951.13</ele>
        <time>2019-09-10T07:52:05Z</time>
      </trkpt>
      <trkpt lat="45.3872" lon="6.74931">
        <ele>1949.69</ele>
        <time>2019-09-10T07:52:17Z</time>
      </trkpt>
      <trkpt lat="45.38725" lon="6.74931">
        <ele>1948.73</ele>
        <time>2019-09-10T07:52:23Z</time>
      </trkpt>
      <trkpt lat="45.38727" lon="6.74933">
        <ele>1949.21</ele>
        <time>2019-09-10T07:52:26Z</time>
      </trkpt>
      <trkpt lat="45.38732" lon="6.7494">
        <ele>1950.65</ele>
        <time>2019-09-10T07:52:33Z</time>
      </trkpt>
      <trkpt lat="45.38742" lon="6.74958">
        <ele>1954.98</ele>
        <time>2019-09-10T07:52:53Z</time>
      </trkpt>
      <trkpt lat="45.38749" lon="6.74971">
        <ele>1956.9</ele>
        <time>2019-09-10T07:53:03Z</time>
      </trkpt>
      <trkpt lat="45.3876" lon="6.74987">
        <ele>1959.3</ele>
        <time>2019-09-10T07:53:23Z</time>
      </trkpt>
      <trkpt lat="45.38766" lon="6.74997">
        <ele>1959.3</ele>
        <time>2019-09-10T07:53:32Z</time>
      </trkpt>
      <trkpt lat="45.38769" lon="6.75003">
        <ele>1959.3</ele>
        <time>2019-09-10T07:53:37Z</time>
      </trkpt>
      <trkpt lat="45.38777" lon="6.75013">
        <ele>1958.34</ele>
        <time>2019-09-10T07:53:50Z</time>
      </trkpt>
      <trkpt lat="45.38781" lon="6.75021">
        <ele>1958.34</ele>
        <time>2019-09-10T07:53:56Z</time>
      </trkpt>
      <trkpt lat="45.38787" lon="6.75031">
        <ele>1958.34</ele>
        <time>2019-09-10T07:54:04Z</time>
      </trkpt>
      <trkpt lat="45.38802" lon="6.75032">
        <ele>1958.82</ele>
        <time>2019-09-10T07:54:21Z</time>
      </trkpt>
      <trkpt lat="45.38813" lon="6.75015">
        <ele>1960.27</ele>
        <time>2019-09-10T07:54:39Z</time>
      </trkpt>
      <trkpt lat="45.38822" lon="6.74998">
        <ele>1964.59</ele>
        <time>2019-09-10T07:54:57Z</time>
      </trkpt>
      <trkpt lat="45.38832" lon="6.74999">
        <ele>1970.36</ele>
        <time>2019-09-10T07:55:15Z</time>
      </trkpt>
      <trkpt lat="45.38834" lon="6.75">
        <ele>1971.32</ele>
        <time>2019-09-10T07:55:18Z</time>
      </trkpt>
      <trkpt lat="45.38838" lon="6.75003">
        <ele>1973.24</ele>
        <time>2019-09-10T07:55:23Z</time>
      </trkpt>
      <trkpt lat="45.38849" lon="6.75021">
        <ele>1979.49</ele>
        <time>2019-09-10T07:55:42Z</time>
      </trkpt>
      <trkpt lat="45.38855" lon="6.7503">
        <ele>1980.93</ele>
        <time>2019-09-10T07:55:56Z</time>
      </trkpt>
      <trkpt lat="45.38868" lon="6.75047">
        <ele>1985.26</ele>
        <time>2019-09-10T07:56:16Z</time>
      </trkpt>
      <trkpt lat="45.38868" lon="6.75048">
        <ele>1986.22</ele>
        <time>2019-09-10T07:56:18Z</time>
      </trkpt>
      <trkpt lat="45.38871" lon="6.75058">
        <ele>1988.62</ele>
        <time>2019-09-10T07:56:28Z</time>
      </trkpt>
      <trkpt lat="45.38872" lon="6.7506">
        <ele>1989.1</ele>
        <time>2019-09-10T07:56:31Z</time>
      </trkpt>
      <trkpt lat="45.3888" lon="6.75077">
        <ele>1993.43</ele>
        <time>2019-09-10T07:56:50Z</time>
      </trkpt>
      <trkpt lat="45.38881" lon="6.75078">
        <ele>1993.43</ele>
        <time>2019-09-10T07:56:51Z</time>
      </trkpt>
      <trkpt lat="45.38882" lon="6.75082">
        <ele>1994.87</ele>
        <time>2019-09-10T07:56:54Z</time>
      </trkpt>
      <trkpt lat="45.38883" lon="6.75085">
        <ele>1994.87</ele>
        <time>2019-09-10T07:56:56Z</time>
      </trkpt>
      <trkpt lat="45.38887" lon="6.75097">
        <ele>1997.28</ele>
        <time>2019-09-10T07:57:07Z</time>
      </trkpt>
      <trkpt lat="45.38889" lon="6.75115">
        <ele>1999.2</ele>
        <time>2019-09-10T07:57:20Z</time>
      </trkpt>
      <trkpt lat="45.38891" lon="6.75124">
        <ele>2002.08</ele>
        <time>2019-09-10T07:57:27Z</time>
      </trkpt>
      <trkpt lat="45.38892" lon="6.75127">
        <ele>2002.08</ele>
        <time>2019-09-10T07:57:29Z</time>
      </trkpt>
      <trkpt lat="45.38897" lon="6.7514">
        <ele>2006.89</ele>
        <time>2019-09-10T07:57:43Z</time>
      </trkpt>
      <trkpt lat="45.38902" lon="6.75156">
        <ele>2010.73</ele>
        <time>2019-09-10T07:58:00Z</time>
      </trkpt>
      <trkpt lat="45.38907" lon="6.75166">
        <ele>2011.22</ele>
        <time>2019-09-10T07:58:10Z</time>
      </trkpt>
      <trkpt lat="45.38913" lon="6.75182">
        <ele>2012.18</ele>
        <time>2019-09-10T07:58:27Z</time>
      </trkpt>
      <trkpt lat="45.38916" lon="6.7519">
        <ele>2015.54</ele>
        <time>2019-09-10T07:58:38Z</time>
      </trkpt>
      <trkpt lat="45.38926" lon="6.75203">
        <ele>2016.98</ele>
        <time>2019-09-10T07:58:55Z</time>
      </trkpt>
      <trkpt lat="45.38935" lon="6.75213">
        <ele>2018.91</ele>
        <time>2019-09-10T07:59:11Z</time>
      </trkpt>
      <trkpt lat="45.38937" lon="6.75221">
        <ele>2018.43</ele>
        <time>2019-09-10T07:59:18Z</time>
      </trkpt>
      <trkpt lat="45.38944" lon="6.75236">
        <ele>2018.91</ele>
        <time>2019-09-10T07:59:35Z</time>
      </trkpt>
      <trkpt lat="45.38945" lon="6.75248">
        <ele>2017.94</ele>
        <time>2019-09-10T07:59:44Z</time>
      </trkpt>
      <trkpt lat="45.38945" lon="6.75252">
        <ele>2018.43</ele>
        <time>2019-09-10T07:59:47Z</time>
      </trkpt>
      <trkpt lat="45.38945" lon="6.75256">
        <ele>2018.43</ele>
        <time>2019-09-10T07:59:50Z</time>
      </trkpt>
      <trkpt lat="45.38946" lon="6.75264">
        <ele>2019.39</ele>
        <time>2019-09-10T07:59:56Z</time>
      </trkpt>
      <trkpt lat="45.38949" lon="6.75266">
        <ele>2019.39</ele>
        <time>2019-09-10T08:00:19Z</time>
      </trkpt>
      <trkpt lat="45.3895" lon="6.75265">
        <ele>2018.91</ele>
        <time>2019-09-10T08:00:48Z</time>
      </trkpt>
      <trkpt lat="45.3895" lon="6.75264">
        <ele>2017.46</ele>
        <time>2019-09-10T08:01:27Z</time>
      </trkpt>
      <trkpt lat="45.38949" lon="6.75258">
        <ele>2016.98</ele>
        <time>2019-09-10T08:02:14Z</time>
      </trkpt>
      <trkpt lat="45.38946" lon="6.75249">
        <ele>2016.98</ele>
        <time>2019-09-10T08:03:11Z</time>
      </trkpt>
      <trkpt lat="45.38946" lon="6.75249">
        <ele>2016.98</ele>
        <time>2019-09-10T08:03:53Z</time>
      </trkpt>
      <trkpt lat="45.38943" lon="6.75247">
        <ele>2016.98</ele>
        <time>2019-09-10T08:04:39Z</time>
      </trkpt>
      <trkpt lat="45.38944" lon="6.75247">
        <ele>2016.98</ele>
        <time>2019-09-10T08:05:51Z</time>
      </trkpt>
      <trkpt lat="45.38943" lon="6.75249">
        <ele>2016.98</ele>
        <time>2019-09-10T08:07:33Z</time>
      </trkpt>
      <trkpt lat="45.38941" lon="6.75244">
        <ele>2016.98</ele>
        <time>2019-09-10T08:08:57Z</time>
      </trkpt>
      <trkpt lat="45.38941" lon="6.75244">
        <ele>2017.46</ele>
        <time>2019-09-10T08:09:39Z</time>
      </trkpt>
      <trkpt lat="45.38942" lon="6.75246">
        <ele>2016.5</ele>
        <time>2019-09-10T08:10:34Z</time>
      </trkpt>
      <trkpt lat="45.38946" lon="6.75253">
        <ele>2014.58</ele>
        <time>2019-09-10T08:10:50Z</time>
      </trkpt>
      <trkpt lat="45.38947" lon="6.75261">
        <ele>2011.22</ele>
        <time>2019-09-10T08:11:19Z</time>
      </trkpt>
      <trkpt lat="45.38952" lon="6.75257">
        <ele>2008.33</ele>
        <time>2019-09-10T08:11:36Z</time>
      </trkpt>
      <trkpt lat="45.38958" lon="6.75268">
        <ele>2008.33</ele>
        <time>2019-09-10T08:11:47Z</time>
      </trkpt>
      <trkpt lat="45.38962" lon="6.75279">
        <ele>2008.33</ele>
        <time>2019-09-10T08:11:57Z</time>
      </trkpt>
      <trkpt lat="45.38964" lon="6.75283">
        <ele>2008.33</ele>
        <time>2019-09-10T08:12:00Z</time>
      </trkpt>
      <trkpt lat="45.3897" lon="6.75294">
        <ele>2010.73</ele>
        <time>2019-09-10T08:12:11Z</time>
      </trkpt>
      <trkpt lat="45.38977" lon="6.75317">
        <ele>2012.66</ele>
        <time>2019-09-10T08:12:29Z</time>
      </trkpt>
      <trkpt lat="45.3898" lon="6.75325">
        <ele>2012.18</ele>
        <time>2019-09-10T08:12:37Z</time>
      </trkpt>
      <trkpt lat="45.38983" lon="6.75339">
        <ele>2012.66</ele>
        <time>2019-09-10T08:12:47Z</time>
      </trkpt>
      <trkpt lat="45.38984" lon="6.75348">
        <ele>2013.62</ele>
        <time>2019-09-10T08:12:54Z</time>
      </trkpt>
      <trkpt lat="45.38985" lon="6.75357">
        <ele>2013.62</ele>
        <time>2019-09-10T08:13:00Z</time>
      </trkpt>
      <trkpt lat="45.38985" lon="6.75367">
        <ele>2013.14</ele>
        <time>2019-09-10T08:13:07Z</time>
      </trkpt>
      <trkpt lat="45.38984" lon="6.7537">
        <ele>2012.66</ele>
        <time>2019-09-10T08:13:09Z</time>
      </trkpt>
      <trkpt lat="45.38979" lon="6.75376">
        <ele>2011.7</ele>
        <time>2019-09-10T08:13:15Z</time>
      </trkpt>
      <trkpt lat="45.38974" lon="6.75376">
        <ele>2010.25</ele>
        <time>2019-09-10T08:13:21Z</time>
      </trkpt>
      <trkpt lat="45.38972" lon="6.75376">
        <ele>2010.25</ele>
        <time>2019-09-10T08:13:24Z</time>
      </trkpt>
      <trkpt lat="45.38961" lon="6.75373">
        <ele>2007.37</ele>
        <time>2019-09-10T08:13:38Z</time>
      </trkpt>
      <trkpt lat="45.38954" lon="6.75379">
        <ele>2008.81</ele>
        <time>2019-09-10T08:13:56Z</time>
      </trkpt>
      <trkpt lat="45.38951" lon="6.75378">
        <ele>2009.29</ele>
        <time>2019-09-10T08:14:52Z</time>
      </trkpt>
      <trkpt lat="45.3895" lon="6.75385">
        <ele>2009.29</ele>
        <time>2019-09-10T08:15:01Z</time>
      </trkpt>
      <trkpt lat="45.38954" lon="6.75403">
        <ele>2013.14</ele>
        <time>2019-09-10T08:15:21Z</time>
      </trkpt>
      <trkpt lat="45.38957" lon="6.75411">
        <ele>2014.1</ele>
        <time>2019-09-10T08:15:28Z</time>
      </trkpt>
      <trkpt lat="45.38962" lon="6.7542">
        <ele>2015.54</ele>
        <time>2019-09-10T08:15:45Z</time>
      </trkpt>
      <trkpt lat="45.38973" lon="6.75432">
        <ele>2019.39</ele>
        <time>2019-09-10T08:16:06Z</time>
      </trkpt>
      <trkpt lat="45.38979" lon="6.75448">
        <ele>2019.87</ele>
        <time>2019-09-10T08:16:23Z</time>
      </trkpt>
      <trkpt lat="45.38983" lon="6.75463">
        <ele>2021.79</ele>
        <time>2019-09-10T08:16:40Z</time>
      </trkpt>
      <trkpt lat="45.3899" lon="6.75483">
        <ele>2023.71</ele>
        <time>2019-09-10T08:16:59Z</time>
      </trkpt>
      <trkpt lat="45.38995" lon="6.75504">
        <ele>2024.19</ele>
        <time>2019-09-10T08:17:15Z</time>
      </trkpt>
      <trkpt lat="45.39002" lon="6.75519">
        <ele>2025.15</ele>
        <time>2019-09-10T08:17:27Z</time>
      </trkpt>
      <trkpt lat="45.39005" lon="6.75525">
        <ele>2023.23</ele>
        <time>2019-09-10T08:17:32Z</time>
      </trkpt>
      <trkpt lat="45.39005" lon="6.75527">
        <ele>2023.71</ele>
        <time>2019-09-10T08:17:34Z</time>
      </trkpt>
      <trkpt lat="45.39006" lon="6.75529">
        <ele>2023.23</ele>
        <time>2019-09-10T08:17:36Z</time>
      </trkpt>
      <trkpt lat="45.39015" lon="6.75537">
        <ele>2024.67</ele>
        <time>2019-09-10T08:17:46Z</time>
      </trkpt>
      <trkpt lat="45.39018" lon="6.75543">
        <ele>2025.15</ele>
        <time>2019-09-10T08:17:52Z</time>
      </trkpt>
      <trkpt lat="45.39027" lon="6.75554">
        <ele>2027.56</ele>
        <time>2019-09-10T08:18:05Z</time>
      </trkpt>
      <trkpt lat="45.39033" lon="6.75566">
        <ele>2028.52</ele>
        <time>2019-09-10T08:18:16Z</time>
      </trkpt>
      <trkpt lat="45.39034" lon="6.75568">
        <ele>2028.52</ele>
        <time>2019-09-10T08:18:18Z</time>
      </trkpt>
      <trkpt lat="45.39036" lon="6.75572">
        <ele>2028.04</ele>
        <time>2019-09-10T08:18:21Z</time>
      </trkpt>
      <trkpt lat="45.39045" lon="6.75592">
        <ele>2030.44</ele>
        <time>2019-09-10T08:18:39Z</time>
      </trkpt>
      <trkpt lat="45.39054" lon="6.75605">
        <ele>2029.96</ele>
        <time>2019-09-10T08:18:56Z</time>
      </trkpt>
      <trkpt lat="45.39066" lon="6.75621">
        <ele>2029.48</ele>
        <time>2019-09-10T08:19:12Z</time>
      </trkpt>
      <trkpt lat="45.39069" lon="6.75625">
        <ele>2029.48</ele>
        <time>2019-09-10T08:19:15Z</time>
      </trkpt>
      <trkpt lat="45.39081" lon="6.75645">
        <ele>2030.44</ele>
        <time>2019-09-10T08:19:33Z</time>
      </trkpt>
      <trkpt lat="45.39091" lon="6.75659">
        <ele>2033.81</ele>
        <time>2019-09-10T08:19:50Z</time>
      </trkpt>
      <trkpt lat="45.39099" lon="6.75674">
        <ele>2036.21</ele>
        <time>2019-09-10T08:20:07Z</time>
      </trkpt>
      <trkpt lat="45.39099" lon="6.75676">
        <ele>2037.17</ele>
        <time>2019-09-10T08:20:10Z</time>
      </trkpt>
      <trkpt lat="45.39106" lon="6.75695">
        <ele>2040.05</ele>
        <time>2019-09-10T08:20:28Z</time>
      </trkpt>
      <trkpt lat="45.39114" lon="6.75708">
        <ele>2041.02</ele>
        <time>2019-09-10T08:20:45Z</time>
      </trkpt>
      <trkpt lat="45.39117" lon="6.75712">
        <ele>2041.5</ele>
        <time>2019-09-10T08:20:50Z</time>
      </trkpt>
      <trkpt lat="45.39124" lon="6.75719">
        <ele>2041.98</ele>
        <time>2019-09-10T08:21:01Z</time>
      </trkpt>
      <trkpt lat="45.39132" lon="6.75737">
        <ele>2041.98</ele>
        <time>2019-09-10T08:21:18Z</time>
      </trkpt>
      <trkpt lat="45.39133" lon="6.7574">
        <ele>2042.46</ele>
        <time>2019-09-10T08:21:21Z</time>
      </trkpt>
      <trkpt lat="45.39135" lon="6.7575">
        <ele>2042.94</ele>
        <time>2019-09-10T08:21:29Z</time>
      </trkpt>
      <trkpt lat="45.39144" lon="6.7576">
        <ele>2046.3</ele>
        <time>2019-09-10T08:21:45Z</time>
      </trkpt>
      <trkpt lat="45.39153" lon="6.75774">
        <ele>2046.3</ele>
        <time>2019-09-10T08:22:03Z</time>
      </trkpt>
      <trkpt lat="45.39153" lon="6.75776">
        <ele>2045.82</ele>
        <time>2019-09-10T08:22:04Z</time>
      </trkpt>
      <trkpt lat="45.39155" lon="6.7579">
        <ele>2048.23</ele>
        <time>2019-09-10T08:22:22Z</time>
      </trkpt>
      <trkpt lat="45.39156" lon="6.75797">
        <ele>2049.67</ele>
        <time>2019-09-10T08:22:27Z</time>
      </trkpt>
      <trkpt lat="45.39157" lon="6.75804">
        <ele>2049.67</ele>
        <time>2019-09-10T08:22:31Z</time>
      </trkpt>
      <trkpt lat="45.39157" lon="6.75806">
        <ele>2050.63</ele>
        <time>2019-09-10T08:22:33Z</time>
      </trkpt>
      <trkpt lat="45.39159" lon="6.75813">
        <ele>2051.59</ele>
        <time>2019-09-10T08:22:38Z</time>
      </trkpt>
      <trkpt lat="45.3916" lon="6.75819">
        <ele>2051.59</ele>
        <time>2019-09-10T08:22:43Z</time>
      </trkpt>
      <trkpt lat="45.39161" lon="6.75823">
        <ele>2052.07</ele>
        <time>2019-09-10T08:22:46Z</time>
      </trkpt>
      <trkpt lat="45.39165" lon="6.75835">
        <ele>2052.07</ele>
        <time>2019-09-10T08:22:55Z</time>
      </trkpt>
      <trkpt lat="45.39167" lon="6.75838">
        <ele>2052.07</ele>
        <time>2019-09-10T08:22:58Z</time>
      </trkpt>
      <trkpt lat="45.39171" lon="6.75848">
        <ele>2053.51</ele>
        <time>2019-09-10T08:23:05Z</time>
      </trkpt>
      <trkpt lat="45.39179" lon="6.75871">
        <ele>2051.59</ele>
        <time>2019-09-10T08:23:22Z</time>
      </trkpt>
      <trkpt lat="45.39181" lon="6.75873">
        <ele>2052.07</ele>
        <time>2019-09-10T08:23:24Z</time>
      </trkpt>
      <trkpt lat="45.39185" lon="6.7588">
        <ele>2051.59</ele>
        <time>2019-09-10T08:23:31Z</time>
      </trkpt>
      <trkpt lat="45.39192" lon="6.75896">
        <ele>2050.63</ele>
        <time>2019-09-10T08:23:48Z</time>
      </trkpt>
      <trkpt lat="45.39194" lon="6.75909">
        <ele>2052.55</ele>
        <time>2019-09-10T08:24:03Z</time>
      </trkpt>
      <trkpt lat="45.39199" lon="6.75922">
        <ele>2052.55</ele>
        <time>2019-09-10T08:24:17Z</time>
      </trkpt>
      <trkpt lat="45.39199" lon="6.75924">
        <ele>2052.55</ele>
        <time>2019-09-10T08:24:18Z</time>
      </trkpt>
      <trkpt lat="45.392" lon="6.7593">
        <ele>2053.99</ele>
        <time>2019-09-10T08:24:26Z</time>
      </trkpt>
      <trkpt lat="45.39206" lon="6.75946">
        <ele>2057.36</ele>
        <time>2019-09-10T08:24:44Z</time>
      </trkpt>
      <trkpt lat="45.39208" lon="6.75954">
        <ele>2057.84</ele>
        <time>2019-09-10T08:24:49Z</time>
      </trkpt>
      <trkpt lat="45.39211" lon="6.75964">
        <ele>2059.28</ele>
        <time>2019-09-10T08:24:56Z</time>
      </trkpt>
      <trkpt lat="45.39217" lon="6.75991">
        <ele>2058.8</ele>
        <time>2019-09-10T08:25:14Z</time>
      </trkpt>
      <trkpt lat="45.39218" lon="6.75994">
        <ele>2059.28</ele>
        <time>2019-09-10T08:25:17Z</time>
      </trkpt>
      <trkpt lat="45.39219" lon="6.75996">
        <ele>2058.8</ele>
        <time>2019-09-10T08:25:19Z</time>
      </trkpt>
      <trkpt lat="45.39225" lon="6.76018">
        <ele>2059.28</ele>
        <time>2019-09-10T08:25:37Z</time>
      </trkpt>
      <trkpt lat="45.39233" lon="6.76041">
        <ele>2063.13</ele>
        <time>2019-09-10T08:25:56Z</time>
      </trkpt>
      <trkpt lat="45.39233" lon="6.76042">
        <ele>2063.13</ele>
        <time>2019-09-10T08:25:57Z</time>
      </trkpt>
      <trkpt lat="45.39234" lon="6.76045">
        <ele>2062.65</ele>
        <time>2019-09-10T08:26:00Z</time>
      </trkpt>
      <trkpt lat="45.39244" lon="6.7606">
        <ele>2065.05</ele>
        <time>2019-09-10T08:26:18Z</time>
      </trkpt>
      <trkpt lat="45.39252" lon="6.76071">
        <ele>2067.93</ele>
        <time>2019-09-10T08:26:35Z</time>
      </trkpt>
      <trkpt lat="45.39257" lon="6.76084">
        <ele>2070.34</ele>
        <time>2019-09-10T08:26:50Z</time>
      </trkpt>
      <trkpt lat="45.39262" lon="6.76092">
        <ele>2070.82</ele>
        <time>2019-09-10T08:27:01Z</time>
      </trkpt>
      <trkpt lat="45.39268" lon="6.76095">
        <ele>2072.74</ele>
        <time>2019-09-10T08:27:08Z</time>
      </trkpt>
      <trkpt lat="45.39274" lon="6.76108">
        <ele>2071.78</ele>
        <time>2019-09-10T08:27:25Z</time>
      </trkpt>
      <trkpt lat="45.39283" lon="6.76114">
        <ele>2072.74</ele>
        <time>2019-09-10T08:27:40Z</time>
      </trkpt>
      <trkpt lat="45.39285" lon="6.76117">
        <ele>2073.22</ele>
        <time>2019-09-10T08:27:44Z</time>
      </trkpt>
      <trkpt lat="45.39294" lon="6.76132">
        <ele>2076.1</ele>
        <time>2019-09-10T08:28:01Z</time>
      </trkpt>
      <trkpt lat="45.39305" lon="6.76139">
        <ele>2077.55</ele>
        <time>2019-09-10T08:28:17Z</time>
      </trkpt>
      <trkpt lat="45.39316" lon="6.7615">
        <ele>2080.43</ele>
        <time>2019-09-10T08:28:34Z</time>
      </trkpt>
      <trkpt lat="45.39317" lon="6.76153">
        <ele>2080.91</ele>
        <time>2019-09-10T08:28:37Z</time>
      </trkpt>
      <trkpt lat="45.39324" lon="6.76165">
        <ele>2082.83</ele>
        <time>2019-09-10T08:28:55Z</time>
      </trkpt>
      <trkpt lat="45.39333" lon="6.76173">
        <ele>2088.6</ele>
        <time>2019-09-10T08:29:13Z</time>
      </trkpt>
      <trkpt lat="45.39341" lon="6.76181">
        <ele>2089.56</ele>
        <time>2019-09-10T08:29:28Z</time>
      </trkpt>
      <trkpt lat="45.39351" lon="6.76195">
        <ele>2091.49</ele>
        <time>2019-09-10T08:29:48Z</time>
      </trkpt>
      <trkpt lat="45.3936" lon="6.76203">
        <ele>2092.45</ele>
        <time>2019-09-10T08:30:05Z</time>
      </trkpt>
      <trkpt lat="45.3936" lon="6.76204">
        <ele>2092.45</ele>
        <time>2019-09-10T08:30:06Z</time>
      </trkpt>
      <trkpt lat="45.39366" lon="6.76211">
        <ele>2093.41</ele>
        <time>2019-09-10T08:30:23Z</time>
      </trkpt>
      <trkpt lat="45.39375" lon="6.76217">
        <ele>2094.37</ele>
        <time>2019-09-10T08:30:39Z</time>
      </trkpt>
      <trkpt lat="45.39383" lon="6.76222">
        <ele>2096.77</ele>
        <time>2019-09-10T08:30:55Z</time>
      </trkpt>
      <trkpt lat="45.39391" lon="6.76225">
        <ele>2101.1</ele>
        <time>2019-09-10T08:31:11Z</time>
      </trkpt>
      <trkpt lat="45.39393" lon="6.76226">
        <ele>2102.06</ele>
        <time>2019-09-10T08:31:17Z</time>
      </trkpt>
      <trkpt lat="45.39405" lon="6.76232">
        <ele>2104.46</ele>
        <time>2019-09-10T08:31:33Z</time>
      </trkpt>
      <trkpt lat="45.39406" lon="6.76233">
        <ele>2104.94</ele>
        <time>2019-09-10T08:31:35Z</time>
      </trkpt>
      <trkpt lat="45.39409" lon="6.76239">
        <ele>2102.54</ele>
        <time>2019-09-10T08:31:40Z</time>
      </trkpt>
      <trkpt lat="45.39409" lon="6.76243">
        <ele>2103.02</ele>
        <time>2019-09-10T08:31:44Z</time>
      </trkpt>
      <trkpt lat="45.39403" lon="6.76251">
        <ele>2103.5</ele>
        <time>2019-09-10T08:32:02Z</time>
      </trkpt>
      <trkpt lat="45.39394" lon="6.76259">
        <ele>2105.42</ele>
        <time>2019-09-10T08:32:19Z</time>
      </trkpt>
      <trkpt lat="45.39396" lon="6.76268">
        <ele>2109.75</ele>
        <time>2019-09-10T08:32:35Z</time>
      </trkpt>
      <trkpt lat="45.39404" lon="6.76278">
        <ele>2111.19</ele>
        <time>2019-09-10T08:32:53Z</time>
      </trkpt>
      <trkpt lat="45.39407" lon="6.7628">
        <ele>2110.23</ele>
        <time>2019-09-10T08:32:58Z</time>
      </trkpt>
      <trkpt lat="45.39416" lon="6.76285">
        <ele>2113.6</ele>
        <time>2019-09-10T08:33:14Z</time>
      </trkpt>
      <trkpt lat="45.39421" lon="6.76297">
        <ele>2117.92</ele>
        <time>2019-09-10T08:33:29Z</time>
      </trkpt>
      <trkpt lat="45.39425" lon="6.76308">
        <ele>2117.92</ele>
        <time>2019-09-10T08:33:46Z</time>
      </trkpt>
      <trkpt lat="45.39421" lon="6.76313">
        <ele>2118.4</ele>
        <time>2019-09-10T08:34:00Z</time>
      </trkpt>
      <trkpt lat="45.39416" lon="6.76319">
        <ele>2119.84</ele>
        <time>2019-09-10T08:34:12Z</time>
      </trkpt>
      <trkpt lat="45.39404" lon="6.76319">
        <ele>2121.29</ele>
        <time>2019-09-10T08:34:31Z</time>
      </trkpt>
      <trkpt lat="45.394" lon="6.76327">
        <ele>2121.77</ele>
        <time>2019-09-10T08:34:48Z</time>
      </trkpt>
      <trkpt lat="45.39402" lon="6.76334">
        <ele>2126.09</ele>
        <time>2019-09-10T08:35:06Z</time>
      </trkpt>
      <trkpt lat="45.3941" lon="6.76344">
        <ele>2129.94</ele>
        <time>2019-09-10T08:35:24Z</time>
      </trkpt>
      <trkpt lat="45.39413" lon="6.7635">
        <ele>2130.9</ele>
        <time>2019-09-10T08:35:34Z</time>
      </trkpt>
      <trkpt lat="45.39418" lon="6.76359">
        <ele>2131.86</ele>
        <time>2019-09-10T08:35:52Z</time>
      </trkpt>
      <trkpt lat="45.39417" lon="6.7637">
        <ele>2131.38</ele>
        <time>2019-09-10T08:36:11Z</time>
      </trkpt>
      <trkpt lat="45.39417" lon="6.76377">
        <ele>2133.3</ele>
        <time>2019-09-10T08:36:31Z</time>
      </trkpt>
      <trkpt lat="45.39421" lon="6.76385">
        <ele>2137.15</ele>
        <time>2019-09-10T08:36:46Z</time>
      </trkpt>
      <trkpt lat="45.39417" lon="6.7639">
        <ele>2137.15</ele>
        <time>2019-09-10T08:37:02Z</time>
      </trkpt>
      <trkpt lat="45.39414" lon="6.76398">
        <ele>2138.59</ele>
        <time>2019-09-10T08:37:19Z</time>
      </trkpt>
      <trkpt lat="45.39412" lon="6.76407">
        <ele>2141.47</ele>
        <time>2019-09-10T08:37:38Z</time>
      </trkpt>
      <trkpt lat="45.39414" lon="6.76417">
        <ele>2142.44</ele>
        <time>2019-09-10T08:37:55Z</time>
      </trkpt>
      <trkpt lat="45.39418" lon="6.76426">
        <ele>2145.8</ele>
        <time>2019-09-10T08:38:11Z</time>
      </trkpt>
      <trkpt lat="45.39427" lon="6.76437">
        <ele>2148.2</ele>
        <time>2019-09-10T08:38:29Z</time>
      </trkpt>
      <trkpt lat="45.39434" lon="6.76444">
        <ele>2150.61</ele>
        <time>2019-09-10T08:38:45Z</time>
      </trkpt>
      <trkpt lat="45.39439" lon="6.76454">
        <ele>2153.49</ele>
        <time>2019-09-10T08:39:04Z</time>
      </trkpt>
      <trkpt lat="45.39442" lon="6.76462">
        <ele>2154.45</ele>
        <time>2019-09-10T08:39:19Z</time>
      </trkpt>
      <trkpt lat="45.39446" lon="6.76474">
        <ele>2157.82</ele>
        <time>2019-09-10T08:39:35Z</time>
      </trkpt>
      <trkpt lat="45.39449" lon="6.76485">
        <ele>2159.74</ele>
        <time>2019-09-10T08:39:50Z</time>
      </trkpt>
      <trkpt lat="45.39453" lon="6.76495">
        <ele>2162.14</ele>
        <time>2019-09-10T08:40:07Z</time>
      </trkpt>
      <trkpt lat="45.39459" lon="6.76504">
        <ele>2165.03</ele>
        <time>2019-09-10T08:40:23Z</time>
      </trkpt>
      <trkpt lat="45.39453" lon="6.76512">
        <ele>2165.99</ele>
        <time>2019-09-10T08:40:39Z</time>
      </trkpt>
      <trkpt lat="45.39447" lon="6.76507">
        <ele>2168.39</ele>
        <time>2019-09-10T08:40:55Z</time>
      </trkpt>
      <trkpt lat="45.3944" lon="6.76507">
        <ele>2169.35</ele>
        <time>2019-09-10T08:41:14Z</time>
      </trkpt>
      <trkpt lat="45.39433" lon="6.76518">
        <ele>2169.83</ele>
        <time>2019-09-10T08:41:33Z</time>
      </trkpt>
      <trkpt lat="45.39425" lon="6.76525">
        <ele>2170.31</ele>
        <time>2019-09-10T08:41:50Z</time>
      </trkpt>
      <trkpt lat="45.39431" lon="6.76536">
        <ele>2173.68</ele>
        <time>2019-09-10T08:42:11Z</time>
      </trkpt>
      <trkpt lat="45.39437" lon="6.7654">
        <ele>2176.08</ele>
        <time>2019-09-10T08:42:29Z</time>
      </trkpt>
      <trkpt lat="45.39445" lon="6.76549">
        <ele>2178.97</ele>
        <time>2019-09-10T08:42:47Z</time>
      </trkpt>
      <trkpt lat="45.39449" lon="6.7656">
        <ele>2181.85</ele>
        <time>2019-09-10T08:43:05Z</time>
      </trkpt>
      <trkpt lat="45.3946" lon="6.76573">
        <ele>2184.73</ele>
        <time>2019-09-10T08:43:23Z</time>
      </trkpt>
      <trkpt lat="45.39465" lon="6.76586">
        <ele>2186.66</ele>
        <time>2019-09-10T08:43:41Z</time>
      </trkpt>
      <trkpt lat="45.39466" lon="6.76589">
        <ele>2186.66</ele>
        <time>2019-09-10T08:43:59Z</time>
      </trkpt>
      <trkpt lat="45.39466" lon="6.76591">
        <ele>2187.14</ele>
        <time>2019-09-10T08:45:58Z</time>
      </trkpt>
      <trkpt lat="45.39461" lon="6.76592">
        <ele>2186.18</ele>
        <time>2019-09-10T08:48:23Z</time>
      </trkpt>
      <trkpt lat="45.39454" lon="6.76596">
        <ele>2187.14</ele>
        <time>2019-09-10T08:48:36Z</time>
      </trkpt>
      <trkpt lat="45.39453" lon="6.76598">
        <ele>2187.14</ele>
        <time>2019-09-10T08:48:38Z</time>
      </trkpt>
      <trkpt lat="45.39449" lon="6.76604">
        <ele>2189.54</ele>
        <time>2019-09-10T08:48:57Z</time>
      </trkpt>
      <trkpt lat="45.39451" lon="6.76605">
        <ele>2189.54</ele>
        <time>2019-09-10T08:48:59Z</time>
      </trkpt>
      <trkpt lat="45.39462" lon="6.76623">
        <ele>2191.94</ele>
        <time>2019-09-10T08:49:19Z</time>
      </trkpt>
      <trkpt lat="45.39466" lon="6.76633">
        <ele>2193.39</ele>
        <time>2019-09-10T08:49:31Z</time>
      </trkpt>
      <trkpt lat="45.39475" lon="6.76649">
        <ele>2197.23</ele>
        <time>2019-09-10T08:49:49Z</time>
      </trkpt>
      <trkpt lat="45.39478" lon="6.76659">
        <ele>2200.59</ele>
        <time>2019-09-10T08:50:12Z</time>
      </trkpt>
      <trkpt lat="45.39483" lon="6.76676">
        <ele>2202.04</ele>
        <time>2019-09-10T08:50:30Z</time>
      </trkpt>
      <trkpt lat="45.39488" lon="6.7668">
        <ele>2202.04</ele>
        <time>2019-09-10T08:50:36Z</time>
      </trkpt>
      <trkpt lat="45.39492" lon="6.76686">
        <ele>2202.52</ele>
        <time>2019-09-10T08:50:41Z</time>
      </trkpt>
      <trkpt lat="45.39495" lon="6.76691">
        <ele>2202.52</ele>
        <time>2019-09-10T08:50:45Z</time>
      </trkpt>
      <trkpt lat="45.39501" lon="6.76704">
        <ele>2203</ele>
        <time>2019-09-10T08:50:56Z</time>
      </trkpt>
      <trkpt lat="45.39504" lon="6.76711">
        <ele>2203</ele>
        <time>2019-09-10T08:51:03Z</time>
      </trkpt>
      <trkpt lat="45.3951" lon="6.76724">
        <ele>2205.4</ele>
        <time>2019-09-10T08:51:16Z</time>
      </trkpt>
      <trkpt lat="45.39512" lon="6.76728">
        <ele>2205.88</ele>
        <time>2019-09-10T08:51:20Z</time>
      </trkpt>
      <trkpt lat="45.39519" lon="6.7675">
        <ele>2208.77</ele>
        <time>2019-09-10T08:51:36Z</time>
      </trkpt>
      <trkpt lat="45.39526" lon="6.7676">
        <ele>2209.73</ele>
        <time>2019-09-10T08:51:50Z</time>
      </trkpt>
      <trkpt lat="45.39534" lon="6.7676">
        <ele>2210.69</ele>
        <time>2019-09-10T08:51:58Z</time>
      </trkpt>
      <trkpt lat="45.3954" lon="6.76753">
        <ele>2211.17</ele>
        <time>2019-09-10T08:52:07Z</time>
      </trkpt>
      <trkpt lat="45.39541" lon="6.76751">
        <ele>2212.13</ele>
        <time>2019-09-10T08:52:09Z</time>
      </trkpt>
      <trkpt lat="45.39544" lon="6.76747">
        <ele>2214.05</ele>
        <time>2019-09-10T08:52:13Z</time>
      </trkpt>
      <trkpt lat="45.39554" lon="6.76739">
        <ele>2219.82</ele>
        <time>2019-09-10T08:52:26Z</time>
      </trkpt>
      <trkpt lat="45.39559" lon="6.76732">
        <ele>2221.74</ele>
        <time>2019-09-10T08:52:33Z</time>
      </trkpt>
      <trkpt lat="45.39565" lon="6.76732">
        <ele>2223.67</ele>
        <time>2019-09-10T08:52:41Z</time>
      </trkpt>
      <trkpt lat="45.39567" lon="6.76735">
        <ele>2223.67</ele>
        <time>2019-09-10T08:52:44Z</time>
      </trkpt>
      <trkpt lat="45.39571" lon="6.76736">
        <ele>2223.19</ele>
        <time>2019-09-10T08:52:48Z</time>
      </trkpt>
      <trkpt lat="45.39579" lon="6.76748">
        <ele>2225.59</ele>
        <time>2019-09-10T08:53:04Z</time>
      </trkpt>
      <trkpt lat="45.39581" lon="6.76762">
        <ele>2228.47</ele>
        <time>2019-09-10T08:53:17Z</time>
      </trkpt>
      <trkpt lat="45.39578" lon="6.76767">
        <ele>2228.95</ele>
        <time>2019-09-10T08:53:21Z</time>
      </trkpt>
      <trkpt lat="45.39571" lon="6.76779">
        <ele>2228.95</ele>
        <time>2019-09-10T08:53:32Z</time>
      </trkpt>
      <trkpt lat="45.39567" lon="6.76782">
        <ele>2228.95</ele>
        <time>2019-09-10T08:53:36Z</time>
      </trkpt>
      <trkpt lat="45.39568" lon="6.76793">
        <ele>2231.36</ele>
        <time>2019-09-10T08:53:49Z</time>
      </trkpt>
      <trkpt lat="45.39571" lon="6.76793">
        <ele>2232.8</ele>
        <time>2019-09-10T08:53:53Z</time>
      </trkpt>
      <trkpt lat="45.39574" lon="6.76793">
        <ele>2233.28</ele>
        <time>2019-09-10T08:53:55Z</time>
      </trkpt>
      <trkpt lat="45.39576" lon="6.76792">
        <ele>2233.76</ele>
        <time>2019-09-10T08:53:57Z</time>
      </trkpt>
      <trkpt lat="45.39585" lon="6.76794">
        <ele>2236.16</ele>
        <time>2019-09-10T08:54:06Z</time>
      </trkpt>
      <trkpt lat="45.396" lon="6.76807">
        <ele>2238.57</ele>
        <time>2019-09-10T08:54:24Z</time>
      </trkpt>
      <trkpt lat="45.39607" lon="6.76815">
        <ele>2240.49</ele>
        <time>2019-09-10T08:54:35Z</time>
      </trkpt>
      <trkpt lat="45.39608" lon="6.7683">
        <ele>2242.41</ele>
        <time>2019-09-10T08:54:47Z</time>
      </trkpt>
      <trkpt lat="45.39613" lon="6.76842">
        <ele>2241.93</ele>
        <time>2019-09-10T08:54:55Z</time>
      </trkpt>
      <trkpt lat="45.39614" lon="6.76846">
        <ele>2242.89</ele>
        <time>2019-09-10T08:54:58Z</time>
      </trkpt>
      <trkpt lat="45.3962" lon="6.76869">
        <ele>2246.26</ele>
        <time>2019-09-10T08:55:17Z</time>
      </trkpt>
      <trkpt lat="45.39621" lon="6.76879">
        <ele>2248.18</ele>
        <time>2019-09-10T08:55:25Z</time>
      </trkpt>
      <trkpt lat="45.39623" lon="6.76883">
        <ele>2248.66</ele>
        <time>2019-09-10T08:55:29Z</time>
      </trkpt>
      <trkpt lat="45.39631" lon="6.76891">
        <ele>2250.1</ele>
        <time>2019-09-10T08:55:38Z</time>
      </trkpt>
      <trkpt lat="45.39635" lon="6.76903">
        <ele>2252.99</ele>
        <time>2019-09-10T08:55:54Z</time>
      </trkpt>
      <trkpt lat="45.39635" lon="6.76907">
        <ele>2253.95</ele>
        <time>2019-09-10T08:55:57Z</time>
      </trkpt>
      <trkpt lat="45.39634" lon="6.76919">
        <ele>2255.87</ele>
        <time>2019-09-10T08:56:06Z</time>
      </trkpt>
      <trkpt lat="45.39637" lon="6.7693">
        <ele>2258.75</ele>
        <time>2019-09-10T08:56:15Z</time>
      </trkpt>
      <trkpt lat="45.39646" lon="6.76937">
        <ele>2260.2</ele>
        <time>2019-09-10T08:56:28Z</time>
      </trkpt>
      <trkpt lat="45.39651" lon="6.7694">
        <ele>2259.72</ele>
        <time>2019-09-10T08:56:33Z</time>
      </trkpt>
      <trkpt lat="45.39653" lon="6.76944">
        <ele>2260.2</ele>
        <time>2019-09-10T08:56:36Z</time>
      </trkpt>
      <trkpt lat="45.39653" lon="6.76947">
        <ele>2261.16</ele>
        <time>2019-09-10T08:56:39Z</time>
      </trkpt>
      <trkpt lat="45.39649" lon="6.76956">
        <ele>2261.16</ele>
        <time>2019-09-10T08:56:46Z</time>
      </trkpt>
      <trkpt lat="45.39647" lon="6.76959">
        <ele>2261.16</ele>
        <time>2019-09-10T08:56:49Z</time>
      </trkpt>
      <trkpt lat="45.39637" lon="6.76962">
        <ele>2262.6</ele>
        <time>2019-09-10T08:56:58Z</time>
      </trkpt>
      <trkpt lat="45.39639" lon="6.76967">
        <ele>2264.04</ele>
        <time>2019-09-10T08:57:04Z</time>
      </trkpt>
      <trkpt lat="45.39647" lon="6.76976">
        <ele>2265.96</ele>
        <time>2019-09-10T08:57:15Z</time>
      </trkpt>
      <trkpt lat="45.39648" lon="6.76978">
        <ele>2266.45</ele>
        <time>2019-09-10T08:57:17Z</time>
      </trkpt>
      <trkpt lat="45.3965" lon="6.76988">
        <ele>2268.85</ele>
        <time>2019-09-10T08:57:27Z</time>
      </trkpt>
      <trkpt lat="45.39652" lon="6.77">
        <ele>2269.81</ele>
        <time>2019-09-10T08:57:47Z</time>
      </trkpt>
      <trkpt lat="45.39656" lon="6.77">
        <ele>2270.77</ele>
        <time>2019-09-10T08:57:55Z</time>
      </trkpt>
      <trkpt lat="45.39662" lon="6.77005">
        <ele>2272.69</ele>
        <time>2019-09-10T08:58:05Z</time>
      </trkpt>
      <trkpt lat="45.39658" lon="6.77013">
        <ele>2274.62</ele>
        <time>2019-09-10T08:58:13Z</time>
      </trkpt>
      <trkpt lat="45.39658" lon="6.77015">
        <ele>2275.58</ele>
        <time>2019-09-10T08:58:15Z</time>
      </trkpt>
      <trkpt lat="45.39659" lon="6.77019">
        <ele>2276.54</ele>
        <time>2019-09-10T08:58:18Z</time>
      </trkpt>
      <trkpt lat="45.39657" lon="6.77032">
        <ele>2277.98</ele>
        <time>2019-09-10T08:58:31Z</time>
      </trkpt>
      <trkpt lat="45.3966" lon="6.77034">
        <ele>2278.94</ele>
        <time>2019-09-10T08:58:35Z</time>
      </trkpt>
      <trkpt lat="45.3967" lon="6.77042">
        <ele>2282.79</ele>
        <time>2019-09-10T08:58:53Z</time>
      </trkpt>
      <trkpt lat="45.39673" lon="6.77051">
        <ele>2285.19</ele>
        <time>2019-09-10T08:59:04Z</time>
      </trkpt>
      <trkpt lat="45.39673" lon="6.77058">
        <ele>2286.15</ele>
        <time>2019-09-10T08:59:10Z</time>
      </trkpt>
      <trkpt lat="45.39676" lon="6.77066">
        <ele>2287.11</ele>
        <time>2019-09-10T08:59:18Z</time>
      </trkpt>
      <trkpt lat="45.39677" lon="6.77072">
        <ele>2288.08</ele>
        <time>2019-09-10T08:59:23Z</time>
      </trkpt>
      <trkpt lat="45.39685" lon="6.77079">
        <ele>2287.11</ele>
        <time>2019-09-10T08:59:34Z</time>
      </trkpt>
      <trkpt lat="45.39687" lon="6.77079">
        <ele>2286.63</ele>
        <time>2019-09-10T08:59:36Z</time>
      </trkpt>
      <trkpt lat="45.39691" lon="6.77081">
        <ele>2287.11</ele>
        <time>2019-09-10T08:59:40Z</time>
      </trkpt>
      <trkpt lat="45.39697" lon="6.77096">
        <ele>2291.44</ele>
        <time>2019-09-10T08:59:57Z</time>
      </trkpt>
      <trkpt lat="45.39704" lon="6.77108">
        <ele>2293.84</ele>
        <time>2019-09-10T09:00:08Z</time>
      </trkpt>
      <trkpt lat="45.39706" lon="6.77112">
        <ele>2293.84</ele>
        <time>2019-09-10T09:00:12Z</time>
      </trkpt>
      <trkpt lat="45.39707" lon="6.77131">
        <ele>2294.8</ele>
        <time>2019-09-10T09:00:27Z</time>
      </trkpt>
      <trkpt lat="45.39705" lon="6.77143">
        <ele>2297.69</ele>
        <time>2019-09-10T09:00:43Z</time>
      </trkpt>
      <trkpt lat="45.39706" lon="6.77153">
        <ele>2298.65</ele>
        <time>2019-09-10T09:00:55Z</time>
      </trkpt>
      <trkpt lat="45.39713" lon="6.77173">
        <ele>2301.53</ele>
        <time>2019-09-10T09:01:13Z</time>
      </trkpt>
      <trkpt lat="45.39715" lon="6.77183">
        <ele>2303.94</ele>
        <time>2019-09-10T09:01:21Z</time>
      </trkpt>
      <trkpt lat="45.39715" lon="6.77192">
        <ele>2304.42</ele>
        <time>2019-09-10T09:01:27Z</time>
      </trkpt>
      <trkpt lat="45.3971" lon="6.77204">
        <ele>2305.38</ele>
        <time>2019-09-10T09:01:35Z</time>
      </trkpt>
      <trkpt lat="45.39709" lon="6.77207">
        <ele>2305.38</ele>
        <time>2019-09-10T09:01:37Z</time>
      </trkpt>
      <trkpt lat="45.39706" lon="6.77224">
        <ele>2307.3</ele>
        <time>2019-09-10T09:01:49Z</time>
      </trkpt>
      <trkpt lat="45.39705" lon="6.77232">
        <ele>2307.78</ele>
        <time>2019-09-10T09:01:54Z</time>
      </trkpt>
      <trkpt lat="45.39707" lon="6.77241">
        <ele>2307.78</ele>
        <time>2019-09-10T09:02:00Z</time>
      </trkpt>
      <trkpt lat="45.39699" lon="6.77261">
        <ele>2309.7</ele>
        <time>2019-09-10T09:02:18Z</time>
      </trkpt>
      <trkpt lat="45.39697" lon="6.77266">
        <ele>2310.67</ele>
        <time>2019-09-10T09:02:23Z</time>
      </trkpt>
      <trkpt lat="45.39694" lon="6.77271">
        <ele>2309.7</ele>
        <time>2019-09-10T09:02:29Z</time>
      </trkpt>
      <trkpt lat="45.39694" lon="6.77275">
        <ele>2309.22</ele>
        <time>2019-09-10T09:02:32Z</time>
      </trkpt>
      <trkpt lat="45.39703" lon="6.77298">
        <ele>2309.7</ele>
        <time>2019-09-10T09:02:49Z</time>
      </trkpt>
      <trkpt lat="45.39705" lon="6.773">
        <ele>2309.7</ele>
        <time>2019-09-10T09:02:51Z</time>
      </trkpt>
      <trkpt lat="45.39713" lon="6.7732">
        <ele>2312.59</ele>
        <time>2019-09-10T09:03:06Z</time>
      </trkpt>
      <trkpt lat="45.39718" lon="6.77339">
        <ele>2312.11</ele>
        <time>2019-09-10T09:03:18Z</time>
      </trkpt>
      <trkpt lat="45.39719" lon="6.7735">
        <ele>2311.15</ele>
        <time>2019-09-10T09:03:24Z</time>
      </trkpt>
      <trkpt lat="45.39719" lon="6.77352">
        <ele>2311.15</ele>
        <time>2019-09-10T09:03:26Z</time>
      </trkpt>
      <trkpt lat="45.39721" lon="6.7736">
        <ele>2311.15</ele>
        <time>2019-09-10T09:03:31Z</time>
      </trkpt>
      <trkpt lat="45.39723" lon="6.77365">
        <ele>2311.15</ele>
        <time>2019-09-10T09:03:34Z</time>
      </trkpt>
      <trkpt lat="45.39723" lon="6.77368">
        <ele>2311.63</ele>
        <time>2019-09-10T09:03:36Z</time>
      </trkpt>
      <trkpt lat="45.39724" lon="6.77376">
        <ele>2313.07</ele>
        <time>2019-09-10T09:03:42Z</time>
      </trkpt>
      <trkpt lat="45.39725" lon="6.77378">
        <ele>2314.03</ele>
        <time>2019-09-10T09:03:44Z</time>
      </trkpt>
      <trkpt lat="45.3973" lon="6.77392">
        <ele>2315.47</ele>
        <time>2019-09-10T09:03:53Z</time>
      </trkpt>
      <trkpt lat="45.39727" lon="6.77401">
        <ele>2315.95</ele>
        <time>2019-09-10T09:04:01Z</time>
      </trkpt>
      <trkpt lat="45.39727" lon="6.77408">
        <ele>2317.4</ele>
        <time>2019-09-10T09:04:05Z</time>
      </trkpt>
      <trkpt lat="45.39728" lon="6.77412">
        <ele>2317.4</ele>
        <time>2019-09-10T09:04:08Z</time>
      </trkpt>
      <trkpt lat="45.39728" lon="6.77414">
        <ele>2316.91</ele>
        <time>2019-09-10T09:04:10Z</time>
      </trkpt>
      <trkpt lat="45.39731" lon="6.77433">
        <ele>2317.88</ele>
        <time>2019-09-10T09:04:26Z</time>
      </trkpt>
      <trkpt lat="45.39737" lon="6.77438">
        <ele>2319.32</ele>
        <time>2019-09-10T09:04:35Z</time>
      </trkpt>
      <trkpt lat="45.39748" lon="6.77446">
        <ele>2319.32</ele>
        <time>2019-09-10T09:04:49Z</time>
      </trkpt>
      <trkpt lat="45.39756" lon="6.77455">
        <ele>2321.72</ele>
        <time>2019-09-10T09:05:07Z</time>
      </trkpt>
      <trkpt lat="45.39755" lon="6.77457">
        <ele>2322.68</ele>
        <time>2019-09-10T09:07:05Z</time>
      </trkpt>
      <trkpt lat="45.39753" lon="6.77457">
        <ele>2321.24</ele>
        <time>2019-09-10T09:07:25Z</time>
      </trkpt>
      <trkpt lat="45.39741" lon="6.77457">
        <ele>2318.36</ele>
        <time>2019-09-10T09:07:36Z</time>
      </trkpt>
      <trkpt lat="45.39738" lon="6.77456">
        <ele>2317.88</ele>
        <time>2019-09-10T09:07:38Z</time>
      </trkpt>
      <trkpt lat="45.39731" lon="6.77439">
        <ele>2318.84</ele>
        <time>2019-09-10T09:07:56Z</time>
      </trkpt>
      <trkpt lat="45.39726" lon="6.77429">
        <ele>2316.43</ele>
        <time>2019-09-10T09:08:09Z</time>
      </trkpt>
      <trkpt lat="45.39725" lon="6.77423">
        <ele>2317.4</ele>
        <time>2019-09-10T09:08:13Z</time>
      </trkpt>
      <trkpt lat="45.39726" lon="6.77418">
        <ele>2316.91</ele>
        <time>2019-09-10T09:08:17Z</time>
      </trkpt>
      <trkpt lat="45.39725" lon="6.77408">
        <ele>2317.4</ele>
        <time>2019-09-10T09:08:37Z</time>
      </trkpt>
      <trkpt lat="45.39725" lon="6.77407">
        <ele>2317.4</ele>
        <time>2019-09-10T09:09:03Z</time>
      </trkpt>
      <trkpt lat="45.39725" lon="6.77405">
        <ele>2318.36</ele>
        <time>2019-09-10T09:09:23Z</time>
      </trkpt>
      <trkpt lat="45.39727" lon="6.77395">
        <ele>2318.36</ele>
        <time>2019-09-10T09:09:31Z</time>
      </trkpt>
      <trkpt lat="45.39721" lon="6.77381">
        <ele>2315.47</ele>
        <time>2019-09-10T09:09:41Z</time>
      </trkpt>
      <trkpt lat="45.39719" lon="6.77364">
        <ele>2313.55</ele>
        <time>2019-09-10T09:09:51Z</time>
      </trkpt>
      <trkpt lat="45.39718" lon="6.77358">
        <ele>2312.59</ele>
        <time>2019-09-10T09:09:55Z</time>
      </trkpt>
      <trkpt lat="45.39717" lon="6.7735">
        <ele>2311.63</ele>
        <time>2019-09-10T09:10:00Z</time>
      </trkpt>
      <trkpt lat="45.39714" lon="6.77332">
        <ele>2311.15</ele>
        <time>2019-09-10T09:10:12Z</time>
      </trkpt>
      <trkpt lat="45.39711" lon="6.77322">
        <ele>2311.15</ele>
        <time>2019-09-10T09:10:19Z</time>
      </trkpt>
      <trkpt lat="45.39703" lon="6.77306">
        <ele>2310.19</ele>
        <time>2019-09-10T09:10:42Z</time>
      </trkpt>
      <trkpt lat="45.39696" lon="6.7729">
        <ele>2310.67</ele>
        <time>2019-09-10T09:10:53Z</time>
      </trkpt>
      <trkpt lat="45.39694" lon="6.77285">
        <ele>2309.7</ele>
        <time>2019-09-10T09:10:56Z</time>
      </trkpt>
      <trkpt lat="45.39693" lon="6.77276">
        <ele>2308.26</ele>
        <time>2019-09-10T09:11:20Z</time>
      </trkpt>
      <trkpt lat="45.39694" lon="6.77272">
        <ele>2309.22</ele>
        <time>2019-09-10T09:11:36Z</time>
      </trkpt>
      <trkpt lat="45.39697" lon="6.77267">
        <ele>2309.22</ele>
        <time>2019-09-10T09:11:41Z</time>
      </trkpt>
      <trkpt lat="45.39697" lon="6.77264">
        <ele>2309.22</ele>
        <time>2019-09-10T09:11:43Z</time>
      </trkpt>
      <trkpt lat="45.39698" lon="6.7726">
        <ele>2309.7</ele>
        <time>2019-09-10T09:11:46Z</time>
      </trkpt>
      <trkpt lat="45.39698" lon="6.77253">
        <ele>2310.67</ele>
        <time>2019-09-10T09:11:52Z</time>
      </trkpt>
      <trkpt lat="45.39704" lon="6.7724">
        <ele>2312.11</ele>
        <time>2019-09-10T09:12:01Z</time>
      </trkpt>
      <trkpt lat="45.39702" lon="6.77235">
        <ele>2311.15</ele>
        <time>2019-09-10T09:12:06Z</time>
      </trkpt>
      <trkpt lat="45.39701" lon="6.77227">
        <ele>2311.63</ele>
        <time>2019-09-10T09:12:12Z</time>
      </trkpt>
      <trkpt lat="45.39703" lon="6.7722">
        <ele>2311.15</ele>
        <time>2019-09-10T09:12:17Z</time>
      </trkpt>
      <trkpt lat="45.3971" lon="6.77205">
        <ele>2309.22</ele>
        <time>2019-09-10T09:12:29Z</time>
      </trkpt>
      <trkpt lat="45.39711" lon="6.772">
        <ele>2308.26</ele>
        <time>2019-09-10T09:12:32Z</time>
      </trkpt>
      <trkpt lat="45.39712" lon="6.77182">
        <ele>2305.38</ele>
        <time>2019-09-10T09:12:52Z</time>
      </trkpt>
      <trkpt lat="45.39712" lon="6.77182">
        <ele>2305.38</ele>
        <time>2019-09-10T09:13:07Z</time>
      </trkpt>
      <trkpt lat="45.3971" lon="6.77178">
        <ele>2305.38</ele>
        <time>2019-09-10T09:13:17Z</time>
      </trkpt>
      <trkpt lat="45.3971" lon="6.77174">
        <ele>2305.86</ele>
        <time>2019-09-10T09:13:19Z</time>
      </trkpt>
      <trkpt lat="45.39706" lon="6.77159">
        <ele>2304.42</ele>
        <time>2019-09-10T09:13:30Z</time>
      </trkpt>
      <trkpt lat="45.39703" lon="6.77145">
        <ele>2301.05</ele>
        <time>2019-09-10T09:13:45Z</time>
      </trkpt>
      <trkpt lat="45.39705" lon="6.77136">
        <ele>2299.61</ele>
        <time>2019-09-10T09:13:52Z</time>
      </trkpt>
      <trkpt lat="45.39704" lon="6.77124">
        <ele>2297.21</ele>
        <time>2019-09-10T09:14:01Z</time>
      </trkpt>
      <trkpt lat="45.39698" lon="6.77104">
        <ele>2294.32</ele>
        <time>2019-09-10T09:14:16Z</time>
      </trkpt>
      <trkpt lat="45.39697" lon="6.771">
        <ele>2292.88</ele>
        <time>2019-09-10T09:14:19Z</time>
      </trkpt>
      <trkpt lat="45.39695" lon="6.77099">
        <ele>2292.4</ele>
        <time>2019-09-10T09:14:21Z</time>
      </trkpt>
      <trkpt lat="45.39694" lon="6.77096">
        <ele>2291.92</ele>
        <time>2019-09-10T09:14:24Z</time>
      </trkpt>
      <trkpt lat="45.39688" lon="6.77081">
        <ele>2291.44</ele>
        <time>2019-09-10T09:14:36Z</time>
      </trkpt>
      <trkpt lat="45.3968" lon="6.77078">
        <ele>2290.48</ele>
        <time>2019-09-10T09:14:45Z</time>
      </trkpt>
      <trkpt lat="45.39677" lon="6.77069">
        <ele>2289.52</ele>
        <time>2019-09-10T09:14:53Z</time>
      </trkpt>
      <trkpt lat="45.39671" lon="6.77044">
        <ele>2285.19</ele>
        <time>2019-09-10T09:15:13Z</time>
      </trkpt>
      <trkpt lat="45.39667" lon="6.77035">
        <ele>2282.31</ele>
        <time>2019-09-10T09:15:30Z</time>
      </trkpt>
      <trkpt lat="45.39671" lon="6.77043">
        <ele>2282.79</ele>
        <time>2019-09-10T09:16:14Z</time>
      </trkpt>
      <trkpt lat="45.39675" lon="6.77053">
        <ele>2284.71</ele>
        <time>2019-09-10T09:16:30Z</time>
      </trkpt>
      <trkpt lat="45.39677" lon="6.77064">
        <ele>2286.63</ele>
        <time>2019-09-10T09:16:47Z</time>
      </trkpt>
      <trkpt lat="45.3968" lon="6.77076">
        <ele>2288.56</ele>
        <time>2019-09-10T09:17:09Z</time>
      </trkpt>
      <trkpt lat="45.39683" lon="6.77079">
        <ele>2288.56</ele>
        <time>2019-09-10T09:17:26Z</time>
      </trkpt>
      <trkpt lat="45.3969" lon="6.77084">
        <ele>2288.56</ele>
        <time>2019-09-10T09:17:42Z</time>
      </trkpt>
      <trkpt lat="45.39694" lon="6.77098">
        <ele>2290.48</ele>
        <time>2019-09-10T09:18:01Z</time>
      </trkpt>
      <trkpt lat="45.39699" lon="6.7711">
        <ele>2292.4</ele>
        <time>2019-09-10T09:18:19Z</time>
      </trkpt>
      <trkpt lat="45.39704" lon="6.7712">
        <ele>2296.25</ele>
        <time>2019-09-10T09:18:37Z</time>
      </trkpt>
      <trkpt lat="45.39708" lon="6.77127">
        <ele>2295.77</ele>
        <time>2019-09-10T09:19:00Z</time>
      </trkpt>
      <trkpt lat="45.39708" lon="6.77141">
        <ele>2297.21</ele>
        <time>2019-09-10T09:19:16Z</time>
      </trkpt>
      <trkpt lat="45.39706" lon="6.77152">
        <ele>2300.57</ele>
        <time>2019-09-10T09:19:33Z</time>
      </trkpt>
      <trkpt lat="45.39711" lon="6.77163">
        <ele>2302.01</ele>
        <time>2019-09-10T09:19:48Z</time>
      </trkpt>
      <trkpt lat="45.39713" lon="6.77172">
        <ele>2301.05</ele>
        <time>2019-09-10T09:20:07Z</time>
      </trkpt>
      <trkpt lat="45.39715" lon="6.77188">
        <ele>2302.49</ele>
        <time>2019-09-10T09:20:21Z</time>
      </trkpt>
      <trkpt lat="45.39715" lon="6.77204">
        <ele>2304.42</ele>
        <time>2019-09-10T09:20:38Z</time>
      </trkpt>
      <trkpt lat="45.39714" lon="6.7721">
        <ele>2304.9</ele>
        <time>2019-09-10T09:20:45Z</time>
      </trkpt>
      <trkpt lat="45.39712" lon="6.77212">
        <ele>2304.42</ele>
        <time>2019-09-10T09:20:49Z</time>
      </trkpt>
      <trkpt lat="45.39709" lon="6.77218">
        <ele>2305.38</ele>
        <time>2019-09-10T09:20:55Z</time>
      </trkpt>
      <trkpt lat="45.39707" lon="6.77227">
        <ele>2307.78</ele>
        <time>2019-09-10T09:21:03Z</time>
      </trkpt>
      <trkpt lat="45.39708" lon="6.77242">
        <ele>2306.82</ele>
        <time>2019-09-10T09:21:18Z</time>
      </trkpt>
      <trkpt lat="45.39704" lon="6.77252">
        <ele>2307.78</ele>
        <time>2019-09-10T09:21:34Z</time>
      </trkpt>
      <trkpt lat="45.39698" lon="6.77268">
        <ele>2309.22</ele>
        <time>2019-09-10T09:21:50Z</time>
      </trkpt>
      <trkpt lat="45.39695" lon="6.77276">
        <ele>2307.3</ele>
        <time>2019-09-10T09:22:07Z</time>
      </trkpt>
      <trkpt lat="45.39695" lon="6.77277">
        <ele>2307.3</ele>
        <time>2019-09-10T09:22:08Z</time>
      </trkpt>
      <trkpt lat="45.39695" lon="6.77279">
        <ele>2307.78</ele>
        <time>2019-09-10T09:22:10Z</time>
      </trkpt>
      <trkpt lat="45.39696" lon="6.77283">
        <ele>2307.3</ele>
        <time>2019-09-10T09:22:13Z</time>
      </trkpt>
      <trkpt lat="45.39698" lon="6.77285">
        <ele>2307.78</ele>
        <time>2019-09-10T09:22:15Z</time>
      </trkpt>
      <trkpt lat="45.39704" lon="6.77302">
        <ele>2310.19</ele>
        <time>2019-09-10T09:22:28Z</time>
      </trkpt>
      <trkpt lat="45.39709" lon="6.77314">
        <ele>2311.15</ele>
        <time>2019-09-10T09:22:39Z</time>
      </trkpt>
      <trkpt lat="45.3971" lon="6.77316">
        <ele>2311.63</ele>
        <time>2019-09-10T09:22:41Z</time>
      </trkpt>
      <trkpt lat="45.39711" lon="6.77319">
        <ele>2312.11</ele>
        <time>2019-09-10T09:22:43Z</time>
      </trkpt>
      <trkpt lat="45.39713" lon="6.77321">
        <ele>2312.11</ele>
        <time>2019-09-10T09:22:45Z</time>
      </trkpt>
      <trkpt lat="45.39713" lon="6.77324">
        <ele>2311.63</ele>
        <time>2019-09-10T09:22:47Z</time>
      </trkpt>
      <trkpt lat="45.39716" lon="6.77333">
        <ele>2311.63</ele>
        <time>2019-09-10T09:22:54Z</time>
      </trkpt>
      <trkpt lat="45.39716" lon="6.77336">
        <ele>2311.63</ele>
        <time>2019-09-10T09:22:57Z</time>
      </trkpt>
      <trkpt lat="45.39716" lon="6.77344">
        <ele>2312.59</ele>
        <time>2019-09-10T09:23:02Z</time>
      </trkpt>
      <trkpt lat="45.3972" lon="6.77354">
        <ele>2313.55</ele>
        <time>2019-09-10T09:23:17Z</time>
      </trkpt>
      <trkpt lat="45.39721" lon="6.77359">
        <ele>2314.03</ele>
        <time>2019-09-10T09:23:21Z</time>
      </trkpt>
      <trkpt lat="45.39721" lon="6.77362">
        <ele>2314.51</ele>
        <time>2019-09-10T09:23:23Z</time>
      </trkpt>
      <trkpt lat="45.39721" lon="6.77368">
        <ele>2315.95</ele>
        <time>2019-09-10T09:23:27Z</time>
      </trkpt>
      <trkpt lat="45.39721" lon="6.77371">
        <ele>2315.95</ele>
        <time>2019-09-10T09:23:29Z</time>
      </trkpt>
      <trkpt lat="45.39722" lon="6.77379">
        <ele>2316.91</ele>
        <time>2019-09-10T09:23:36Z</time>
      </trkpt>
      <trkpt lat="45.39728" lon="6.77394">
        <ele>2319.8</ele>
        <time>2019-09-10T09:23:54Z</time>
      </trkpt>
      <trkpt lat="45.39728" lon="6.77395">
        <ele>2319.8</ele>
        <time>2019-09-10T09:23:55Z</time>
      </trkpt>
      <trkpt lat="45.39727" lon="6.774">
        <ele>2319.32</ele>
        <time>2019-09-10T09:24:00Z</time>
      </trkpt>
      <trkpt lat="45.39726" lon="6.7741">
        <ele>2318.84</ele>
        <time>2019-09-10T09:24:16Z</time>
      </trkpt>
      <trkpt lat="45.39728" lon="6.77411">
        <ele>2319.32</ele>
        <time>2019-09-10T09:24:22Z</time>
      </trkpt>
      <trkpt lat="45.39729" lon="6.77432">
        <ele>2320.76</ele>
        <time>2019-09-10T09:24:40Z</time>
      </trkpt>
      <trkpt lat="45.39737" lon="6.77438">
        <ele>2322.68</ele>
        <time>2019-09-10T09:24:53Z</time>
      </trkpt>
      <trkpt lat="45.39744" lon="6.77448">
        <ele>2326.53</ele>
        <time>2019-09-10T09:25:08Z</time>
      </trkpt>
      <trkpt lat="45.39748" lon="6.77454">
        <ele>2329.41</ele>
        <time>2019-09-10T09:25:28Z</time>
      </trkpt>
      <trkpt lat="45.39747" lon="6.7746">
        <ele>2327.97</ele>
        <time>2019-09-10T09:25:55Z</time>
      </trkpt>
      <trkpt lat="45.39747" lon="6.77461">
        <ele>2328.45</ele>
        <time>2019-09-10T09:27:43Z</time>
      </trkpt>
      <trkpt lat="45.39746" lon="6.77462">
        <ele>2328.45</ele>
        <time>2019-09-10T09:28:16Z</time>
      </trkpt>
      <trkpt lat="45.3975" lon="6.77471">
        <ele>2327.97</ele>
        <time>2019-09-10T09:28:34Z</time>
      </trkpt>
      <trkpt lat="45.39758" lon="6.77484">
        <ele>2327.01</ele>
        <time>2019-09-10T09:28:53Z</time>
      </trkpt>
      <trkpt lat="45.39764" lon="6.77497">
        <ele>2327.49</ele>
        <time>2019-09-10T09:29:09Z</time>
      </trkpt>
      <trkpt lat="45.39766" lon="6.77502">
        <ele>2327.49</ele>
        <time>2019-09-10T09:29:31Z</time>
      </trkpt>
      <trkpt lat="45.39768" lon="6.77504">
        <ele>2327.49</ele>
        <time>2019-09-10T09:29:44Z</time>
      </trkpt>
      <trkpt lat="45.39769" lon="6.77508">
        <ele>2327.49</ele>
        <time>2019-09-10T09:29:47Z</time>
      </trkpt>
      <trkpt lat="45.39771" lon="6.77517">
        <ele>2326.53</ele>
        <time>2019-09-10T09:29:53Z</time>
      </trkpt>
      <trkpt lat="45.39773" lon="6.77521">
        <ele>2326.53</ele>
        <time>2019-09-10T09:29:56Z</time>
      </trkpt>
      <trkpt lat="45.39774" lon="6.77525">
        <ele>2326.53</ele>
        <time>2019-09-10T09:29:59Z</time>
      </trkpt>
      <trkpt lat="45.39779" lon="6.77535">
        <ele>2325.57</ele>
        <time>2019-09-10T09:30:06Z</time>
      </trkpt>
      <trkpt lat="45.39781" lon="6.77543">
        <ele>2326.05</ele>
        <time>2019-09-10T09:30:13Z</time>
      </trkpt>
      <trkpt lat="45.39788" lon="6.77557">
        <ele>2328.45</ele>
        <time>2019-09-10T09:30:28Z</time>
      </trkpt>
      <trkpt lat="45.39795" lon="6.77566">
        <ele>2327.01</ele>
        <time>2019-09-10T09:30:38Z</time>
      </trkpt>
      <trkpt lat="45.39803" lon="6.77579">
        <ele>2326.05</ele>
        <time>2019-09-10T09:30:53Z</time>
      </trkpt>
      <trkpt lat="45.39804" lon="6.77589">
        <ele>2326.53</ele>
        <time>2019-09-10T09:31:10Z</time>
      </trkpt>
      <trkpt lat="45.39806" lon="6.77597">
        <ele>2327.01</ele>
        <time>2019-09-10T09:31:15Z</time>
      </trkpt>
      <trkpt lat="45.39815" lon="6.77617">
        <ele>2326.53</ele>
        <time>2019-09-10T09:31:33Z</time>
      </trkpt>
      <trkpt lat="45.39818" lon="6.77628">
        <ele>2327.01</ele>
        <time>2019-09-10T09:31:45Z</time>
      </trkpt>
      <trkpt lat="45.39821" lon="6.77633">
        <ele>2327.49</ele>
        <time>2019-09-10T09:31:49Z</time>
      </trkpt>
      <trkpt lat="45.39829" lon="6.77649">
        <ele>2328.45</ele>
        <time>2019-09-10T09:32:06Z</time>
      </trkpt>
      <trkpt lat="45.3983" lon="6.77652">
        <ele>2328.93</ele>
        <time>2019-09-10T09:32:08Z</time>
      </trkpt>
      <trkpt lat="45.39832" lon="6.77661">
        <ele>2328.45</ele>
        <time>2019-09-10T09:32:14Z</time>
      </trkpt>
      <trkpt lat="45.39835" lon="6.77669">
        <ele>2329.41</ele>
        <time>2019-09-10T09:32:23Z</time>
      </trkpt>
      <trkpt lat="45.3984" lon="6.77688">
        <ele>2328.93</ele>
        <time>2019-09-10T09:32:40Z</time>
      </trkpt>
      <trkpt lat="45.39847" lon="6.77698">
        <ele>2326.05</ele>
        <time>2019-09-10T09:32:50Z</time>
      </trkpt>
      <trkpt lat="45.39847" lon="6.7771">
        <ele>2323.64</ele>
        <time>2019-09-10T09:33:03Z</time>
      </trkpt>
      <trkpt lat="45.39848" lon="6.77714">
        <ele>2323.16</ele>
        <time>2019-09-10T09:33:06Z</time>
      </trkpt>
      <trkpt lat="45.39849" lon="6.77717">
        <ele>2322.2</ele>
        <time>2019-09-10T09:33:08Z</time>
      </trkpt>
      <trkpt lat="45.39853" lon="6.77728">
        <ele>2320.76</ele>
        <time>2019-09-10T09:33:16Z</time>
      </trkpt>
      <trkpt lat="45.39855" lon="6.77729">
        <ele>2319.8</ele>
        <time>2019-09-10T09:33:19Z</time>
      </trkpt>
      <trkpt lat="45.39858" lon="6.77735">
        <ele>2320.28</ele>
        <time>2019-09-10T09:33:30Z</time>
      </trkpt>
      <trkpt lat="45.3986" lon="6.77736">
        <ele>2321.24</ele>
        <time>2019-09-10T09:33:33Z</time>
      </trkpt>
      <trkpt lat="45.39859" lon="6.77742">
        <ele>2323.16</ele>
        <time>2019-09-10T09:33:49Z</time>
      </trkpt>
      <trkpt lat="45.39859" lon="6.77743">
        <ele>2324.12</ele>
        <time>2019-09-10T09:34:22Z</time>
      </trkpt>
      <trkpt lat="45.39863" lon="6.77746">
        <ele>2323.64</ele>
        <time>2019-09-10T09:34:44Z</time>
      </trkpt>
      <trkpt lat="45.39865" lon="6.77747">
        <ele>2322.68</ele>
        <time>2019-09-10T09:34:47Z</time>
      </trkpt>
      <trkpt lat="45.39869" lon="6.77749">
        <ele>2323.16</ele>
        <time>2019-09-10T09:34:49Z</time>
      </trkpt>
      <trkpt lat="45.39871" lon="6.7775">
        <ele>2323.16</ele>
        <time>2019-09-10T09:34:51Z</time>
      </trkpt>
      <trkpt lat="45.39874" lon="6.7775">
        <ele>2322.68</ele>
        <time>2019-09-10T09:35:10Z</time>
      </trkpt>
      <trkpt lat="45.39879" lon="6.77756">
        <ele>2323.64</ele>
        <time>2019-09-10T09:35:21Z</time>
      </trkpt>
      <trkpt lat="45.39882" lon="6.7776">
        <ele>2324.12</ele>
        <time>2019-09-10T09:35:25Z</time>
      </trkpt>
      <trkpt lat="45.39887" lon="6.77758">
        <ele>2324.61</ele>
        <time>2019-09-10T09:35:31Z</time>
      </trkpt>
      <trkpt lat="45.39888" lon="6.77757">
        <ele>2324.12</ele>
        <time>2019-09-10T09:35:33Z</time>
      </trkpt>
      <trkpt lat="45.39899" lon="6.77745">
        <ele>2325.09</ele>
        <time>2019-09-10T09:35:50Z</time>
      </trkpt>
      <trkpt lat="45.39899" lon="6.77745">
        <ele>2325.09</ele>
        <time>2019-09-10T09:35:52Z</time>
      </trkpt>
      <trkpt lat="45.39902" lon="6.77736">
        <ele>2325.57</ele>
        <time>2019-09-10T09:36:06Z</time>
      </trkpt>
      <trkpt lat="45.39901" lon="6.77734">
        <ele>2326.53</ele>
        <time>2019-09-10T09:36:10Z</time>
      </trkpt>
      <trkpt lat="45.39901" lon="6.7773">
        <ele>2325.57</ele>
        <time>2019-09-10T09:36:24Z</time>
      </trkpt>
      <trkpt lat="45.39903" lon="6.7774">
        <ele>2324.12</ele>
        <time>2019-09-10T09:36:35Z</time>
      </trkpt>
      <trkpt lat="45.39904" lon="6.77745">
        <ele>2322.68</ele>
        <time>2019-09-10T09:36:50Z</time>
      </trkpt>
      <trkpt lat="45.39905" lon="6.77746">
        <ele>2321.72</ele>
        <time>2019-09-10T09:37:17Z</time>
      </trkpt>
      <trkpt lat="45.39905" lon="6.77746">
        <ele>2321.72</ele>
        <time>2019-09-10T09:38:03Z</time>
      </trkpt>
      <trkpt lat="45.39905" lon="6.77743">
        <ele>2321.24</ele>
        <time>2019-09-10T09:40:11Z</time>
      </trkpt>
      <trkpt lat="45.39907" lon="6.77743">
        <ele>2320.76</ele>
        <time>2019-09-10T09:40:36Z</time>
      </trkpt>
      <trkpt lat="45.39907" lon="6.77743">
        <ele>2321.24</ele>
        <time>2019-09-10T09:43:01Z</time>
      </trkpt>
      <trkpt lat="45.39908" lon="6.77744">
        <ele>2322.68</ele>
        <time>2019-09-10T09:45:58Z</time>
      </trkpt>
      <trkpt lat="45.39908" lon="6.77742">
        <ele>2323.16</ele>
        <time>2019-09-10T09:50:34Z</time>
      </trkpt>
      <trkpt lat="45.39908" lon="6.7774">
        <ele>2323.64</ele>
        <time>2019-09-10T09:52:55Z</time>
      </trkpt>
      <trkpt lat="45.39909" lon="6.7774">
        <ele>2323.64</ele>
        <time>2019-09-10T09:55:27Z</time>
      </trkpt>
      <trkpt lat="45.39908" lon="6.77741">
        <ele>2324.12</ele>
        <time>2019-09-10T09:56:24Z</time>
      </trkpt>
      <trkpt lat="45.39906" lon="6.77742">
        <ele>2323.64</ele>
        <time>2019-09-10T09:56:37Z</time>
      </trkpt>
      <trkpt lat="45.39906" lon="6.77742">
        <ele>2323.64</ele>
        <time>2019-09-10T09:57:31Z</time>
      </trkpt>
      <trkpt lat="45.39812" lon="6.77645">
        <ele>2335.18</ele>
        <time>2019-09-10T10:11:33Z</time>
      </trkpt>
      <trkpt lat="45.39807" lon="6.77636">
        <ele>2334.22</ele>
        <time>2019-09-10T10:11:39Z</time>
      </trkpt>
      <trkpt lat="45.39803" lon="6.77616">
        <ele>2332.3</ele>
        <time>2019-09-10T10:11:50Z</time>
      </trkpt>
      <trkpt lat="45.39793" lon="6.77589">
        <ele>2328.93</ele>
        <time>2019-09-10T10:12:08Z</time>
      </trkpt>
      <trkpt lat="45.39787" lon="6.77573">
        <ele>2328.45</ele>
        <time>2019-09-10T10:12:19Z</time>
      </trkpt>
      <trkpt lat="45.39784" lon="6.77567">
        <ele>2327.97</ele>
        <time>2019-09-10T10:12:24Z</time>
      </trkpt>
      <trkpt lat="45.39782" lon="6.77562">
        <ele>2327.97</ele>
        <time>2019-09-10T10:12:27Z</time>
      </trkpt>
      <trkpt lat="45.39771" lon="6.77537">
        <ele>2327.01</ele>
        <time>2019-09-10T10:12:46Z</time>
      </trkpt>
      <trkpt lat="45.39769" lon="6.77533">
        <ele>2327.97</ele>
        <time>2019-09-10T10:12:49Z</time>
      </trkpt>
      <trkpt lat="45.39766" lon="6.77524">
        <ele>2326.53</ele>
        <time>2019-09-10T10:12:55Z</time>
      </trkpt>
      <trkpt lat="45.39761" lon="6.7751">
        <ele>2326.53</ele>
        <time>2019-09-10T10:13:05Z</time>
      </trkpt>
      <trkpt lat="45.39755" lon="6.77495">
        <ele>2328.45</ele>
        <time>2019-09-10T10:13:15Z</time>
      </trkpt>
      <trkpt lat="45.39751" lon="6.77487">
        <ele>2328.45</ele>
        <time>2019-09-10T10:13:23Z</time>
      </trkpt>
      <trkpt lat="45.39744" lon="6.77477">
        <ele>2329.41</ele>
        <time>2019-09-10T10:13:34Z</time>
      </trkpt>
      <trkpt lat="45.39743" lon="6.77471">
        <ele>2330.37</ele>
        <time>2019-09-10T10:13:39Z</time>
      </trkpt>
      <trkpt lat="45.39737" lon="6.77458">
        <ele>2330.37</ele>
        <time>2019-09-10T10:13:55Z</time>
      </trkpt>
      <trkpt lat="45.39731" lon="6.77448">
        <ele>2327.49</ele>
        <time>2019-09-10T10:14:04Z</time>
      </trkpt>
      <trkpt lat="45.39729" lon="6.7744">
        <ele>2327.01</ele>
        <time>2019-09-10T10:14:19Z</time>
      </trkpt>
      <trkpt lat="45.39721" lon="6.77431">
        <ele>2326.05</ele>
        <time>2019-09-10T10:14:37Z</time>
      </trkpt>
      <trkpt lat="45.39721" lon="6.77425">
        <ele>2325.57</ele>
        <time>2019-09-10T10:14:42Z</time>
      </trkpt>
      <trkpt lat="45.39723" lon="6.77415">
        <ele>2324.61</ele>
        <time>2019-09-10T10:14:50Z</time>
      </trkpt>
      <trkpt lat="45.39723" lon="6.77413">
        <ele>2324.61</ele>
        <time>2019-09-10T10:14:52Z</time>
      </trkpt>
      <trkpt lat="45.39723" lon="6.77411">
        <ele>2324.12</ele>
        <time>2019-09-10T10:14:54Z</time>
      </trkpt>
      <trkpt lat="45.39722" lon="6.77408">
        <ele>2323.64</ele>
        <time>2019-09-10T10:14:56Z</time>
      </trkpt>
      <trkpt lat="45.39724" lon="6.77392">
        <ele>2322.2</ele>
        <time>2019-09-10T10:15:07Z</time>
      </trkpt>
      <trkpt lat="45.3972" lon="6.77383">
        <ele>2321.24</ele>
        <time>2019-09-10T10:15:25Z</time>
      </trkpt>
      <trkpt lat="45.39716" lon="6.77368">
        <ele>2319.32</ele>
        <time>2019-09-10T10:15:35Z</time>
      </trkpt>
      <trkpt lat="45.39717" lon="6.77365">
        <ele>2319.32</ele>
        <time>2019-09-10T10:15:37Z</time>
      </trkpt>
      <trkpt lat="45.39715" lon="6.7735">
        <ele>2317.88</ele>
        <time>2019-09-10T10:15:47Z</time>
      </trkpt>
      <trkpt lat="45.39714" lon="6.77346">
        <ele>2318.36</ele>
        <time>2019-09-10T10:15:50Z</time>
      </trkpt>
      <trkpt lat="45.39712" lon="6.77333">
        <ele>2317.88</ele>
        <time>2019-09-10T10:15:58Z</time>
      </trkpt>
      <trkpt lat="45.39711" lon="6.77325">
        <ele>2317.88</ele>
        <time>2019-09-10T10:16:04Z</time>
      </trkpt>
      <trkpt lat="45.39709" lon="6.77316">
        <ele>2315.95</ele>
        <time>2019-09-10T10:16:10Z</time>
      </trkpt>
      <trkpt lat="45.39708" lon="6.77314">
        <ele>2315.95</ele>
        <time>2019-09-10T10:16:12Z</time>
      </trkpt>
      <trkpt lat="45.39706" lon="6.77312">
        <ele>2314.99</ele>
        <time>2019-09-10T10:16:14Z</time>
      </trkpt>
      <trkpt lat="45.39704" lon="6.7731">
        <ele>2315.95</ele>
        <time>2019-09-10T10:16:16Z</time>
      </trkpt>
      <trkpt lat="45.39699" lon="6.77299">
        <ele>2315.47</ele>
        <time>2019-09-10T10:16:24Z</time>
      </trkpt>
      <trkpt lat="45.39698" lon="6.77295">
        <ele>2315.95</ele>
        <time>2019-09-10T10:16:26Z</time>
      </trkpt>
      <trkpt lat="45.39696" lon="6.77293">
        <ele>2315.95</ele>
        <time>2019-09-10T10:16:28Z</time>
      </trkpt>
      <trkpt lat="45.39695" lon="6.7729">
        <ele>2316.43</ele>
        <time>2019-09-10T10:16:31Z</time>
      </trkpt>
      <trkpt lat="45.39688" lon="6.77271">
        <ele>2315.95</ele>
        <time>2019-09-10T10:16:49Z</time>
      </trkpt>
      <trkpt lat="45.39685" lon="6.77258">
        <ele>2315.95</ele>
        <time>2019-09-10T10:16:58Z</time>
      </trkpt>
      <trkpt lat="45.39682" lon="6.77249">
        <ele>2315.47</ele>
        <time>2019-09-10T10:17:05Z</time>
      </trkpt>
      <trkpt lat="45.39682" lon="6.77246">
        <ele>2314.99</ele>
        <time>2019-09-10T10:17:07Z</time>
      </trkpt>
      <trkpt lat="45.39679" lon="6.77239">
        <ele>2314.99</ele>
        <time>2019-09-10T10:17:13Z</time>
      </trkpt>
      <trkpt lat="45.39678" lon="6.77234">
        <ele>2315.95</ele>
        <time>2019-09-10T10:17:17Z</time>
      </trkpt>
      <trkpt lat="45.39677" lon="6.7721">
        <ele>2316.91</ele>
        <time>2019-09-10T10:17:34Z</time>
      </trkpt>
      <trkpt lat="45.39675" lon="6.77202">
        <ele>2316.43</ele>
        <time>2019-09-10T10:17:39Z</time>
      </trkpt>
      <trkpt lat="45.39674" lon="6.772">
        <ele>2317.4</ele>
        <time>2019-09-10T10:17:41Z</time>
      </trkpt>
      <trkpt lat="45.39674" lon="6.77168">
        <ele>2313.55</ele>
        <time>2019-09-10T10:18:02Z</time>
      </trkpt>
      <trkpt lat="45.39674" lon="6.77161">
        <ele>2313.55</ele>
        <time>2019-09-10T10:18:07Z</time>
      </trkpt>
      <trkpt lat="45.39672" lon="6.77155">
        <ele>2312.59</ele>
        <time>2019-09-10T10:18:11Z</time>
      </trkpt>
      <trkpt lat="45.39672" lon="6.77142">
        <ele>2311.63</ele>
        <time>2019-09-10T10:18:20Z</time>
      </trkpt>
      <trkpt lat="45.39669" lon="6.77128">
        <ele>2308.74</ele>
        <time>2019-09-10T10:18:31Z</time>
      </trkpt>
      <trkpt lat="45.39663" lon="6.77106">
        <ele>2305.86</ele>
        <time>2019-09-10T10:18:50Z</time>
      </trkpt>
      <trkpt lat="45.39662" lon="6.77103">
        <ele>2305.86</ele>
        <time>2019-09-10T10:18:52Z</time>
      </trkpt>
      <trkpt lat="45.3966" lon="6.77097">
        <ele>2305.86</ele>
        <time>2019-09-10T10:18:56Z</time>
      </trkpt>
      <trkpt lat="45.39644" lon="6.77078">
        <ele>2301.53</ele>
        <time>2019-09-10T10:19:17Z</time>
      </trkpt>
      <trkpt lat="45.39643" lon="6.77076">
        <ele>2300.57</ele>
        <time>2019-09-10T10:19:19Z</time>
      </trkpt>
      <trkpt lat="45.3964" lon="6.77073">
        <ele>2301.05</ele>
        <time>2019-09-10T10:19:22Z</time>
      </trkpt>
      <trkpt lat="45.39634" lon="6.77068">
        <ele>2300.57</ele>
        <time>2019-09-10T10:19:29Z</time>
      </trkpt>
      <trkpt lat="45.39632" lon="6.77067">
        <ele>2300.57</ele>
        <time>2019-09-10T10:19:31Z</time>
      </trkpt>
      <trkpt lat="45.39618" lon="6.77061">
        <ele>2298.17</ele>
        <time>2019-09-10T10:19:47Z</time>
      </trkpt>
      <trkpt lat="45.39612" lon="6.7706">
        <ele>2297.21</ele>
        <time>2019-09-10T10:19:53Z</time>
      </trkpt>
      <trkpt lat="45.39597" lon="6.77072">
        <ele>2293.84</ele>
        <time>2019-09-10T10:20:13Z</time>
      </trkpt>
      <trkpt lat="45.39595" lon="6.77072">
        <ele>2293.84</ele>
        <time>2019-09-10T10:20:14Z</time>
      </trkpt>
      <trkpt lat="45.3959" lon="6.77073">
        <ele>2293.84</ele>
        <time>2019-09-10T10:20:19Z</time>
      </trkpt>
      <trkpt lat="45.39583" lon="6.77055">
        <ele>2290</ele>
        <time>2019-09-10T10:20:36Z</time>
      </trkpt>
      <trkpt lat="45.39583" lon="6.77051">
        <ele>2289.04</ele>
        <time>2019-09-10T10:20:39Z</time>
      </trkpt>
      <trkpt lat="45.39586" lon="6.77046">
        <ele>2288.08</ele>
        <time>2019-09-10T10:20:44Z</time>
      </trkpt>
      <trkpt lat="45.39593" lon="6.77033">
        <ele>2287.11</ele>
        <time>2019-09-10T10:20:55Z</time>
      </trkpt>
      <trkpt lat="45.39594" lon="6.77018">
        <ele>2285.19</ele>
        <time>2019-09-10T10:21:07Z</time>
      </trkpt>
      <trkpt lat="45.39592" lon="6.77012">
        <ele>2284.23</ele>
        <time>2019-09-10T10:21:12Z</time>
      </trkpt>
      <trkpt lat="45.39592" lon="6.77006">
        <ele>2284.23</ele>
        <time>2019-09-10T10:21:16Z</time>
      </trkpt>
      <trkpt lat="45.39592" lon="6.76987">
        <ele>2280.38</ele>
        <time>2019-09-10T10:21:35Z</time>
      </trkpt>
      <trkpt lat="45.39591" lon="6.76966">
        <ele>2273.66</ele>
        <time>2019-09-10T10:21:55Z</time>
      </trkpt>
      <trkpt lat="45.3959" lon="6.76952">
        <ele>2270.77</ele>
        <time>2019-09-10T10:22:07Z</time>
      </trkpt>
      <trkpt lat="45.39589" lon="6.76947">
        <ele>2269.81</ele>
        <time>2019-09-10T10:22:11Z</time>
      </trkpt>
      <trkpt lat="45.39587" lon="6.76935">
        <ele>2267.89</ele>
        <time>2019-09-10T10:22:21Z</time>
      </trkpt>
      <trkpt lat="45.39585" lon="6.76933">
        <ele>2268.37</ele>
        <time>2019-09-10T10:22:23Z</time>
      </trkpt>
      <trkpt lat="45.39585" lon="6.7693">
        <ele>2268.37</ele>
        <time>2019-09-10T10:22:25Z</time>
      </trkpt>
      <trkpt lat="45.39584" lon="6.76906">
        <ele>2264.04</ele>
        <time>2019-09-10T10:22:45Z</time>
      </trkpt>
      <trkpt lat="45.39584" lon="6.769">
        <ele>2263.08</ele>
        <time>2019-09-10T10:22:50Z</time>
      </trkpt>
      <trkpt lat="45.39582" lon="6.76871">
        <ele>2257.79</ele>
        <time>2019-09-10T10:23:13Z</time>
      </trkpt>
      <trkpt lat="45.39579" lon="6.76862">
        <ele>2256.35</ele>
        <time>2019-09-10T10:23:21Z</time>
      </trkpt>
      <trkpt lat="45.3958" lon="6.76851">
        <ele>2253.95</ele>
        <time>2019-09-10T10:23:30Z</time>
      </trkpt>
      <trkpt lat="45.39588" lon="6.76831">
        <ele>2248.18</ele>
        <time>2019-09-10T10:23:48Z</time>
      </trkpt>
      <trkpt lat="45.39588" lon="6.76826">
        <ele>2246.74</ele>
        <time>2019-09-10T10:23:52Z</time>
      </trkpt>
      <trkpt lat="45.39589" lon="6.76815">
        <ele>2245.3</ele>
        <time>2019-09-10T10:24:01Z</time>
      </trkpt>
      <trkpt lat="45.39589" lon="6.7681">
        <ele>2244.82</ele>
        <time>2019-09-10T10:24:05Z</time>
      </trkpt>
      <trkpt lat="45.39591" lon="6.76797">
        <ele>2244.33</ele>
        <time>2019-09-10T10:24:15Z</time>
      </trkpt>
      <trkpt lat="45.39584" lon="6.76794">
        <ele>2243.85</ele>
        <time>2019-09-10T10:24:23Z</time>
      </trkpt>
      <trkpt lat="45.39564" lon="6.76792">
        <ele>2240.97</ele>
        <time>2019-09-10T10:24:41Z</time>
      </trkpt>
      <trkpt lat="45.39562" lon="6.76791">
        <ele>2240.49</ele>
        <time>2019-09-10T10:24:44Z</time>
      </trkpt>
      <trkpt lat="45.39561" lon="6.76789">
        <ele>2240.01</ele>
        <time>2019-09-10T10:24:46Z</time>
      </trkpt>
      <trkpt lat="45.39571" lon="6.76775">
        <ele>2240.01</ele>
        <time>2019-09-10T10:25:00Z</time>
      </trkpt>
      <trkpt lat="45.39572" lon="6.7677">
        <ele>2240.49</ele>
        <time>2019-09-10T10:25:03Z</time>
      </trkpt>
      <trkpt lat="45.39577" lon="6.76763">
        <ele>2238.57</ele>
        <time>2019-09-10T10:25:10Z</time>
      </trkpt>
      <trkpt lat="45.39578" lon="6.76754">
        <ele>2234.72</ele>
        <time>2019-09-10T10:25:18Z</time>
      </trkpt>
      <trkpt lat="45.39578" lon="6.76748">
        <ele>2234.24</ele>
        <time>2019-09-10T10:25:23Z</time>
      </trkpt>
      <trkpt lat="45.39577" lon="6.76744">
        <ele>2233.76</ele>
        <time>2019-09-10T10:25:29Z</time>
      </trkpt>
      <trkpt lat="45.39568" lon="6.76734">
        <ele>2228.95</ele>
        <time>2019-09-10T10:25:42Z</time>
      </trkpt>
      <trkpt lat="45.39564" lon="6.76732">
        <ele>2228.47</ele>
        <time>2019-09-10T10:25:46Z</time>
      </trkpt>
      <trkpt lat="45.39559" lon="6.76732">
        <ele>2227.99</ele>
        <time>2019-09-10T10:25:51Z</time>
      </trkpt>
      <trkpt lat="45.39557" lon="6.76733">
        <ele>2227.03</ele>
        <time>2019-09-10T10:25:54Z</time>
      </trkpt>
      <trkpt lat="45.39551" lon="6.76745">
        <ele>2225.59</ele>
        <time>2019-09-10T10:26:01Z</time>
      </trkpt>
      <trkpt lat="45.39543" lon="6.76749">
        <ele>2224.15</ele>
        <time>2019-09-10T10:26:05Z</time>
      </trkpt>
      <trkpt lat="45.39535" lon="6.7676">
        <ele>2222.71</ele>
        <time>2019-09-10T10:26:11Z</time>
      </trkpt>
      <trkpt lat="45.39531" lon="6.76761">
        <ele>2222.71</ele>
        <time>2019-09-10T10:26:14Z</time>
      </trkpt>
      <trkpt lat="45.39523" lon="6.76761">
        <ele>2220.3</ele>
        <time>2019-09-10T10:26:21Z</time>
      </trkpt>
      <trkpt lat="45.39518" lon="6.7675">
        <ele>2217.9</ele>
        <time>2019-09-10T10:26:36Z</time>
      </trkpt>
      <trkpt lat="45.39518" lon="6.76747">
        <ele>2217.42</ele>
        <time>2019-09-10T10:27:06Z</time>
      </trkpt>
      <trkpt lat="45.39509" lon="6.76727">
        <ele>2215.98</ele>
        <time>2019-09-10T10:27:56Z</time>
      </trkpt>
      <trkpt lat="45.39494" lon="6.76696">
        <ele>2212.61</ele>
        <time>2019-09-10T10:28:18Z</time>
      </trkpt>
      <trkpt lat="45.39492" lon="6.76694">
        <ele>2212.61</ele>
        <time>2019-09-10T10:28:20Z</time>
      </trkpt>
      <trkpt lat="45.39481" lon="6.76677">
        <ele>2211.65</ele>
        <time>2019-09-10T10:28:39Z</time>
      </trkpt>
      <trkpt lat="45.39475" lon="6.76657">
        <ele>2208.29</ele>
        <time>2019-09-10T10:28:58Z</time>
      </trkpt>
      <trkpt lat="45.39467" lon="6.76638">
        <ele>2204.44</ele>
        <time>2019-09-10T10:29:17Z</time>
      </trkpt>
      <trkpt lat="45.39465" lon="6.76635">
        <ele>2203.48</ele>
        <time>2019-09-10T10:29:20Z</time>
      </trkpt>
      <trkpt lat="45.39465" lon="6.7663">
        <ele>2203</ele>
        <time>2019-09-10T10:29:23Z</time>
      </trkpt>
      <trkpt lat="45.39462" lon="6.76625">
        <ele>2202.52</ele>
        <time>2019-09-10T10:29:29Z</time>
      </trkpt>
      <trkpt lat="45.39458" lon="6.76622">
        <ele>2202.04</ele>
        <time>2019-09-10T10:29:34Z</time>
      </trkpt>
      <trkpt lat="45.39456" lon="6.76614">
        <ele>2201.56</ele>
        <time>2019-09-10T10:29:40Z</time>
      </trkpt>
      <trkpt lat="45.39452" lon="6.76609">
        <ele>2200.59</ele>
        <time>2019-09-10T10:29:45Z</time>
      </trkpt>
      <trkpt lat="45.3945" lon="6.76606">
        <ele>2200.11</ele>
        <time>2019-09-10T10:29:48Z</time>
      </trkpt>
      <trkpt lat="45.39446" lon="6.76599">
        <ele>2198.67</ele>
        <time>2019-09-10T10:29:58Z</time>
      </trkpt>
      <trkpt lat="45.39461" lon="6.76591">
        <ele>2191.94</ele>
        <time>2019-09-10T10:30:18Z</time>
      </trkpt>
      <trkpt lat="45.39462" lon="6.76588">
        <ele>2190.98</ele>
        <time>2019-09-10T10:30:23Z</time>
      </trkpt>
      <trkpt lat="45.39452" lon="6.76568">
        <ele>2189.54</ele>
        <time>2019-09-10T10:30:40Z</time>
      </trkpt>
      <trkpt lat="45.3945" lon="6.76565">
        <ele>2188.58</ele>
        <time>2019-09-10T10:30:44Z</time>
      </trkpt>
      <trkpt lat="45.39446" lon="6.76556">
        <ele>2188.1</ele>
        <time>2019-09-10T10:30:52Z</time>
      </trkpt>
      <trkpt lat="45.39444" lon="6.76552">
        <ele>2187.62</ele>
        <time>2019-09-10T10:30:55Z</time>
      </trkpt>
      <trkpt lat="45.39443" lon="6.76551">
        <ele>2187.14</ele>
        <time>2019-09-10T10:30:57Z</time>
      </trkpt>
      <trkpt lat="45.39432" lon="6.76541">
        <ele>2184.73</ele>
        <time>2019-09-10T10:31:12Z</time>
      </trkpt>
      <trkpt lat="45.39427" lon="6.76536">
        <ele>2183.29</ele>
        <time>2019-09-10T10:31:20Z</time>
      </trkpt>
      <trkpt lat="45.39426" lon="6.7653">
        <ele>2181.37</ele>
        <time>2019-09-10T10:31:25Z</time>
      </trkpt>
      <trkpt lat="45.39421" lon="6.76519">
        <ele>2180.89</ele>
        <time>2019-09-10T10:31:51Z</time>
      </trkpt>
      <trkpt lat="45.3942" lon="6.76511">
        <ele>2179.93</ele>
        <time>2019-09-10T10:32:05Z</time>
      </trkpt>
      <trkpt lat="45.39417" lon="6.76496">
        <ele>2175.12</ele>
        <time>2019-09-10T10:32:22Z</time>
      </trkpt>
      <trkpt lat="45.39408" lon="6.76481">
        <ele>2170.31</ele>
        <time>2019-09-10T10:32:43Z</time>
      </trkpt>
      <trkpt lat="45.39406" lon="6.76473">
        <ele>2169.83</ele>
        <time>2019-09-10T10:32:49Z</time>
      </trkpt>
      <trkpt lat="45.39406" lon="6.76464">
        <ele>2167.91</ele>
        <time>2019-09-10T10:32:59Z</time>
      </trkpt>
      <trkpt lat="45.39404" lon="6.76461">
        <ele>2167.43</ele>
        <time>2019-09-10T10:33:03Z</time>
      </trkpt>
      <trkpt lat="45.39398" lon="6.76445">
        <ele>2163.1</ele>
        <time>2019-09-10T10:33:21Z</time>
      </trkpt>
      <trkpt lat="45.39397" lon="6.76426">
        <ele>2156.86</ele>
        <time>2019-09-10T10:33:40Z</time>
      </trkpt>
      <trkpt lat="45.39393" lon="6.7641">
        <ele>2154.45</ele>
        <time>2019-09-10T10:33:58Z</time>
      </trkpt>
      <trkpt lat="45.39388" lon="6.76395">
        <ele>2152.05</ele>
        <time>2019-09-10T10:34:16Z</time>
      </trkpt>
      <trkpt lat="45.39398" lon="6.76394">
        <ele>2150.61</ele>
        <time>2019-09-10T10:34:29Z</time>
      </trkpt>
      <trkpt lat="45.39401" lon="6.76392">
        <ele>2149.16</ele>
        <time>2019-09-10T10:34:33Z</time>
      </trkpt>
      <trkpt lat="45.39408" lon="6.76391">
        <ele>2147.24</ele>
        <time>2019-09-10T10:34:41Z</time>
      </trkpt>
      <trkpt lat="45.39407" lon="6.76378">
        <ele>2144.36</ele>
        <time>2019-09-10T10:34:58Z</time>
      </trkpt>
      <trkpt lat="45.39406" lon="6.76376">
        <ele>2143.88</ele>
        <time>2019-09-10T10:35:00Z</time>
      </trkpt>
      <trkpt lat="45.39405" lon="6.76373">
        <ele>2143.88</ele>
        <time>2019-09-10T10:35:03Z</time>
      </trkpt>
      <trkpt lat="45.39397" lon="6.76365">
        <ele>2140.51</ele>
        <time>2019-09-10T10:35:14Z</time>
      </trkpt>
      <trkpt lat="45.39396" lon="6.76362">
        <ele>2140.03</ele>
        <time>2019-09-10T10:35:17Z</time>
      </trkpt>
      <trkpt lat="45.394" lon="6.76357">
        <ele>2137.63</ele>
        <time>2019-09-10T10:35:23Z</time>
      </trkpt>
      <trkpt lat="45.39403" lon="6.76356">
        <ele>2136.67</ele>
        <time>2019-09-10T10:35:26Z</time>
      </trkpt>
      <trkpt lat="45.39407" lon="6.76352">
        <ele>2135.71</ele>
        <time>2019-09-10T10:35:31Z</time>
      </trkpt>
      <trkpt lat="45.39411" lon="6.76346">
        <ele>2133.78</ele>
        <time>2019-09-10T10:35:48Z</time>
      </trkpt>
      <trkpt lat="45.39406" lon="6.76334">
        <ele>2134.26</ele>
        <time>2019-09-10T10:36:09Z</time>
      </trkpt>
      <trkpt lat="45.39397" lon="6.76331">
        <ele>2132.34</ele>
        <time>2019-09-10T10:36:25Z</time>
      </trkpt>
      <trkpt lat="45.394" lon="6.76326">
        <ele>2131.86</ele>
        <time>2019-09-10T10:36:30Z</time>
      </trkpt>
      <trkpt lat="45.39407" lon="6.76321">
        <ele>2130.42</ele>
        <time>2019-09-10T10:36:39Z</time>
      </trkpt>
      <trkpt lat="45.39414" lon="6.7632">
        <ele>2128.02</ele>
        <time>2019-09-10T10:36:46Z</time>
      </trkpt>
      <trkpt lat="45.39418" lon="6.76318">
        <ele>2127.53</ele>
        <time>2019-09-10T10:36:50Z</time>
      </trkpt>
      <trkpt lat="45.39427" lon="6.76312">
        <ele>2125.61</ele>
        <time>2019-09-10T10:37:00Z</time>
      </trkpt>
      <trkpt lat="45.39425" lon="6.76303">
        <ele>2123.69</ele>
        <time>2019-09-10T10:37:08Z</time>
      </trkpt>
      <trkpt lat="45.39422" lon="6.76298">
        <ele>2122.25</ele>
        <time>2019-09-10T10:37:13Z</time>
      </trkpt>
      <trkpt lat="45.39417" lon="6.76285">
        <ele>2118.88</ele>
        <time>2019-09-10T10:37:22Z</time>
      </trkpt>
      <trkpt lat="45.3941" lon="6.7628">
        <ele>2117.92</ele>
        <time>2019-09-10T10:37:30Z</time>
      </trkpt>
      <trkpt lat="45.39407" lon="6.76279">
        <ele>2117.44</ele>
        <time>2019-09-10T10:37:33Z</time>
      </trkpt>
      <trkpt lat="45.39406" lon="6.76277">
        <ele>2117.44</ele>
        <time>2019-09-10T10:37:35Z</time>
      </trkpt>
      <trkpt lat="45.394" lon="6.7627">
        <ele>2117.44</ele>
        <time>2019-09-10T10:37:44Z</time>
      </trkpt>
      <trkpt lat="45.39397" lon="6.76272">
        <ele>2116.96</ele>
        <time>2019-09-10T10:37:47Z</time>
      </trkpt>
      <trkpt lat="45.39392" lon="6.76269">
        <ele>2116</ele>
        <time>2019-09-10T10:37:52Z</time>
      </trkpt>
      <trkpt lat="45.39391" lon="6.76264">
        <ele>2116</ele>
        <time>2019-09-10T10:37:55Z</time>
      </trkpt>
      <trkpt lat="45.39398" lon="6.76256">
        <ele>2113.6</ele>
        <time>2019-09-10T10:38:03Z</time>
      </trkpt>
      <trkpt lat="45.39399" lon="6.76253">
        <ele>2112.63</ele>
        <time>2019-09-10T10:38:08Z</time>
      </trkpt>
      <trkpt lat="45.39393" lon="6.76239">
        <ele>2108.79</ele>
        <time>2019-09-10T10:38:20Z</time>
      </trkpt>
      <trkpt lat="45.39393" lon="6.76235">
        <ele>2107.83</ele>
        <time>2019-09-10T10:38:23Z</time>
      </trkpt>
      <trkpt lat="45.39381" lon="6.76232">
        <ele>2103.5</ele>
        <time>2019-09-10T10:38:37Z</time>
      </trkpt>
      <trkpt lat="45.39376" lon="6.76231">
        <ele>2102.06</ele>
        <time>2019-09-10T10:38:44Z</time>
      </trkpt>
      <trkpt lat="45.39368" lon="6.7622">
        <ele>2097.73</ele>
        <time>2019-09-10T10:38:54Z</time>
      </trkpt>
      <trkpt lat="45.39361" lon="6.76214">
        <ele>2095.81</ele>
        <time>2019-09-10T10:39:02Z</time>
      </trkpt>
      <trkpt lat="45.39349" lon="6.76205">
        <ele>2093.41</ele>
        <time>2019-09-10T10:39:15Z</time>
      </trkpt>
      <trkpt lat="45.39339" lon="6.76193">
        <ele>2091</ele>
        <time>2019-09-10T10:39:29Z</time>
      </trkpt>
      <trkpt lat="45.39337" lon="6.76185">
        <ele>2089.08</ele>
        <time>2019-09-10T10:39:36Z</time>
      </trkpt>
      <trkpt lat="45.3933" lon="6.76177">
        <ele>2086.68</ele>
        <time>2019-09-10T10:39:46Z</time>
      </trkpt>
      <trkpt lat="45.39326" lon="6.76169">
        <ele>2085.24</ele>
        <time>2019-09-10T10:39:52Z</time>
      </trkpt>
      <trkpt lat="45.39324" lon="6.76165">
        <ele>2083.79</ele>
        <time>2019-09-10T10:39:56Z</time>
      </trkpt>
      <trkpt lat="45.39316" lon="6.76158">
        <ele>2081.39</ele>
        <time>2019-09-10T10:40:05Z</time>
      </trkpt>
      <trkpt lat="45.39312" lon="6.76151">
        <ele>2079.95</ele>
        <time>2019-09-10T10:40:12Z</time>
      </trkpt>
      <trkpt lat="45.39306" lon="6.76142">
        <ele>2078.99</ele>
        <time>2019-09-10T10:40:20Z</time>
      </trkpt>
      <trkpt lat="45.39288" lon="6.76128">
        <ele>2076.59</ele>
        <time>2019-09-10T10:40:40Z</time>
      </trkpt>
      <trkpt lat="45.39277" lon="6.76112">
        <ele>2074.66</ele>
        <time>2019-09-10T10:40:57Z</time>
      </trkpt>
      <trkpt lat="45.39274" lon="6.76106">
        <ele>2074.18</ele>
        <time>2019-09-10T10:41:03Z</time>
      </trkpt>
      <trkpt lat="45.39272" lon="6.76104">
        <ele>2074.18</ele>
        <time>2019-09-10T10:41:05Z</time>
      </trkpt>
      <trkpt lat="45.39264" lon="6.76094">
        <ele>2072.74</ele>
        <time>2019-09-10T10:41:26Z</time>
      </trkpt>
      <trkpt lat="45.3926" lon="6.7609">
        <ele>2073.22</ele>
        <time>2019-09-10T10:41:32Z</time>
      </trkpt>
      <trkpt lat="45.39257" lon="6.76085">
        <ele>2072.74</ele>
        <time>2019-09-10T10:41:37Z</time>
      </trkpt>
      <trkpt lat="45.3925" lon="6.76072">
        <ele>2070.82</ele>
        <time>2019-09-10T10:41:54Z</time>
      </trkpt>
      <trkpt lat="45.39249" lon="6.76069">
        <ele>2069.86</ele>
        <time>2019-09-10T10:41:58Z</time>
      </trkpt>
      <trkpt lat="45.39244" lon="6.76064">
        <ele>2069.38</ele>
        <time>2019-09-10T10:42:05Z</time>
      </trkpt>
      <trkpt lat="45.3924" lon="6.76059">
        <ele>2068.41</ele>
        <time>2019-09-10T10:42:11Z</time>
      </trkpt>
      <trkpt lat="45.39231" lon="6.76041">
        <ele>2067.93</ele>
        <time>2019-09-10T10:42:26Z</time>
      </trkpt>
      <trkpt lat="45.39229" lon="6.76031">
        <ele>2066.97</ele>
        <time>2019-09-10T10:42:31Z</time>
      </trkpt>
      <trkpt lat="45.39226" lon="6.76023">
        <ele>2066.01</ele>
        <time>2019-09-10T10:42:37Z</time>
      </trkpt>
      <trkpt lat="45.39224" lon="6.76015">
        <ele>2066.01</ele>
        <time>2019-09-10T10:42:42Z</time>
      </trkpt>
      <trkpt lat="45.39222" lon="6.76008">
        <ele>2066.49</ele>
        <time>2019-09-10T10:43:01Z</time>
      </trkpt>
      <trkpt lat="45.3922" lon="6.76002">
        <ele>2068.89</ele>
        <time>2019-09-10T10:43:22Z</time>
      </trkpt>
      <trkpt lat="45.39217" lon="6.75993">
        <ele>2068.41</ele>
        <time>2019-09-10T10:43:56Z</time>
      </trkpt>
      <trkpt lat="45.39218" lon="6.7599">
        <ele>2068.41</ele>
        <time>2019-09-10T10:43:58Z</time>
      </trkpt>
      <trkpt lat="45.39214" lon="6.75972">
        <ele>2066.49</ele>
        <time>2019-09-10T10:44:08Z</time>
      </trkpt>
      <trkpt lat="45.39213" lon="6.75965">
        <ele>2065.53</ele>
        <time>2019-09-10T10:44:12Z</time>
      </trkpt>
      <trkpt lat="45.39207" lon="6.75952">
        <ele>2064.57</ele>
        <time>2019-09-10T10:44:21Z</time>
      </trkpt>
      <trkpt lat="45.39201" lon="6.75937">
        <ele>2063.61</ele>
        <time>2019-09-10T10:44:33Z</time>
      </trkpt>
      <trkpt lat="45.39199" lon="6.75931">
        <ele>2062.65</ele>
        <time>2019-09-10T10:44:37Z</time>
      </trkpt>
      <trkpt lat="45.39197" lon="6.75921">
        <ele>2062.17</ele>
        <time>2019-09-10T10:44:44Z</time>
      </trkpt>
      <trkpt lat="45.39195" lon="6.75911">
        <ele>2062.17</ele>
        <time>2019-09-10T10:44:50Z</time>
      </trkpt>
      <trkpt lat="45.39192" lon="6.759">
        <ele>2061.68</ele>
        <time>2019-09-10T10:44:57Z</time>
      </trkpt>
      <trkpt lat="45.3918" lon="6.75875">
        <ele>2057.84</ele>
        <time>2019-09-10T10:45:16Z</time>
      </trkpt>
      <trkpt lat="45.39174" lon="6.75865">
        <ele>2056.88</ele>
        <time>2019-09-10T10:45:36Z</time>
      </trkpt>
      <trkpt lat="45.39175" lon="6.75864">
        <ele>2055.92</ele>
        <time>2019-09-10T10:46:05Z</time>
      </trkpt>
      <trkpt lat="45.39175" lon="6.75866">
        <ele>2057.36</ele>
        <time>2019-09-10T10:47:26Z</time>
      </trkpt>
      <trkpt lat="45.39175" lon="6.75866">
        <ele>2057.84</ele>
        <time>2019-09-10T10:47:42Z</time>
      </trkpt>
      <trkpt lat="45.39175" lon="6.75866">
        <ele>2058.8</ele>
        <time>2019-09-10T10:49:21Z</time>
      </trkpt>
      <trkpt lat="45.39175" lon="6.75867">
        <ele>2058.32</ele>
        <time>2019-09-10T10:49:47Z</time>
      </trkpt>
      <trkpt lat="45.39175" lon="6.75868">
        <ele>2057.84</ele>
        <time>2019-09-10T10:50:12Z</time>
      </trkpt>
      <trkpt lat="45.39172" lon="6.75871">
        <ele>2056.88</ele>
        <time>2019-09-10T10:50:28Z</time>
      </trkpt>
      <trkpt lat="45.39169" lon="6.75878">
        <ele>2058.32</ele>
        <time>2019-09-10T10:50:47Z</time>
      </trkpt>
      <trkpt lat="45.39172" lon="6.75892">
        <ele>2059.28</ele>
        <time>2019-09-10T10:51:07Z</time>
      </trkpt>
      <trkpt lat="45.39171" lon="6.75908">
        <ele>2060.24</ele>
        <time>2019-09-10T10:51:28Z</time>
      </trkpt>
      <trkpt lat="45.39171" lon="6.7592">
        <ele>2060.72</ele>
        <time>2019-09-10T10:51:46Z</time>
      </trkpt>
      <trkpt lat="45.3917" lon="6.75925">
        <ele>2062.17</ele>
        <time>2019-09-10T10:52:15Z</time>
      </trkpt>
      <trkpt lat="45.39169" lon="6.75933">
        <ele>2066.01</ele>
        <time>2019-09-10T10:52:45Z</time>
      </trkpt>
      <trkpt lat="45.3917" lon="6.75946">
        <ele>2067.93</ele>
        <time>2019-09-10T10:53:01Z</time>
      </trkpt>
      <trkpt lat="45.39172" lon="6.75958">
        <ele>2075.62</ele>
        <time>2019-09-10T10:53:21Z</time>
      </trkpt>
      <trkpt lat="45.39179" lon="6.75967">
        <ele>2078.99</ele>
        <time>2019-09-10T10:53:43Z</time>
      </trkpt>
      <trkpt lat="45.39181" lon="6.75981">
        <ele>2079.47</ele>
        <time>2019-09-10T10:54:07Z</time>
      </trkpt>
      <trkpt lat="45.39182" lon="6.7599">
        <ele>2082.35</ele>
        <time>2019-09-10T10:54:24Z</time>
      </trkpt>
      <trkpt lat="45.39184" lon="6.75999">
        <ele>2084.28</ele>
        <time>2019-09-10T10:54:42Z</time>
      </trkpt>
      <trkpt lat="45.39182" lon="6.76008">
        <ele>2083.31</ele>
        <time>2019-09-10T10:57:31Z</time>
      </trkpt>
      <trkpt lat="45.39176" lon="6.76014">
        <ele>2085.72</ele>
        <time>2019-09-10T10:57:48Z</time>
      </trkpt>
      <trkpt lat="45.39179" lon="6.76024">
        <ele>2089.08</ele>
        <time>2019-09-10T10:58:06Z</time>
      </trkpt>
      <trkpt lat="45.39182" lon="6.76035">
        <ele>2092.45</ele>
        <time>2019-09-10T10:58:26Z</time>
      </trkpt>
      <trkpt lat="45.39184" lon="6.76044">
        <ele>2096.29</ele>
        <time>2019-09-10T10:58:42Z</time>
      </trkpt>
      <trkpt lat="45.39186" lon="6.76057">
        <ele>2098.21</ele>
        <time>2019-09-10T10:59:01Z</time>
      </trkpt>
      <trkpt lat="45.39191" lon="6.76069">
        <ele>2099.18</ele>
        <time>2019-09-10T10:59:21Z</time>
      </trkpt>
      <trkpt lat="45.39198" lon="6.76084">
        <ele>2098.7</ele>
        <time>2019-09-10T10:59:43Z</time>
      </trkpt>
      <trkpt lat="45.392" lon="6.7609">
        <ele>2100.62</ele>
        <time>2019-09-10T11:00:00Z</time>
      </trkpt>
      <trkpt lat="45.39204" lon="6.76101">
        <ele>2101.58</ele>
        <time>2019-09-10T11:00:21Z</time>
      </trkpt>
      <trkpt lat="45.39209" lon="6.76111">
        <ele>2105.42</ele>
        <time>2019-09-10T11:00:46Z</time>
      </trkpt>
      <trkpt lat="45.39212" lon="6.76121">
        <ele>2106.87</ele>
        <time>2019-09-10T11:01:05Z</time>
      </trkpt>
      <trkpt lat="45.39215" lon="6.76133">
        <ele>2107.83</ele>
        <time>2019-09-10T11:01:23Z</time>
      </trkpt>
      <trkpt lat="45.39221" lon="6.76142">
        <ele>2111.19</ele>
        <time>2019-09-10T11:01:44Z</time>
      </trkpt>
      <trkpt lat="45.39223" lon="6.76153">
        <ele>2115.04</ele>
        <time>2019-09-10T11:02:02Z</time>
      </trkpt>
      <trkpt lat="45.39225" lon="6.7616">
        <ele>2115.52</ele>
        <time>2019-09-10T11:02:20Z</time>
      </trkpt>
      <trkpt lat="45.39227" lon="6.76167">
        <ele>2118.4</ele>
        <time>2019-09-10T11:02:38Z</time>
      </trkpt>
      <trkpt lat="45.39226" lon="6.76168">
        <ele>2118.4</ele>
        <time>2019-09-10T11:02:55Z</time>
      </trkpt>
      <trkpt lat="45.39221" lon="6.76166">
        <ele>2117.92</ele>
        <time>2019-09-10T11:03:17Z</time>
      </trkpt>
      <trkpt lat="45.39214" lon="6.76167">
        <ele>2119.84</ele>
        <time>2019-09-10T11:03:40Z</time>
      </trkpt>
      <trkpt lat="45.39206" lon="6.76168">
        <ele>2122.25</ele>
        <time>2019-09-10T11:04:02Z</time>
      </trkpt>
      <trkpt lat="45.39202" lon="6.76168">
        <ele>2124.17</ele>
        <time>2019-09-10T11:04:22Z</time>
      </trkpt>
      <trkpt lat="45.39197" lon="6.76167">
        <ele>2124.65</ele>
        <time>2019-09-10T11:04:44Z</time>
      </trkpt>
      <trkpt lat="45.39188" lon="6.76161">
        <ele>2127.53</ele>
        <time>2019-09-10T11:05:08Z</time>
      </trkpt>
      <trkpt lat="45.39178" lon="6.76157">
        <ele>2130.42</ele>
        <time>2019-09-10T11:05:31Z</time>
      </trkpt>
      <trkpt lat="45.39182" lon="6.76163">
        <ele>2133.78</ele>
        <time>2019-09-10T11:05:51Z</time>
      </trkpt>
      <trkpt lat="45.39181" lon="6.76167">
        <ele>2134.26</ele>
        <time>2019-09-10T11:06:12Z</time>
      </trkpt>
      <trkpt lat="45.39171" lon="6.76162">
        <ele>2135.71</ele>
        <time>2019-09-10T11:06:37Z</time>
      </trkpt>
      <trkpt lat="45.39168" lon="6.76159">
        <ele>2139.07</ele>
        <time>2019-09-10T11:06:57Z</time>
      </trkpt>
      <trkpt lat="45.39164" lon="6.76153">
        <ele>2138.59</ele>
        <time>2019-09-10T11:07:17Z</time>
      </trkpt>
      <trkpt lat="45.39158" lon="6.76141">
        <ele>2140.51</ele>
        <time>2019-09-10T11:07:43Z</time>
      </trkpt>
      <trkpt lat="45.39149" lon="6.76132">
        <ele>2141.95</ele>
        <time>2019-09-10T11:08:03Z</time>
      </trkpt>
      <trkpt lat="45.39143" lon="6.76124">
        <ele>2143.4</ele>
        <time>2019-09-10T11:08:19Z</time>
      </trkpt>
      <trkpt lat="45.39135" lon="6.76121">
        <ele>2147.24</ele>
        <time>2019-09-10T11:08:41Z</time>
      </trkpt>
      <trkpt lat="45.39136" lon="6.76128">
        <ele>2147.24</ele>
        <time>2019-09-10T11:08:59Z</time>
      </trkpt>
      <trkpt lat="45.39131" lon="6.76128">
        <ele>2148.68</ele>
        <time>2019-09-10T11:09:26Z</time>
      </trkpt>
      <trkpt lat="45.39126" lon="6.76128">
        <ele>2150.61</ele>
        <time>2019-09-10T11:09:48Z</time>
      </trkpt>
      <trkpt lat="45.39116" lon="6.76124">
        <ele>2153.01</ele>
        <time>2019-09-10T11:10:08Z</time>
      </trkpt>
      <trkpt lat="45.39111" lon="6.76119">
        <ele>2156.37</ele>
        <time>2019-09-10T11:10:28Z</time>
      </trkpt>
      <trkpt lat="45.39104" lon="6.76115">
        <ele>2158.78</ele>
        <time>2019-09-10T11:10:46Z</time>
      </trkpt>
      <trkpt lat="45.39102" lon="6.76115">
        <ele>2159.26</ele>
        <time>2019-09-10T11:11:14Z</time>
      </trkpt>
      <trkpt lat="45.39096" lon="6.76111">
        <ele>2160.7</ele>
        <time>2019-09-10T11:11:32Z</time>
      </trkpt>
      <trkpt lat="45.39091" lon="6.76102">
        <ele>2163.58</ele>
        <time>2019-09-10T11:11:52Z</time>
      </trkpt>
      <trkpt lat="45.39083" lon="6.76091">
        <ele>2165.99</ele>
        <time>2019-09-10T11:12:12Z</time>
      </trkpt>
      <trkpt lat="45.39077" lon="6.76083">
        <ele>2166.95</ele>
        <time>2019-09-10T11:12:34Z</time>
      </trkpt>
      <trkpt lat="45.39074" lon="6.76085">
        <ele>2168.39</ele>
        <time>2019-09-10T11:12:54Z</time>
      </trkpt>
      <trkpt lat="45.39071" lon="6.76085">
        <ele>2168.87</ele>
        <time>2019-09-10T11:13:15Z</time>
      </trkpt>
      <trkpt lat="45.39065" lon="6.76082">
        <ele>2169.83</ele>
        <time>2019-09-10T11:13:40Z</time>
      </trkpt>
      <trkpt lat="45.3906" lon="6.76079">
        <ele>2172.24</ele>
        <time>2019-09-10T11:13:59Z</time>
      </trkpt>
      <trkpt lat="45.39053" lon="6.7607">
        <ele>2175.12</ele>
        <time>2019-09-10T11:14:26Z</time>
      </trkpt>
      <trkpt lat="45.39046" lon="6.76054">
        <ele>2178</ele>
        <time>2019-09-10T11:14:46Z</time>
      </trkpt>
      <trkpt lat="45.3904" lon="6.76047">
        <ele>2180.89</ele>
        <time>2019-09-10T11:15:05Z</time>
      </trkpt>
      <trkpt lat="45.39038" lon="6.76038">
        <ele>2180.41</ele>
        <time>2019-09-10T11:15:27Z</time>
      </trkpt>
      <trkpt lat="45.3903" lon="6.76026">
        <ele>2180.89</ele>
        <time>2019-09-10T11:15:49Z</time>
      </trkpt>
      <trkpt lat="45.39021" lon="6.76018">
        <ele>2182.81</ele>
        <time>2019-09-10T11:16:10Z</time>
      </trkpt>
      <trkpt lat="45.39014" lon="6.76014">
        <ele>2180.89</ele>
        <time>2019-09-10T11:16:27Z</time>
      </trkpt>
      <trkpt lat="45.39005" lon="6.7602">
        <ele>2182.33</ele>
        <time>2019-09-10T11:16:46Z</time>
      </trkpt>
      <trkpt lat="45.39002" lon="6.76024">
        <ele>2184.25</ele>
        <time>2019-09-10T11:17:03Z</time>
      </trkpt>
      <trkpt lat="45.39007" lon="6.76028">
        <ele>2187.62</ele>
        <time>2019-09-10T11:17:19Z</time>
      </trkpt>
      <trkpt lat="45.3901" lon="6.76031">
        <ele>2189.06</ele>
        <time>2019-09-10T11:17:38Z</time>
      </trkpt>
      <trkpt lat="45.39009" lon="6.76037">
        <ele>2189.54</ele>
        <time>2019-09-10T11:18:02Z</time>
      </trkpt>
      <trkpt lat="45.3901" lon="6.76041">
        <ele>2191.46</ele>
        <time>2019-09-10T11:18:20Z</time>
      </trkpt>
      <trkpt lat="45.39011" lon="6.76048">
        <ele>2192.42</ele>
        <time>2019-09-10T11:18:40Z</time>
      </trkpt>
      <trkpt lat="45.39012" lon="6.76056">
        <ele>2194.35</ele>
        <time>2019-09-10T11:19:10Z</time>
      </trkpt>
      <trkpt lat="45.39012" lon="6.76067">
        <ele>2197.71</ele>
        <time>2019-09-10T11:19:31Z</time>
      </trkpt>
      <trkpt lat="45.39014" lon="6.76074">
        <ele>2201.08</ele>
        <time>2019-09-10T11:19:49Z</time>
      </trkpt>
      <trkpt lat="45.39014" lon="6.76082">
        <ele>2203</ele>
        <time>2019-09-10T11:20:07Z</time>
      </trkpt>
      <trkpt lat="45.39016" lon="6.76091">
        <ele>2204.44</ele>
        <time>2019-09-10T11:20:29Z</time>
      </trkpt>
      <trkpt lat="45.3901" lon="6.76091">
        <ele>2205.4</ele>
        <time>2019-09-10T11:20:51Z</time>
      </trkpt>
      <trkpt lat="45.39002" lon="6.76088">
        <ele>2205.88</ele>
        <time>2019-09-10T11:21:10Z</time>
      </trkpt>
      <trkpt lat="45.38995" lon="6.76086">
        <ele>2206.84</ele>
        <time>2019-09-10T11:21:57Z</time>
      </trkpt>
      <trkpt lat="45.38985" lon="6.76083">
        <ele>2208.77</ele>
        <time>2019-09-10T11:22:15Z</time>
      </trkpt>
      <trkpt lat="45.38979" lon="6.76081">
        <ele>2210.69</ele>
        <time>2019-09-10T11:22:40Z</time>
      </trkpt>
      <trkpt lat="45.38984" lon="6.76088">
        <ele>2212.61</ele>
        <time>2019-09-10T11:23:00Z</time>
      </trkpt>
      <trkpt lat="45.3899" lon="6.76098">
        <ele>2213.09</ele>
        <time>2019-09-10T11:23:19Z</time>
      </trkpt>
      <trkpt lat="45.38986" lon="6.76111">
        <ele>2215.01</ele>
        <time>2019-09-10T11:23:40Z</time>
      </trkpt>
      <trkpt lat="45.38973" lon="6.76103">
        <ele>2215.98</ele>
        <time>2019-09-10T11:24:00Z</time>
      </trkpt>
      <trkpt lat="45.38965" lon="6.76099">
        <ele>2215.98</ele>
        <time>2019-09-10T11:24:11Z</time>
      </trkpt>
      <trkpt lat="45.38956" lon="6.76085">
        <ele>2215.5</ele>
        <time>2019-09-10T11:24:30Z</time>
      </trkpt>
      <trkpt lat="45.38948" lon="6.7607">
        <ele>2216.94</ele>
        <time>2019-09-10T11:24:49Z</time>
      </trkpt>
      <trkpt lat="45.38941" lon="6.76061">
        <ele>2217.42</ele>
        <time>2019-09-10T11:25:10Z</time>
      </trkpt>
      <trkpt lat="45.38935" lon="6.76051">
        <ele>2218.38</ele>
        <time>2019-09-10T11:25:30Z</time>
      </trkpt>
      <trkpt lat="45.38927" lon="6.7604">
        <ele>2221.26</ele>
        <time>2019-09-10T11:25:58Z</time>
      </trkpt>
      <trkpt lat="45.38917" lon="6.76031">
        <ele>2222.22</ele>
        <time>2019-09-10T11:26:18Z</time>
      </trkpt>
      <trkpt lat="45.38911" lon="6.76027">
        <ele>2222.22</ele>
        <time>2019-09-10T11:26:27Z</time>
      </trkpt>
      <trkpt lat="45.38902" lon="6.76022">
        <ele>2226.07</ele>
        <time>2019-09-10T11:26:47Z</time>
      </trkpt>
      <trkpt lat="45.38892" lon="6.76016">
        <ele>2228.95</ele>
        <time>2019-09-10T11:27:06Z</time>
      </trkpt>
      <trkpt lat="45.38885" lon="6.76012">
        <ele>2230.4</ele>
        <time>2019-09-10T11:27:34Z</time>
      </trkpt>
      <trkpt lat="45.38874" lon="6.76009">
        <ele>2233.28</ele>
        <time>2019-09-10T11:27:55Z</time>
      </trkpt>
      <trkpt lat="45.38865" lon="6.76002">
        <ele>2235.2</ele>
        <time>2019-09-10T11:28:15Z</time>
      </trkpt>
      <trkpt lat="45.38861" lon="6.76">
        <ele>2235.2</ele>
        <time>2019-09-10T11:28:36Z</time>
      </trkpt>
      <trkpt lat="45.38854" lon="6.76">
        <ele>2235.68</ele>
        <time>2019-09-10T11:28:56Z</time>
      </trkpt>
      <trkpt lat="45.38852" lon="6.76003">
        <ele>2236.64</ele>
        <time>2019-09-10T11:29:16Z</time>
      </trkpt>
      <trkpt lat="45.38844" lon="6.76001">
        <ele>2238.57</ele>
        <time>2019-09-10T11:29:38Z</time>
      </trkpt>
      <trkpt lat="45.38837" lon="6.75994">
        <ele>2241.93</ele>
        <time>2019-09-10T11:29:56Z</time>
      </trkpt>
      <trkpt lat="45.38831" lon="6.75985">
        <ele>2245.3</ele>
        <time>2019-09-10T11:30:15Z</time>
      </trkpt>
      <trkpt lat="45.38826" lon="6.75987">
        <ele>2246.74</ele>
        <time>2019-09-10T11:30:33Z</time>
      </trkpt>
      <trkpt lat="45.3882" lon="6.7599">
        <ele>2245.78</ele>
        <time>2019-09-10T11:30:54Z</time>
      </trkpt>
      <trkpt lat="45.38811" lon="6.75991">
        <ele>2247.22</ele>
        <time>2019-09-10T11:31:21Z</time>
      </trkpt>
      <trkpt lat="45.38801" lon="6.75996">
        <ele>2247.22</ele>
        <time>2019-09-10T11:31:39Z</time>
      </trkpt>
      <trkpt lat="45.38788" lon="6.75992">
        <ele>2246.74</ele>
        <time>2019-09-10T11:31:58Z</time>
      </trkpt>
      <trkpt lat="45.38783" lon="6.75989">
        <ele>2246.26</ele>
        <time>2019-09-10T11:32:13Z</time>
      </trkpt>
      <trkpt lat="45.38784" lon="6.75988">
        <ele>2246.74</ele>
        <time>2019-09-10T11:32:35Z</time>
      </trkpt>
      <trkpt lat="45.38783" lon="6.75987">
        <ele>2247.7</ele>
        <time>2019-09-10T11:33:02Z</time>
      </trkpt>
      <trkpt lat="45.38783" lon="6.75988">
        <ele>2248.66</ele>
        <time>2019-09-10T11:36:10Z</time>
      </trkpt>
      <trkpt lat="45.38783" lon="6.75988">
        <ele>2250.1</ele>
        <time>2019-09-10T11:41:16Z</time>
      </trkpt>
      <trkpt lat="45.38782" lon="6.7599">
        <ele>2250.1</ele>
        <time>2019-09-10T11:41:34Z</time>
      </trkpt>
      <trkpt lat="45.38777" lon="6.75996">
        <ele>2250.1</ele>
        <time>2019-09-10T11:41:51Z</time>
      </trkpt>
      <trkpt lat="45.38774" lon="6.75999">
        <ele>2249.14</ele>
        <time>2019-09-10T11:42:01Z</time>
      </trkpt>
      <trkpt lat="45.38767" lon="6.76003">
        <ele>2247.7</ele>
        <time>2019-09-10T11:42:11Z</time>
      </trkpt>
      <trkpt lat="45.38759" lon="6.76005">
        <ele>2243.85</ele>
        <time>2019-09-10T11:42:27Z</time>
      </trkpt>
      <trkpt lat="45.38749" lon="6.76012">
        <ele>2240.49</ele>
        <time>2019-09-10T11:42:44Z</time>
      </trkpt>
      <trkpt lat="45.38743" lon="6.76021">
        <ele>2239.05</ele>
        <time>2019-09-10T11:43:04Z</time>
      </trkpt>
      <trkpt lat="45.38736" lon="6.76027">
        <ele>2239.05</ele>
        <time>2019-09-10T11:43:21Z</time>
      </trkpt>
      <trkpt lat="45.38733" lon="6.76032">
        <ele>2239.05</ele>
        <time>2019-09-10T11:43:28Z</time>
      </trkpt>
      <trkpt lat="45.38738" lon="6.76039">
        <ele>2238.57</ele>
        <time>2019-09-10T11:43:36Z</time>
      </trkpt>
      <trkpt lat="45.38743" lon="6.76052">
        <ele>2235.2</ele>
        <time>2019-09-10T11:43:52Z</time>
      </trkpt>
      <trkpt lat="45.38742" lon="6.76057">
        <ele>2235.2</ele>
        <time>2019-09-10T11:43:57Z</time>
      </trkpt>
      <trkpt lat="45.38735" lon="6.76064">
        <ele>2232.32</ele>
        <time>2019-09-10T11:44:13Z</time>
      </trkpt>
      <trkpt lat="45.38735" lon="6.76065">
        <ele>2231.84</ele>
        <time>2019-09-10T11:44:14Z</time>
      </trkpt>
      <trkpt lat="45.38742" lon="6.76071">
        <ele>2231.36</ele>
        <time>2019-09-10T11:44:24Z</time>
      </trkpt>
      <trkpt lat="45.38746" lon="6.76072">
        <ele>2229.92</ele>
        <time>2019-09-10T11:44:29Z</time>
      </trkpt>
      <trkpt lat="45.38757" lon="6.76062">
        <ele>2228.95</ele>
        <time>2019-09-10T11:44:46Z</time>
      </trkpt>
      <trkpt lat="45.38769" lon="6.76068">
        <ele>2226.55</ele>
        <time>2019-09-10T11:45:02Z</time>
      </trkpt>
      <trkpt lat="45.38773" lon="6.76075">
        <ele>2226.07</ele>
        <time>2019-09-10T11:45:09Z</time>
      </trkpt>
      <trkpt lat="45.3878" lon="6.76091">
        <ele>2224.63</ele>
        <time>2019-09-10T11:45:27Z</time>
      </trkpt>
      <trkpt lat="45.38789" lon="6.76105">
        <ele>2221.26</ele>
        <time>2019-09-10T11:45:46Z</time>
      </trkpt>
      <trkpt lat="45.38794" lon="6.76119">
        <ele>2220.3</ele>
        <time>2019-09-10T11:46:03Z</time>
      </trkpt>
      <trkpt lat="45.388" lon="6.76132">
        <ele>2217.9</ele>
        <time>2019-09-10T11:46:17Z</time>
      </trkpt>
      <trkpt lat="45.38804" lon="6.76135">
        <ele>2216.94</ele>
        <time>2019-09-10T11:46:23Z</time>
      </trkpt>
      <trkpt lat="45.38807" lon="6.76146">
        <ele>2212.61</ele>
        <time>2019-09-10T11:46:42Z</time>
      </trkpt>
      <trkpt lat="45.38812" lon="6.76167">
        <ele>2210.21</ele>
        <time>2019-09-10T11:47:02Z</time>
      </trkpt>
      <trkpt lat="45.38815" lon="6.76176">
        <ele>2209.25</ele>
        <time>2019-09-10T11:47:19Z</time>
      </trkpt>
      <trkpt lat="45.38822" lon="6.7619">
        <ele>2207.32</ele>
        <time>2019-09-10T11:47:37Z</time>
      </trkpt>
      <trkpt lat="45.38824" lon="6.76196">
        <ele>2205.88</ele>
        <time>2019-09-10T11:47:43Z</time>
      </trkpt>
      <trkpt lat="45.38825" lon="6.76214">
        <ele>2201.08</ele>
        <time>2019-09-10T11:48:00Z</time>
      </trkpt>
      <trkpt lat="45.3883" lon="6.76226">
        <ele>2199.15</ele>
        <time>2019-09-10T11:48:13Z</time>
      </trkpt>
      <trkpt lat="45.3883" lon="6.76236">
        <ele>2198.67</ele>
        <time>2019-09-10T11:48:21Z</time>
      </trkpt>
      <trkpt lat="45.38832" lon="6.76259">
        <ele>2195.79</ele>
        <time>2019-09-10T11:48:43Z</time>
      </trkpt>
      <trkpt lat="45.3883" lon="6.76264">
        <ele>2194.35</ele>
        <time>2019-09-10T11:48:51Z</time>
      </trkpt>
      <trkpt lat="45.38825" lon="6.76256">
        <ele>2191.94</ele>
        <time>2019-09-10T11:49:08Z</time>
      </trkpt>
      <trkpt lat="45.38819" lon="6.76248">
        <ele>2190.02</ele>
        <time>2019-09-10T11:49:18Z</time>
      </trkpt>
      <trkpt lat="45.38815" lon="6.76241">
        <ele>2188.58</ele>
        <time>2019-09-10T11:49:26Z</time>
      </trkpt>
      <trkpt lat="45.38807" lon="6.76229">
        <ele>2185.21</ele>
        <time>2019-09-10T11:49:45Z</time>
      </trkpt>
      <trkpt lat="45.38811" lon="6.76245">
        <ele>2180.41</ele>
        <time>2019-09-10T11:50:02Z</time>
      </trkpt>
      <trkpt lat="45.38812" lon="6.76249">
        <ele>2180.41</ele>
        <time>2019-09-10T11:50:06Z</time>
      </trkpt>
      <trkpt lat="45.3881" lon="6.76264">
        <ele>2177.52</ele>
        <time>2019-09-10T11:50:20Z</time>
      </trkpt>
      <trkpt lat="45.38808" lon="6.76264">
        <ele>2176.08</ele>
        <time>2019-09-10T11:50:23Z</time>
      </trkpt>
      <trkpt lat="45.38798" lon="6.76249">
        <ele>2172.24</ele>
        <time>2019-09-10T11:50:40Z</time>
      </trkpt>
      <trkpt lat="45.38792" lon="6.76246">
        <ele>2169.83</ele>
        <time>2019-09-10T11:50:51Z</time>
      </trkpt>
      <trkpt lat="45.38784" lon="6.76246">
        <ele>2168.39</ele>
        <time>2019-09-10T11:51:04Z</time>
      </trkpt>
      <trkpt lat="45.38782" lon="6.76253">
        <ele>2165.51</ele>
        <time>2019-09-10T11:51:11Z</time>
      </trkpt>
      <trkpt lat="45.3878" lon="6.76256">
        <ele>2164.06</ele>
        <time>2019-09-10T11:51:15Z</time>
      </trkpt>
      <trkpt lat="45.3878" lon="6.76259">
        <ele>2163.1</ele>
        <time>2019-09-10T11:51:17Z</time>
      </trkpt>
      <trkpt lat="45.38777" lon="6.76268">
        <ele>2163.58</ele>
        <time>2019-09-10T11:51:25Z</time>
      </trkpt>
      <trkpt lat="45.38776" lon="6.76273">
        <ele>2164.06</ele>
        <time>2019-09-10T11:51:28Z</time>
      </trkpt>
      <trkpt lat="45.38775" lon="6.76283">
        <ele>2162.62</ele>
        <time>2019-09-10T11:51:35Z</time>
      </trkpt>
      <trkpt lat="45.38777" lon="6.76294">
        <ele>2159.26</ele>
        <time>2019-09-10T11:51:42Z</time>
      </trkpt>
      <trkpt lat="45.38778" lon="6.76315">
        <ele>2156.86</ele>
        <time>2019-09-10T11:51:58Z</time>
      </trkpt>
      <trkpt lat="45.38778" lon="6.76319">
        <ele>2155.89</ele>
        <time>2019-09-10T11:52:01Z</time>
      </trkpt>
      <trkpt lat="45.38777" lon="6.76324">
        <ele>2155.41</ele>
        <time>2019-09-10T11:52:06Z</time>
      </trkpt>
      <trkpt lat="45.38779" lon="6.76325">
        <ele>2154.93</ele>
        <time>2019-09-10T11:52:18Z</time>
      </trkpt>
      <trkpt lat="45.38787" lon="6.76339">
        <ele>2155.41</ele>
        <time>2019-09-10T11:52:36Z</time>
      </trkpt>
      <trkpt lat="45.38794" lon="6.76349">
        <ele>2153.01</ele>
        <time>2019-09-10T11:52:48Z</time>
      </trkpt>
      <trkpt lat="45.38796" lon="6.76362">
        <ele>2151.09</ele>
        <time>2019-09-10T11:52:59Z</time>
      </trkpt>
      <trkpt lat="45.38798" lon="6.76365">
        <ele>2150.13</ele>
        <time>2019-09-10T11:53:04Z</time>
      </trkpt>
      <trkpt lat="45.388" lon="6.76373">
        <ele>2149.65</ele>
        <time>2019-09-10T11:53:13Z</time>
      </trkpt>
      <trkpt lat="45.38801" lon="6.76377">
        <ele>2149.65</ele>
        <time>2019-09-10T11:53:16Z</time>
      </trkpt>
      <trkpt lat="45.38794" lon="6.76379">
        <ele>2148.68</ele>
        <time>2019-09-10T11:53:33Z</time>
      </trkpt>
      <trkpt lat="45.38794" lon="6.76391">
        <ele>2148.2</ele>
        <time>2019-09-10T11:53:48Z</time>
      </trkpt>
      <trkpt lat="45.38794" lon="6.76393">
        <ele>2148.68</ele>
        <time>2019-09-10T11:53:49Z</time>
      </trkpt>
      <trkpt lat="45.38792" lon="6.76402">
        <ele>2148.68</ele>
        <time>2019-09-10T11:54:10Z</time>
      </trkpt>
      <trkpt lat="45.38793" lon="6.76403">
        <ele>2148.68</ele>
        <time>2019-09-10T11:54:12Z</time>
      </trkpt>
      <trkpt lat="45.38798" lon="6.76413">
        <ele>2146.76</ele>
        <time>2019-09-10T11:54:24Z</time>
      </trkpt>
      <trkpt lat="45.38801" lon="6.76418">
        <ele>2145.8</ele>
        <time>2019-09-10T11:54:28Z</time>
      </trkpt>
      <trkpt lat="45.38803" lon="6.76431">
        <ele>2147.72</ele>
        <time>2019-09-10T11:54:37Z</time>
      </trkpt>
      <trkpt lat="45.38801" lon="6.76439">
        <ele>2148.2</ele>
        <time>2019-09-10T11:54:42Z</time>
      </trkpt>
      <trkpt lat="45.38803" lon="6.76446">
        <ele>2147.72</ele>
        <time>2019-09-10T11:54:48Z</time>
      </trkpt>
      <trkpt lat="45.38801" lon="6.76454">
        <ele>2148.2</ele>
        <time>2019-09-10T11:54:53Z</time>
      </trkpt>
      <trkpt lat="45.38798" lon="6.76467">
        <ele>2149.16</ele>
        <time>2019-09-10T11:55:04Z</time>
      </trkpt>
      <trkpt lat="45.38793" lon="6.76473">
        <ele>2148.68</ele>
        <time>2019-09-10T11:55:24Z</time>
      </trkpt>
      <trkpt lat="45.38801" lon="6.76479">
        <ele>2150.61</ele>
        <time>2019-09-10T11:55:47Z</time>
      </trkpt>
      <trkpt lat="45.38797" lon="6.76479">
        <ele>2152.05</ele>
        <time>2019-09-10T11:55:52Z</time>
      </trkpt>
      <trkpt lat="45.38778" lon="6.7647">
        <ele>2154.93</ele>
        <time>2019-09-10T11:56:13Z</time>
      </trkpt>
      <trkpt lat="45.38767" lon="6.76463">
        <ele>2155.89</ele>
        <time>2019-09-10T11:56:28Z</time>
      </trkpt>
      <trkpt lat="45.38761" lon="6.76461">
        <ele>2154.93</ele>
        <time>2019-09-10T11:56:35Z</time>
      </trkpt>
      <trkpt lat="45.38752" lon="6.76459">
        <ele>2154.45</ele>
        <time>2019-09-10T11:56:45Z</time>
      </trkpt>
      <trkpt lat="45.38738" lon="6.76452">
        <ele>2156.37</ele>
        <time>2019-09-10T11:57:03Z</time>
      </trkpt>
      <trkpt lat="45.38736" lon="6.76447">
        <ele>2155.89</ele>
        <time>2019-09-10T11:57:21Z</time>
      </trkpt>
      <trkpt lat="45.3873" lon="6.76449">
        <ele>2154.45</ele>
        <time>2019-09-10T11:57:46Z</time>
      </trkpt>
      <trkpt lat="45.3873" lon="6.7645">
        <ele>2153.97</ele>
        <time>2019-09-10T11:57:47Z</time>
      </trkpt>
      <trkpt lat="45.38717" lon="6.76451">
        <ele>2151.09</ele>
        <time>2019-09-10T11:58:04Z</time>
      </trkpt>
      <trkpt lat="45.38716" lon="6.76454">
        <ele>2150.13</ele>
        <time>2019-09-10T11:58:20Z</time>
      </trkpt>
      <trkpt lat="45.38717" lon="6.76457">
        <ele>2150.13</ele>
        <time>2019-09-10T11:58:42Z</time>
      </trkpt>
      <trkpt lat="45.38717" lon="6.76465">
        <ele>2149.16</ele>
        <time>2019-09-10T11:59:06Z</time>
      </trkpt>
      <trkpt lat="45.38717" lon="6.76467">
        <ele>2149.16</ele>
        <time>2019-09-10T11:59:19Z</time>
      </trkpt>
      <trkpt lat="45.38715" lon="6.76469">
        <ele>2150.13</ele>
        <time>2019-09-10T11:59:36Z</time>
      </trkpt>
      <trkpt lat="45.38715" lon="6.76469">
        <ele>2149.16</ele>
        <time>2019-09-10T12:00:04Z</time>
      </trkpt>
      <trkpt lat="45.38715" lon="6.76468">
        <ele>2148.68</ele>
        <time>2019-09-10T12:00:19Z</time>
      </trkpt>
      <trkpt lat="45.38714" lon="6.76468">
        <ele>2147.72</ele>
        <time>2019-09-10T12:00:40Z</time>
      </trkpt>
      <trkpt lat="45.38711" lon="6.76464">
        <ele>2144.36</ele>
        <time>2019-09-10T12:01:10Z</time>
      </trkpt>
      <trkpt lat="45.38712" lon="6.76457">
        <ele>2140.99</ele>
        <time>2019-09-10T12:01:23Z</time>
      </trkpt>
      <trkpt lat="45.38704" lon="6.76441">
        <ele>2139.55</ele>
        <time>2019-09-10T12:01:40Z</time>
      </trkpt>
      <trkpt lat="45.38697" lon="6.76429">
        <ele>2138.11</ele>
        <time>2019-09-10T12:01:59Z</time>
      </trkpt>
      <trkpt lat="45.3869" lon="6.76415">
        <ele>2134.26</ele>
        <time>2019-09-10T12:02:17Z</time>
      </trkpt>
      <trkpt lat="45.38684" lon="6.76404">
        <ele>2127.05</ele>
        <time>2019-09-10T12:02:39Z</time>
      </trkpt>
      <trkpt lat="45.38682" lon="6.76395">
        <ele>2125.13</ele>
        <time>2019-09-10T12:02:59Z</time>
      </trkpt>
      <trkpt lat="45.38681" lon="6.76393">
        <ele>2123.69</ele>
        <time>2019-09-10T12:03:08Z</time>
      </trkpt>
      <trkpt lat="45.3868" lon="6.7639">
        <ele>2121.77</ele>
        <time>2019-09-10T12:03:23Z</time>
      </trkpt>
      <trkpt lat="45.38676" lon="6.76384">
        <ele>2121.29</ele>
        <time>2019-09-10T12:03:50Z</time>
      </trkpt>
      <trkpt lat="45.38671" lon="6.76376">
        <ele>2118.88</ele>
        <time>2019-09-10T12:04:03Z</time>
      </trkpt>
      <trkpt lat="45.38665" lon="6.76364">
        <ele>2116.48</ele>
        <time>2019-09-10T12:04:18Z</time>
      </trkpt>
      <trkpt lat="45.38661" lon="6.76357">
        <ele>2113.6</ele>
        <time>2019-09-10T12:04:33Z</time>
      </trkpt>
      <trkpt lat="45.38659" lon="6.76353">
        <ele>2112.63</ele>
        <time>2019-09-10T12:04:37Z</time>
      </trkpt>
      <trkpt lat="45.3865" lon="6.76336">
        <ele>2107.83</ele>
        <time>2019-09-10T12:04:55Z</time>
      </trkpt>
      <trkpt lat="45.3864" lon="6.7632">
        <ele>2102.06</ele>
        <time>2019-09-10T12:05:14Z</time>
      </trkpt>
      <trkpt lat="45.38633" lon="6.76309">
        <ele>2099.66</ele>
        <time>2019-09-10T12:05:31Z</time>
      </trkpt>
      <trkpt lat="45.3863" lon="6.76299">
        <ele>2098.7</ele>
        <time>2019-09-10T12:05:49Z</time>
      </trkpt>
      <trkpt lat="45.38628" lon="6.76293">
        <ele>2098.21</ele>
        <time>2019-09-10T12:06:05Z</time>
      </trkpt>
      <trkpt lat="45.38627" lon="6.76292">
        <ele>2098.7</ele>
        <time>2019-09-10T12:06:53Z</time>
      </trkpt>
      <trkpt lat="45.38618" lon="6.76278">
        <ele>2094.37</ele>
        <time>2019-09-10T12:07:11Z</time>
      </trkpt>
      <trkpt lat="45.38612" lon="6.76265">
        <ele>2092.45</ele>
        <time>2019-09-10T12:07:27Z</time>
      </trkpt>
      <trkpt lat="45.38603" lon="6.76261">
        <ele>2091</ele>
        <time>2019-09-10T12:07:47Z</time>
      </trkpt>
      <trkpt lat="45.38595" lon="6.76255">
        <ele>2087.64</ele>
        <time>2019-09-10T12:08:04Z</time>
      </trkpt>
      <trkpt lat="45.3859" lon="6.76248">
        <ele>2086.2</ele>
        <time>2019-09-10T12:08:23Z</time>
      </trkpt>
      <trkpt lat="45.3859" lon="6.76248">
        <ele>2086.2</ele>
        <time>2019-09-10T12:08:24Z</time>
      </trkpt>
      <trkpt lat="45.38584" lon="6.76244">
        <ele>2083.79</ele>
        <time>2019-09-10T12:08:39Z</time>
      </trkpt>
      <trkpt lat="45.38584" lon="6.76244">
        <ele>2083.79</ele>
        <time>2019-09-10T12:09:13Z</time>
      </trkpt>
      <trkpt lat="45.38584" lon="6.76245">
        <ele>2083.79</ele>
        <time>2019-09-10T12:09:55Z</time>
      </trkpt>
      <trkpt lat="45.38579" lon="6.76238">
        <ele>2085.24</ele>
        <time>2019-09-10T12:10:13Z</time>
      </trkpt>
      <trkpt lat="45.38572" lon="6.76233">
        <ele>2083.79</ele>
        <time>2019-09-10T12:10:25Z</time>
      </trkpt>
      <trkpt lat="45.3857" lon="6.7623">
        <ele>2082.83</ele>
        <time>2019-09-10T12:10:31Z</time>
      </trkpt>
      <trkpt lat="45.38566" lon="6.76223">
        <ele>2080.91</ele>
        <time>2019-09-10T12:10:46Z</time>
      </trkpt>
      <trkpt lat="45.38555" lon="6.76206">
        <ele>2079.47</ele>
        <time>2019-09-10T12:11:04Z</time>
      </trkpt>
      <trkpt lat="45.38544" lon="6.76192">
        <ele>2077.07</ele>
        <time>2019-09-10T12:11:21Z</time>
      </trkpt>
      <trkpt lat="45.38541" lon="6.76187">
        <ele>2076.59</ele>
        <time>2019-09-10T12:11:29Z</time>
      </trkpt>
      <trkpt lat="45.38536" lon="6.76177">
        <ele>2074.18</ele>
        <time>2019-09-10T12:11:48Z</time>
      </trkpt>
      <trkpt lat="45.3853" lon="6.76164">
        <ele>2071.3</ele>
        <time>2019-09-10T12:12:02Z</time>
      </trkpt>
      <trkpt lat="45.38529" lon="6.76162">
        <ele>2070.82</ele>
        <time>2019-09-10T12:12:22Z</time>
      </trkpt>
      <trkpt lat="45.38528" lon="6.76157">
        <ele>2069.38</ele>
        <time>2019-09-10T12:12:39Z</time>
      </trkpt>
      <trkpt lat="45.38525" lon="6.76153">
        <ele>2066.49</ele>
        <time>2019-09-10T12:12:54Z</time>
      </trkpt>
      <trkpt lat="45.38523" lon="6.76151">
        <ele>2064.57</ele>
        <time>2019-09-10T12:13:30Z</time>
      </trkpt>
      <trkpt lat="45.38521" lon="6.76152">
        <ele>2062.65</ele>
        <time>2019-09-10T12:14:08Z</time>
      </trkpt>
      <trkpt lat="45.38519" lon="6.76149">
        <ele>2062.65</ele>
        <time>2019-09-10T12:14:16Z</time>
      </trkpt>
      <trkpt lat="45.38518" lon="6.76143">
        <ele>2061.2</ele>
        <time>2019-09-10T12:14:22Z</time>
      </trkpt>
      <trkpt lat="45.38515" lon="6.7614">
        <ele>2061.2</ele>
        <time>2019-09-10T12:14:45Z</time>
      </trkpt>
      <trkpt lat="45.38514" lon="6.76139">
        <ele>2061.2</ele>
        <time>2019-09-10T12:15:01Z</time>
      </trkpt>
      <trkpt lat="45.38516" lon="6.76138">
        <ele>2061.2</ele>
        <time>2019-09-10T12:15:03Z</time>
      </trkpt>
      <trkpt lat="45.38517" lon="6.76133">
        <ele>2060.24</ele>
        <time>2019-09-10T12:15:07Z</time>
      </trkpt>
      <trkpt lat="45.38514" lon="6.7613">
        <ele>2059.76</ele>
        <time>2019-09-10T12:15:14Z</time>
      </trkpt>
      <trkpt lat="45.38512" lon="6.76116">
        <ele>2057.36</ele>
        <time>2019-09-10T12:15:29Z</time>
      </trkpt>
      <trkpt lat="45.38511" lon="6.76112">
        <ele>2056.4</ele>
        <time>2019-09-10T12:15:48Z</time>
      </trkpt>
      <trkpt lat="45.38511" lon="6.76106">
        <ele>2054.47</ele>
        <time>2019-09-10T12:16:06Z</time>
      </trkpt>
      <trkpt lat="45.3851" lon="6.76104">
        <ele>2052.55</ele>
        <time>2019-09-10T12:16:28Z</time>
      </trkpt>
      <trkpt lat="45.38508" lon="6.76105">
        <ele>2052.55</ele>
        <time>2019-09-10T12:16:44Z</time>
      </trkpt>
      <trkpt lat="45.38508" lon="6.76105">
        <ele>2052.55</ele>
        <time>2019-09-10T12:17:09Z</time>
      </trkpt>
      <trkpt lat="45.38508" lon="6.76105">
        <ele>2052.55</ele>
        <time>2019-09-10T12:17:31Z</time>
      </trkpt>
      <trkpt lat="45.38499" lon="6.76101">
        <ele>2051.59</ele>
        <time>2019-09-10T12:17:45Z</time>
      </trkpt>
      <trkpt lat="45.38496" lon="6.76097">
        <ele>2049.67</ele>
        <time>2019-09-10T12:18:18Z</time>
      </trkpt>
      <trkpt lat="45.38497" lon="6.76097">
        <ele>2049.67</ele>
        <time>2019-09-10T12:20:02Z</time>
      </trkpt>
      <trkpt lat="45.38488" lon="6.76091">
        <ele>2048.71</ele>
        <time>2019-09-10T12:21:04Z</time>
      </trkpt>
      <trkpt lat="45.38484" lon="6.76085">
        <ele>2048.71</ele>
        <time>2019-09-10T12:21:18Z</time>
      </trkpt>
      <trkpt lat="45.38482" lon="6.76082">
        <ele>2048.71</ele>
        <time>2019-09-10T12:21:30Z</time>
      </trkpt>
      <trkpt lat="45.38472" lon="6.76064">
        <ele>2047.75</ele>
        <time>2019-09-10T12:21:50Z</time>
      </trkpt>
      <trkpt lat="45.38471" lon="6.76063">
        <ele>2047.75</ele>
        <time>2019-09-10T12:21:51Z</time>
      </trkpt>
      <trkpt lat="45.38466" lon="6.7606">
        <ele>2046.3</ele>
        <time>2019-09-10T12:22:02Z</time>
      </trkpt>
      <trkpt lat="45.3846" lon="6.76049">
        <ele>2042.46</ele>
        <time>2019-09-10T12:22:19Z</time>
      </trkpt>
      <trkpt lat="45.38457" lon="6.76041">
        <ele>2042.46</ele>
        <time>2019-09-10T12:22:32Z</time>
      </trkpt>
      <trkpt lat="45.38456" lon="6.76041">
        <ele>2042.46</ele>
        <time>2019-09-10T12:22:33Z</time>
      </trkpt>
      <trkpt lat="45.38453" lon="6.76036">
        <ele>2041.98</ele>
        <time>2019-09-10T12:22:38Z</time>
      </trkpt>
      <trkpt lat="45.38452" lon="6.76033">
        <ele>2041.5</ele>
        <time>2019-09-10T12:22:40Z</time>
      </trkpt>
      <trkpt lat="45.38445" lon="6.76018">
        <ele>2042.46</ele>
        <time>2019-09-10T12:22:56Z</time>
      </trkpt>
      <trkpt lat="45.38438" lon="6.76007">
        <ele>2043.42</ele>
        <time>2019-09-10T12:23:13Z</time>
      </trkpt>
      <trkpt lat="45.38436" lon="6.76005">
        <ele>2043.42</ele>
        <time>2019-09-10T12:23:56Z</time>
      </trkpt>
      <trkpt lat="45.38433" lon="6.75999">
        <ele>2043.42</ele>
        <time>2019-09-10T12:24:02Z</time>
      </trkpt>
      <trkpt lat="45.38428" lon="6.75992">
        <ele>2043.42</ele>
        <time>2019-09-10T12:24:11Z</time>
      </trkpt>
      <trkpt lat="45.38421" lon="6.75981">
        <ele>2041.98</ele>
        <time>2019-09-10T12:24:24Z</time>
      </trkpt>
      <trkpt lat="45.38418" lon="6.75976">
        <ele>2040.54</ele>
        <time>2019-09-10T12:24:31Z</time>
      </trkpt>
      <trkpt lat="45.38415" lon="6.7597">
        <ele>2040.05</ele>
        <time>2019-09-10T12:24:37Z</time>
      </trkpt>
      <trkpt lat="45.38408" lon="6.75949">
        <ele>2036.21</ele>
        <time>2019-09-10T12:24:54Z</time>
      </trkpt>
      <trkpt lat="45.38404" lon="6.75943">
        <ele>2034.77</ele>
        <time>2019-09-10T12:24:59Z</time>
      </trkpt>
      <trkpt lat="45.38399" lon="6.75935">
        <ele>2034.29</ele>
        <time>2019-09-10T12:25:08Z</time>
      </trkpt>
      <trkpt lat="45.38395" lon="6.75927">
        <ele>2034.29</ele>
        <time>2019-09-10T12:25:14Z</time>
      </trkpt>
      <trkpt lat="45.38394" lon="6.75921">
        <ele>2034.29</ele>
        <time>2019-09-10T12:25:19Z</time>
      </trkpt>
      <trkpt lat="45.38389" lon="6.75912">
        <ele>2033.81</ele>
        <time>2019-09-10T12:25:36Z</time>
      </trkpt>
      <trkpt lat="45.38389" lon="6.75912">
        <ele>2033.81</ele>
        <time>2019-09-10T12:25:55Z</time>
      </trkpt>
      <trkpt lat="45.38383" lon="6.759">
        <ele>2030.92</ele>
        <time>2019-09-10T12:26:12Z</time>
      </trkpt>
      <trkpt lat="45.38378" lon="6.75887">
        <ele>2029</ele>
        <time>2019-09-10T12:26:21Z</time>
      </trkpt>
      <trkpt lat="45.38376" lon="6.75878">
        <ele>2026.6</ele>
        <time>2019-09-10T12:26:29Z</time>
      </trkpt>
      <trkpt lat="45.38374" lon="6.75865">
        <ele>2023.23</ele>
        <time>2019-09-10T12:26:42Z</time>
      </trkpt>
      <trkpt lat="45.38374" lon="6.7585">
        <ele>2021.31</ele>
        <time>2019-09-10T12:27:00Z</time>
      </trkpt>
      <trkpt lat="45.38372" lon="6.75843">
        <ele>2020.35</ele>
        <time>2019-09-10T12:27:07Z</time>
      </trkpt>
      <trkpt lat="45.38371" lon="6.75837">
        <ele>2017.94</ele>
        <time>2019-09-10T12:27:26Z</time>
      </trkpt>
      <trkpt lat="45.38369" lon="6.75831">
        <ele>2016.5</ele>
        <time>2019-09-10T12:27:42Z</time>
      </trkpt>
      <trkpt lat="45.38369" lon="6.75824">
        <ele>2015.06</ele>
        <time>2019-09-10T12:28:03Z</time>
      </trkpt>
      <trkpt lat="45.38365" lon="6.75817">
        <ele>2013.62</ele>
        <time>2019-09-10T12:28:31Z</time>
      </trkpt>
      <trkpt lat="45.38363" lon="6.75815">
        <ele>2013.14</ele>
        <time>2019-09-10T12:28:34Z</time>
      </trkpt>
      <trkpt lat="45.38359" lon="6.75815">
        <ele>2013.14</ele>
        <time>2019-09-10T12:28:38Z</time>
      </trkpt>
      <trkpt lat="45.38348" lon="6.75817">
        <ele>2011.22</ele>
        <time>2019-09-10T12:28:55Z</time>
      </trkpt>
      <trkpt lat="45.38345" lon="6.75814">
        <ele>2008.81</ele>
        <time>2019-09-10T12:29:17Z</time>
      </trkpt>
      <trkpt lat="45.38342" lon="6.75813">
        <ele>2006.89</ele>
        <time>2019-09-10T12:29:33Z</time>
      </trkpt>
      <trkpt lat="45.38342" lon="6.75815">
        <ele>2006.41</ele>
        <time>2019-09-10T12:29:37Z</time>
      </trkpt>
      <trkpt lat="45.38339" lon="6.75815">
        <ele>2004.49</ele>
        <time>2019-09-10T12:29:41Z</time>
      </trkpt>
      <trkpt lat="45.38338" lon="6.75806">
        <ele>2004.49</ele>
        <time>2019-09-10T12:29:48Z</time>
      </trkpt>
      <trkpt lat="45.38329" lon="6.75799">
        <ele>1997.76</ele>
        <time>2019-09-10T12:30:07Z</time>
      </trkpt>
      <trkpt lat="45.38329" lon="6.75801">
        <ele>1997.76</ele>
        <time>2019-09-10T12:30:09Z</time>
      </trkpt>
      <trkpt lat="45.38318" lon="6.75814">
        <ele>1993.91</ele>
        <time>2019-09-10T12:30:28Z</time>
      </trkpt>
      <trkpt lat="45.38313" lon="6.75822">
        <ele>1991.99</ele>
        <time>2019-09-10T12:30:46Z</time>
      </trkpt>
      <trkpt lat="45.38313" lon="6.75822">
        <ele>1991.51</ele>
        <time>2019-09-10T12:31:21Z</time>
      </trkpt>
      <trkpt lat="45.38312" lon="6.75825">
        <ele>1991.03</ele>
        <time>2019-09-10T12:31:33Z</time>
      </trkpt>
      <trkpt lat="45.38301" lon="6.75832">
        <ele>1991.03</ele>
        <time>2019-09-10T12:31:52Z</time>
      </trkpt>
      <trkpt lat="45.38296" lon="6.75837">
        <ele>1991.51</ele>
        <time>2019-09-10T12:32:07Z</time>
      </trkpt>
      <trkpt lat="45.38295" lon="6.75838">
        <ele>1991.99</ele>
        <time>2019-09-10T12:32:32Z</time>
      </trkpt>
      <trkpt lat="45.38291" lon="6.75841">
        <ele>1993.91</ele>
        <time>2019-09-10T12:32:38Z</time>
      </trkpt>
      <trkpt lat="45.38289" lon="6.75846">
        <ele>1995.35</ele>
        <time>2019-09-10T12:32:45Z</time>
      </trkpt>
      <trkpt lat="45.3828" lon="6.75856">
        <ele>1997.28</ele>
        <time>2019-09-10T12:33:03Z</time>
      </trkpt>
      <trkpt lat="45.3827" lon="6.75862">
        <ele>1996.8</ele>
        <time>2019-09-10T12:33:17Z</time>
      </trkpt>
      <trkpt lat="45.38261" lon="6.75857">
        <ele>1995.35</ele>
        <time>2019-09-10T12:33:31Z</time>
      </trkpt>
      <trkpt lat="45.38257" lon="6.75849">
        <ele>1994.87</ele>
        <time>2019-09-10T12:33:37Z</time>
      </trkpt>
      <trkpt lat="45.38251" lon="6.75843">
        <ele>1994.39</ele>
        <time>2019-09-10T12:33:45Z</time>
      </trkpt>
      <trkpt lat="45.38249" lon="6.75838">
        <ele>1995.83</ele>
        <time>2019-09-10T12:33:49Z</time>
      </trkpt>
      <trkpt lat="45.38237" lon="6.75836">
        <ele>1995.83</ele>
        <time>2019-09-10T12:34:06Z</time>
      </trkpt>
      <trkpt lat="45.38233" lon="6.75837">
        <ele>1996.32</ele>
        <time>2019-09-10T12:34:17Z</time>
      </trkpt>
      <trkpt lat="45.3823" lon="6.75838">
        <ele>1996.32</ele>
        <time>2019-09-10T12:34:20Z</time>
      </trkpt>
      <trkpt lat="45.3822" lon="6.75831">
        <ele>1997.76</ele>
        <time>2019-09-10T12:34:39Z</time>
      </trkpt>
      <trkpt lat="45.38223" lon="6.75824">
        <ele>1997.28</ele>
        <time>2019-09-10T12:34:50Z</time>
      </trkpt>
      <trkpt lat="45.38219" lon="6.75813">
        <ele>1996.8</ele>
        <time>2019-09-10T12:35:07Z</time>
      </trkpt>
      <trkpt lat="45.38212" lon="6.75804">
        <ele>1996.8</ele>
        <time>2019-09-10T12:35:22Z</time>
      </trkpt>
      <trkpt lat="45.38208" lon="6.75789">
        <ele>1993.91</ele>
        <time>2019-09-10T12:35:38Z</time>
      </trkpt>
      <trkpt lat="45.38203" lon="6.75776">
        <ele>1989.59</ele>
        <time>2019-09-10T12:35:54Z</time>
      </trkpt>
      <trkpt lat="45.38199" lon="6.75768">
        <ele>1988.14</ele>
        <time>2019-09-10T12:36:14Z</time>
      </trkpt>
      <trkpt lat="45.38197" lon="6.75759">
        <ele>1987.18</ele>
        <time>2019-09-10T12:36:33Z</time>
      </trkpt>
      <trkpt lat="45.38189" lon="6.75748">
        <ele>1986.22</ele>
        <time>2019-09-10T12:36:50Z</time>
      </trkpt>
      <trkpt lat="45.38186" lon="6.75742">
        <ele>1985.74</ele>
        <time>2019-09-10T12:36:58Z</time>
      </trkpt>
      <trkpt lat="45.3818" lon="6.75734">
        <ele>1982.38</ele>
        <time>2019-09-10T12:37:13Z</time>
      </trkpt>
      <trkpt lat="45.38178" lon="6.75718">
        <ele>1981.41</ele>
        <time>2019-09-10T12:37:31Z</time>
      </trkpt>
      <trkpt lat="45.38177" lon="6.75702">
        <ele>1979.49</ele>
        <time>2019-09-10T12:37:49Z</time>
      </trkpt>
      <trkpt lat="45.38174" lon="6.75688">
        <ele>1975.17</ele>
        <time>2019-09-10T12:38:06Z</time>
      </trkpt>
      <trkpt lat="45.38169" lon="6.75679">
        <ele>1971.32</ele>
        <time>2019-09-10T12:38:23Z</time>
      </trkpt>
      <trkpt lat="45.38168" lon="6.75673">
        <ele>1969.4</ele>
        <time>2019-09-10T12:38:38Z</time>
      </trkpt>
      <trkpt lat="45.3816" lon="6.75664">
        <ele>1964.11</ele>
        <time>2019-09-10T12:38:54Z</time>
      </trkpt>
      <trkpt lat="45.38158" lon="6.75646">
        <ele>1960.75</ele>
        <time>2019-09-10T12:39:12Z</time>
      </trkpt>
      <trkpt lat="45.38156" lon="6.75641">
        <ele>1960.27</ele>
        <time>2019-09-10T12:39:35Z</time>
      </trkpt>
      <trkpt lat="45.38154" lon="6.75636">
        <ele>1959.3</ele>
        <time>2019-09-10T12:40:16Z</time>
      </trkpt>
      <trkpt lat="45.38154" lon="6.75634">
        <ele>1959.3</ele>
        <time>2019-09-10T12:40:46Z</time>
      </trkpt>
      <trkpt lat="45.38154" lon="6.75633">
        <ele>1959.78</ele>
        <time>2019-09-10T12:42:14Z</time>
      </trkpt>
      <trkpt lat="45.38149" lon="6.75621">
        <ele>1959.3</ele>
        <time>2019-09-10T12:42:29Z</time>
      </trkpt>
      <trkpt lat="45.38146" lon="6.75619">
        <ele>1958.34</ele>
        <time>2019-09-10T12:42:32Z</time>
      </trkpt>
      <trkpt lat="45.3814" lon="6.75607">
        <ele>1954.02</ele>
        <time>2019-09-10T12:42:50Z</time>
      </trkpt>
      <trkpt lat="45.38132" lon="6.75596">
        <ele>1954.5</ele>
        <time>2019-09-10T12:43:05Z</time>
      </trkpt>
      <trkpt lat="45.38132" lon="6.75595">
        <ele>1954.5</ele>
        <time>2019-09-10T12:43:06Z</time>
      </trkpt>
      <trkpt lat="45.38127" lon="6.75582">
        <ele>1954.5</ele>
        <time>2019-09-10T12:43:22Z</time>
      </trkpt>
      <trkpt lat="45.38133" lon="6.75573">
        <ele>1951.61</ele>
        <time>2019-09-10T12:43:36Z</time>
      </trkpt>
      <trkpt lat="45.38133" lon="6.75572">
        <ele>1951.13</ele>
        <time>2019-09-10T12:43:37Z</time>
      </trkpt>
      <trkpt lat="45.38123" lon="6.75563">
        <ele>1948.25</ele>
        <time>2019-09-10T12:43:53Z</time>
      </trkpt>
      <trkpt lat="45.38114" lon="6.75552">
        <ele>1944.4</ele>
        <time>2019-09-10T12:44:12Z</time>
      </trkpt>
      <trkpt lat="45.38112" lon="6.75545">
        <ele>1942</ele>
        <time>2019-09-10T12:44:20Z</time>
      </trkpt>
      <trkpt lat="45.38118" lon="6.75544">
        <ele>1939.6</ele>
        <time>2019-09-10T12:44:34Z</time>
      </trkpt>
      <trkpt lat="45.38121" lon="6.75544">
        <ele>1939.12</ele>
        <time>2019-09-10T12:44:52Z</time>
      </trkpt>
      <trkpt lat="45.38121" lon="6.75542">
        <ele>1938.64</ele>
        <time>2019-09-10T12:45:08Z</time>
      </trkpt>
      <trkpt lat="45.38121" lon="6.75542">
        <ele>1938.64</ele>
        <time>2019-09-10T12:45:15Z</time>
      </trkpt>
      <trkpt lat="45.38121" lon="6.75532">
        <ele>1936.71</ele>
        <time>2019-09-10T12:45:32Z</time>
      </trkpt>
      <trkpt lat="45.3812" lon="6.7553">
        <ele>1934.79</ele>
        <time>2019-09-10T12:45:50Z</time>
      </trkpt>
      <trkpt lat="45.38122" lon="6.75529">
        <ele>1934.31</ele>
        <time>2019-09-10T12:46:17Z</time>
      </trkpt>
      <trkpt lat="45.38123" lon="6.75528">
        <ele>1935.27</ele>
        <time>2019-09-10T12:47:44Z</time>
      </trkpt>
      <trkpt lat="45.38122" lon="6.75523">
        <ele>1932.39</ele>
        <time>2019-09-10T12:48:05Z</time>
      </trkpt>
      <trkpt lat="45.38123" lon="6.75521">
        <ele>1931.91</ele>
        <time>2019-09-10T12:48:50Z</time>
      </trkpt>
      <trkpt lat="45.38121" lon="6.7552">
        <ele>1930.95</ele>
        <time>2019-09-10T12:49:05Z</time>
      </trkpt>
      <trkpt lat="45.38122" lon="6.75514">
        <ele>1929.5</ele>
        <time>2019-09-10T12:49:22Z</time>
      </trkpt>
      <trkpt lat="45.38122" lon="6.75511">
        <ele>1927.58</ele>
        <time>2019-09-10T12:49:39Z</time>
      </trkpt>
      <trkpt lat="45.38122" lon="6.7551">
        <ele>1926.62</ele>
        <time>2019-09-10T12:50:02Z</time>
      </trkpt>
      <trkpt lat="45.38119" lon="6.75507">
        <ele>1924.22</ele>
        <time>2019-09-10T12:50:14Z</time>
      </trkpt>
      <trkpt lat="45.3812" lon="6.75505">
        <ele>1923.25</ele>
        <time>2019-09-10T12:50:31Z</time>
      </trkpt>
      <trkpt lat="45.38116" lon="6.75495">
        <ele>1920.37</ele>
        <time>2019-09-10T12:50:48Z</time>
      </trkpt>
      <trkpt lat="45.38114" lon="6.75491">
        <ele>1919.89</ele>
        <time>2019-09-10T12:51:11Z</time>
      </trkpt>
      <trkpt lat="45.3811" lon="6.75486">
        <ele>1917.49</ele>
        <time>2019-09-10T12:51:44Z</time>
      </trkpt>
      <trkpt lat="45.38107" lon="6.75482">
        <ele>1918.93</ele>
        <time>2019-09-10T12:51:52Z</time>
      </trkpt>
      <trkpt lat="45.38106" lon="6.75475">
        <ele>1917.01</ele>
        <time>2019-09-10T12:52:18Z</time>
      </trkpt>
      <trkpt lat="45.38111" lon="6.75472">
        <ele>1915.08</ele>
        <time>2019-09-10T12:52:34Z</time>
      </trkpt>
      <trkpt lat="45.38104" lon="6.75462">
        <ele>1914.12</ele>
        <time>2019-09-10T12:52:59Z</time>
      </trkpt>
      <trkpt lat="45.38102" lon="6.75453">
        <ele>1911.24</ele>
        <time>2019-09-10T12:53:19Z</time>
      </trkpt>
      <trkpt lat="45.38101" lon="6.75445">
        <ele>1909.32</ele>
        <time>2019-09-10T12:53:35Z</time>
      </trkpt>
      <trkpt lat="45.38101" lon="6.75436">
        <ele>1907.87</ele>
        <time>2019-09-10T12:53:57Z</time>
      </trkpt>
      <trkpt lat="45.381" lon="6.7543">
        <ele>1905.95</ele>
        <time>2019-09-10T12:54:14Z</time>
      </trkpt>
      <trkpt lat="45.38099" lon="6.75426">
        <ele>1905.47</ele>
        <time>2019-09-10T12:54:43Z</time>
      </trkpt>
      <trkpt lat="45.38096" lon="6.7541">
        <ele>1903.07</ele>
        <time>2019-09-10T12:54:58Z</time>
      </trkpt>
      <trkpt lat="45.38091" lon="6.75401">
        <ele>1898.74</ele>
        <time>2019-09-10T12:55:18Z</time>
      </trkpt>
      <trkpt lat="45.38088" lon="6.7539">
        <ele>1898.26</ele>
        <time>2019-09-10T12:55:37Z</time>
      </trkpt>
      <trkpt lat="45.38084" lon="6.75385">
        <ele>1899.22</ele>
        <time>2019-09-10T12:56:02Z</time>
      </trkpt>
      <trkpt lat="45.38076" lon="6.7538">
        <ele>1897.78</ele>
        <time>2019-09-10T12:56:20Z</time>
      </trkpt>
      <trkpt lat="45.38069" lon="6.75372">
        <ele>1895.38</ele>
        <time>2019-09-10T12:56:36Z</time>
      </trkpt>
      <trkpt lat="45.38063" lon="6.75368">
        <ele>1893.45</ele>
        <time>2019-09-10T12:56:52Z</time>
      </trkpt>
      <trkpt lat="45.38058" lon="6.75362">
        <ele>1891.05</ele>
        <time>2019-09-10T12:57:14Z</time>
      </trkpt>
      <trkpt lat="45.3805" lon="6.75355">
        <ele>1886.72</ele>
        <time>2019-09-10T12:57:30Z</time>
      </trkpt>
      <trkpt lat="45.3805" lon="6.7535">
        <ele>1886.24</ele>
        <time>2019-09-10T12:57:54Z</time>
      </trkpt>
      <trkpt lat="45.38052" lon="6.75344">
        <ele>1881.92</ele>
        <time>2019-09-10T12:58:10Z</time>
      </trkpt>
      <trkpt lat="45.38044" lon="6.75344">
        <ele>1879.03</ele>
        <time>2019-09-10T12:58:20Z</time>
      </trkpt>
      <trkpt lat="45.38042" lon="6.75351">
        <ele>1877.59</ele>
        <time>2019-09-10T12:58:28Z</time>
      </trkpt>
      <trkpt lat="45.38037" lon="6.75376">
        <ele>1880.48</ele>
        <time>2019-09-10T12:58:43Z</time>
      </trkpt>
      <trkpt lat="45.38032" lon="6.75387">
        <ele>1883.36</ele>
        <time>2019-09-10T12:58:58Z</time>
      </trkpt>
      <trkpt lat="45.38031" lon="6.75386">
        <ele>1883.84</ele>
        <time>2019-09-10T12:59:06Z</time>
      </trkpt>
      <trkpt lat="45.38029" lon="6.75386">
        <ele>1883.84</ele>
        <time>2019-09-10T12:59:29Z</time>
      </trkpt>
      <trkpt lat="45.38026" lon="6.75381">
        <ele>1882.4</ele>
        <time>2019-09-10T12:59:49Z</time>
      </trkpt>
      <trkpt lat="45.38026" lon="6.75376">
        <ele>1880.96</ele>
        <time>2019-09-10T13:00:33Z</time>
      </trkpt>
      <trkpt lat="45.38028" lon="6.75372">
        <ele>1878.07</ele>
        <time>2019-09-10T13:00:51Z</time>
      </trkpt>
      <trkpt lat="45.38027" lon="6.7537">
        <ele>1877.59</ele>
        <time>2019-09-10T13:00:57Z</time>
      </trkpt>
      <trkpt lat="45.38026" lon="6.75362">
        <ele>1874.71</ele>
        <time>2019-09-10T13:01:12Z</time>
      </trkpt>
      <trkpt lat="45.38028" lon="6.75358">
        <ele>1873.75</ele>
        <time>2019-09-10T13:01:17Z</time>
      </trkpt>
      <trkpt lat="45.3803" lon="6.75346">
        <ele>1870.38</ele>
        <time>2019-09-10T13:01:33Z</time>
      </trkpt>
      <trkpt lat="45.3803" lon="6.75344">
        <ele>1870.38</ele>
        <time>2019-09-10T13:01:52Z</time>
      </trkpt>
      <trkpt lat="45.3803" lon="6.75344">
        <ele>1870.38</ele>
        <time>2019-09-10T13:01:55Z</time>
      </trkpt>
      <trkpt lat="45.3803" lon="6.75344">
        <ele>1870.38</ele>
        <time>2019-09-10T13:02:09Z</time>
      </trkpt>
      <trkpt lat="45.38026" lon="6.75335">
        <ele>1864.61</ele>
        <time>2019-09-10T13:02:27Z</time>
      </trkpt>
      <trkpt lat="45.38024" lon="6.75334">
        <ele>1863.17</ele>
        <time>2019-09-10T13:02:41Z</time>
      </trkpt>
      <trkpt lat="45.3802" lon="6.75329">
        <ele>1862.21</ele>
        <time>2019-09-10T13:03:10Z</time>
      </trkpt>
      <trkpt lat="45.38022" lon="6.75328">
        <ele>1859.33</ele>
        <time>2019-09-10T13:03:31Z</time>
      </trkpt>
      <trkpt lat="45.38023" lon="6.75323">
        <ele>1857.4</ele>
        <time>2019-09-10T13:03:59Z</time>
      </trkpt>
      <trkpt lat="45.38018" lon="6.75318">
        <ele>1853.08</ele>
        <time>2019-09-10T13:04:15Z</time>
      </trkpt>
      <trkpt lat="45.38021" lon="6.75311">
        <ele>1849.71</ele>
        <time>2019-09-10T13:04:34Z</time>
      </trkpt>
      <trkpt lat="45.38021" lon="6.75307">
        <ele>1846.83</ele>
        <time>2019-09-10T13:04:53Z</time>
      </trkpt>
      <trkpt lat="45.38019" lon="6.75303">
        <ele>1843.47</ele>
        <time>2019-09-10T13:05:10Z</time>
      </trkpt>
      <trkpt lat="45.3802" lon="6.75292">
        <ele>1843.95</ele>
        <time>2019-09-10T13:05:30Z</time>
      </trkpt>
      <trkpt lat="45.38012" lon="6.75286">
        <ele>1840.1</ele>
        <time>2019-09-10T13:05:46Z</time>
      </trkpt>
      <trkpt lat="45.38006" lon="6.75275">
        <ele>1837.22</ele>
        <time>2019-09-10T13:06:01Z</time>
      </trkpt>
      <trkpt lat="45.38005" lon="6.75274">
        <ele>1835.29</ele>
        <time>2019-09-10T13:06:16Z</time>
      </trkpt>
      <trkpt lat="45.38006" lon="6.75271">
        <ele>1834.33</ele>
        <time>2019-09-10T13:06:34Z</time>
      </trkpt>
      <trkpt lat="45.38004" lon="6.75268">
        <ele>1833.37</ele>
        <time>2019-09-10T13:07:00Z</time>
      </trkpt>
      <trkpt lat="45.38001" lon="6.75261">
        <ele>1832.89</ele>
        <time>2019-09-10T13:07:08Z</time>
      </trkpt>
      <trkpt lat="45.37996" lon="6.75254">
        <ele>1830.01</ele>
        <time>2019-09-10T13:07:23Z</time>
      </trkpt>
      <trkpt lat="45.37998" lon="6.75254">
        <ele>1828.56</ele>
        <time>2019-09-10T13:07:59Z</time>
      </trkpt>
      <trkpt lat="45.37998" lon="6.75251">
        <ele>1828.56</ele>
        <time>2019-09-10T13:08:52Z</time>
      </trkpt>
      <trkpt lat="45.37998" lon="6.7525">
        <ele>1829.05</ele>
        <time>2019-09-10T13:09:55Z</time>
      </trkpt>
      <trkpt lat="45.37998" lon="6.75249">
        <ele>1829.05</ele>
        <time>2019-09-10T13:11:13Z</time>
      </trkpt>
      <trkpt lat="45.37998" lon="6.75251">
        <ele>1829.53</ele>
        <time>2019-09-10T13:12:08Z</time>
      </trkpt>
      <trkpt lat="45.37999" lon="6.75251">
        <ele>1830.49</ele>
        <time>2019-09-10T13:12:51Z</time>
      </trkpt>
      <trkpt lat="45.37998" lon="6.75249">
        <ele>1831.93</ele>
        <time>2019-09-10T13:13:56Z</time>
      </trkpt>
      <trkpt lat="45.37998" lon="6.75248">
        <ele>1831.93</ele>
        <time>2019-09-10T13:13:57Z</time>
      </trkpt>
      <trkpt lat="45.37998" lon="6.75234">
        <ele>1833.37</ele>
        <time>2019-09-10T13:14:06Z</time>
      </trkpt>
      <trkpt lat="45.37996" lon="6.75224">
        <ele>1833.37</ele>
        <time>2019-09-10T13:14:11Z</time>
      </trkpt>
      <trkpt lat="45.37996" lon="6.75212">
        <ele>1830.49</ele>
        <time>2019-09-10T13:14:19Z</time>
      </trkpt>
      <trkpt lat="45.37996" lon="6.75198">
        <ele>1830.01</ele>
        <time>2019-09-10T13:14:28Z</time>
      </trkpt>
      <trkpt lat="45.37997" lon="6.75181">
        <ele>1825.2</ele>
        <time>2019-09-10T13:14:38Z</time>
      </trkpt>
      <trkpt lat="45.37998" lon="6.75173">
        <ele>1824.72</ele>
        <time>2019-09-10T13:14:42Z</time>
      </trkpt>
      <trkpt lat="45.37998" lon="6.75166">
        <ele>1822.32</ele>
        <time>2019-09-10T13:14:46Z</time>
      </trkpt>
      <trkpt lat="45.38001" lon="6.75153">
        <ele>1819.43</ele>
        <time>2019-09-10T13:14:55Z</time>
      </trkpt>
      <trkpt lat="45.38002" lon="6.75147">
        <ele>1817.03</ele>
        <time>2019-09-10T13:15:05Z</time>
      </trkpt>
      <trkpt lat="45.38005" lon="6.75127">
        <ele>1815.59</ele>
        <time>2019-09-10T13:15:18Z</time>
      </trkpt>
      <trkpt lat="45.38005" lon="6.75119">
        <ele>1815.59</ele>
        <time>2019-09-10T13:15:23Z</time>
      </trkpt>
      <trkpt lat="45.38009" lon="6.75103">
        <ele>1816.55</ele>
        <time>2019-09-10T13:15:38Z</time>
      </trkpt>
      <trkpt lat="45.38012" lon="6.75094">
        <ele>1814.15</ele>
        <time>2019-09-10T13:16:03Z</time>
      </trkpt>
      <trkpt lat="45.38016" lon="6.75086">
        <ele>1812.22</ele>
        <time>2019-09-10T13:16:40Z</time>
      </trkpt>
      <trkpt lat="45.38015" lon="6.75083">
        <ele>1812.7</ele>
        <time>2019-09-10T13:16:43Z</time>
      </trkpt>
      <trkpt lat="45.38023" lon="6.75064">
        <ele>1813.18</ele>
        <time>2019-09-10T13:17:00Z</time>
      </trkpt>
      <trkpt lat="45.38027" lon="6.75047">
        <ele>1809.34</ele>
        <time>2019-09-10T13:17:17Z</time>
      </trkpt>
      <trkpt lat="45.38028" lon="6.75044">
        <ele>1808.86</ele>
        <time>2019-09-10T13:17:20Z</time>
      </trkpt>
      <trkpt lat="45.38029" lon="6.75042">
        <ele>1807.9</ele>
        <time>2019-09-10T13:17:22Z</time>
      </trkpt>
      <trkpt lat="45.3803" lon="6.75039">
        <ele>1806.94</ele>
        <time>2019-09-10T13:17:25Z</time>
      </trkpt>
      <trkpt lat="45.38035" lon="6.75033">
        <ele>1805.49</ele>
        <time>2019-09-10T13:17:32Z</time>
      </trkpt>
      <trkpt lat="45.38037" lon="6.75033">
        <ele>1805.01</ele>
        <time>2019-09-10T13:17:34Z</time>
      </trkpt>
      <trkpt lat="45.38039" lon="6.75033">
        <ele>1804.53</ele>
        <time>2019-09-10T13:17:37Z</time>
      </trkpt>
      <trkpt lat="45.38041" lon="6.75032">
        <ele>1804.05</ele>
        <time>2019-09-10T13:17:39Z</time>
      </trkpt>
      <trkpt lat="45.38047" lon="6.7502">
        <ele>1803.57</ele>
        <time>2019-09-10T13:17:55Z</time>
      </trkpt>
      <trkpt lat="45.3805" lon="6.75018">
        <ele>1803.57</ele>
        <time>2019-09-10T13:18:02Z</time>
      </trkpt>
      <trkpt lat="45.38058" lon="6.75016">
        <ele>1799.24</ele>
        <time>2019-09-10T13:18:15Z</time>
      </trkpt>
      <trkpt lat="45.38063" lon="6.7501">
        <ele>1793.96</ele>
        <time>2019-09-10T13:18:27Z</time>
      </trkpt>
      <trkpt lat="45.38059" lon="6.75003">
        <ele>1791.55</ele>
        <time>2019-09-10T13:18:35Z</time>
      </trkpt>
      <trkpt lat="45.38056" lon="6.75">
        <ele>1789.15</ele>
        <time>2019-09-10T13:18:40Z</time>
      </trkpt>
      <trkpt lat="45.38055" lon="6.74999">
        <ele>1788.19</ele>
        <time>2019-09-10T13:18:42Z</time>
      </trkpt>
      <trkpt lat="45.3805" lon="6.74985">
        <ele>1783.38</ele>
        <time>2019-09-10T13:18:53Z</time>
      </trkpt>
      <trkpt lat="45.38053" lon="6.7498">
        <ele>1782.42</ele>
        <time>2019-09-10T13:18:57Z</time>
      </trkpt>
      <trkpt lat="45.38057" lon="6.74978">
        <ele>1782.42</ele>
        <time>2019-09-10T13:19:02Z</time>
      </trkpt>
      <trkpt lat="45.38062" lon="6.74972">
        <ele>1782.42</ele>
        <time>2019-09-10T13:19:10Z</time>
      </trkpt>
      <trkpt lat="45.38063" lon="6.74968">
        <ele>1781.94</ele>
        <time>2019-09-10T13:19:17Z</time>
      </trkpt>
      <trkpt lat="45.3806" lon="6.74966">
        <ele>1781.94</ele>
        <time>2019-09-10T13:19:20Z</time>
      </trkpt>
      <trkpt lat="45.38059" lon="6.7496">
        <ele>1781.94</ele>
        <time>2019-09-10T13:19:24Z</time>
      </trkpt>
      <trkpt lat="45.38061" lon="6.74943">
        <ele>1780.5</ele>
        <time>2019-09-10T13:19:43Z</time>
      </trkpt>
      <trkpt lat="45.38061" lon="6.74943">
        <ele>1780.5</ele>
        <time>2019-09-10T13:19:44Z</time>
      </trkpt>
      <trkpt lat="45.38059" lon="6.74939">
        <ele>1780.02</ele>
        <time>2019-09-10T13:19:47Z</time>
      </trkpt>
      <trkpt lat="45.38059" lon="6.74935">
        <ele>1780.02</ele>
        <time>2019-09-10T13:19:50Z</time>
      </trkpt>
      <trkpt lat="45.38057" lon="6.7493">
        <ele>1780.02</ele>
        <time>2019-09-10T13:19:54Z</time>
      </trkpt>
      <trkpt lat="45.38064" lon="6.7491">
        <ele>1776.65</ele>
        <time>2019-09-10T13:20:11Z</time>
      </trkpt>
      <trkpt lat="45.38064" lon="6.74909">
        <ele>1776.17</ele>
        <time>2019-09-10T13:20:12Z</time>
      </trkpt>
      <trkpt lat="45.38065" lon="6.74907">
        <ele>1775.21</ele>
        <time>2019-09-10T13:20:14Z</time>
      </trkpt>
      <trkpt lat="45.38072" lon="6.74902">
        <ele>1774.25</ele>
        <time>2019-09-10T13:20:22Z</time>
      </trkpt>
      <trkpt lat="45.38078" lon="6.74886">
        <ele>1769.44</ele>
        <time>2019-09-10T13:20:36Z</time>
      </trkpt>
      <trkpt lat="45.3808" lon="6.74866">
        <ele>1767.04</ele>
        <time>2019-09-10T13:20:50Z</time>
      </trkpt>
      <trkpt lat="45.3808" lon="6.74864">
        <ele>1766.56</ele>
        <time>2019-09-10T13:20:52Z</time>
      </trkpt>
      <trkpt lat="45.38085" lon="6.74859">
        <ele>1766.56</ele>
        <time>2019-09-10T13:20:58Z</time>
      </trkpt>
      <trkpt lat="45.38087" lon="6.74851">
        <ele>1764.64</ele>
        <time>2019-09-10T13:21:04Z</time>
      </trkpt>
      <trkpt lat="45.38089" lon="6.74851">
        <ele>1764.64</ele>
        <time>2019-09-10T13:21:06Z</time>
      </trkpt>
      <trkpt lat="45.38096" lon="6.74839">
        <ele>1765.6</ele>
        <time>2019-09-10T13:21:17Z</time>
      </trkpt>
      <trkpt lat="45.381" lon="6.74831">
        <ele>1764.64</ele>
        <time>2019-09-10T13:21:24Z</time>
      </trkpt>
      <trkpt lat="45.38103" lon="6.74829">
        <ele>1764.64</ele>
        <time>2019-09-10T13:21:27Z</time>
      </trkpt>
      <trkpt lat="45.38104" lon="6.74816">
        <ele>1762.23</ele>
        <time>2019-09-10T13:21:36Z</time>
      </trkpt>
      <trkpt lat="45.38112" lon="6.74798">
        <ele>1758.87</ele>
        <time>2019-09-10T13:21:53Z</time>
      </trkpt>
      <trkpt lat="45.38114" lon="6.74796">
        <ele>1757.91</ele>
        <time>2019-09-10T13:21:57Z</time>
      </trkpt>
      <trkpt lat="45.38114" lon="6.74794">
        <ele>1757.91</ele>
        <time>2019-09-10T13:21:59Z</time>
      </trkpt>
      <trkpt lat="45.38118" lon="6.74786">
        <ele>1756.47</ele>
        <time>2019-09-10T13:22:06Z</time>
      </trkpt>
      <trkpt lat="45.38124" lon="6.74781">
        <ele>1755.5</ele>
        <time>2019-09-10T13:22:12Z</time>
      </trkpt>
      <trkpt lat="45.38128" lon="6.74775">
        <ele>1755.5</ele>
        <time>2019-09-10T13:22:18Z</time>
      </trkpt>
      <trkpt lat="45.38131" lon="6.74771">
        <ele>1754.54</ele>
        <time>2019-09-10T13:22:22Z</time>
      </trkpt>
      <trkpt lat="45.38132" lon="6.74769">
        <ele>1754.06</ele>
        <time>2019-09-10T13:22:24Z</time>
      </trkpt>
      <trkpt lat="45.38132" lon="6.74762">
        <ele>1754.06</ele>
        <time>2019-09-10T13:22:29Z</time>
      </trkpt>
      <trkpt lat="45.3813" lon="6.74758">
        <ele>1754.06</ele>
        <time>2019-09-10T13:22:33Z</time>
      </trkpt>
      <trkpt lat="45.38133" lon="6.74735">
        <ele>1749.74</ele>
        <time>2019-09-10T13:22:50Z</time>
      </trkpt>
      <trkpt lat="45.38135" lon="6.74729">
        <ele>1749.26</ele>
        <time>2019-09-10T13:22:55Z</time>
      </trkpt>
      <trkpt lat="45.38133" lon="6.74724">
        <ele>1748.29</ele>
        <time>2019-09-10T13:22:59Z</time>
      </trkpt>
      <trkpt lat="45.38133" lon="6.74719">
        <ele>1748.29</ele>
        <time>2019-09-10T13:23:02Z</time>
      </trkpt>
      <trkpt lat="45.38133" lon="6.74715">
        <ele>1748.29</ele>
        <time>2019-09-10T13:23:05Z</time>
      </trkpt>
      <trkpt lat="45.38134" lon="6.74695">
        <ele>1745.89</ele>
        <time>2019-09-10T13:23:22Z</time>
      </trkpt>
      <trkpt lat="45.38131" lon="6.74672">
        <ele>1743.97</ele>
        <time>2019-09-10T13:23:40Z</time>
      </trkpt>
      <trkpt lat="45.38129" lon="6.74653">
        <ele>1741.57</ele>
        <time>2019-09-10T13:23:58Z</time>
      </trkpt>
      <trkpt lat="45.38129" lon="6.74653">
        <ele>1741.57</ele>
        <time>2019-09-10T13:24:26Z</time>
      </trkpt>
      <trkpt lat="45.38128" lon="6.74653">
        <ele>1741.08</ele>
        <time>2019-09-10T13:26:13Z</time>
      </trkpt>
      <trkpt lat="45.38128" lon="6.74654">
        <ele>1741.57</ele>
        <time>2019-09-10T13:27:51Z</time>
      </trkpt>
      <trkpt lat="45.38128" lon="6.74654">
        <ele>1741.57</ele>
        <time>2019-09-10T13:28:21Z</time>
      </trkpt>
      <trkpt lat="45.38127" lon="6.74651">
        <ele>1740.6</ele>
        <time>2019-09-10T13:28:58Z</time>
      </trkpt>
      <trkpt lat="45.38115" lon="6.74624">
        <ele>1738.68</ele>
        <time>2019-09-10T13:29:15Z</time>
      </trkpt>
      <trkpt lat="45.38113" lon="6.74616">
        <ele>1737.72</ele>
        <time>2019-09-10T13:29:21Z</time>
      </trkpt>
      <trkpt lat="45.38113" lon="6.7461">
        <ele>1736.76</ele>
        <time>2019-09-10T13:29:25Z</time>
      </trkpt>
      <trkpt lat="45.38103" lon="6.74593">
        <ele>1733.88</ele>
        <time>2019-09-10T13:29:40Z</time>
      </trkpt>
      <trkpt lat="45.38095" lon="6.74586">
        <ele>1731.95</ele>
        <time>2019-09-10T13:30:02Z</time>
      </trkpt>
      <trkpt lat="45.38098" lon="6.74588">
        <ele>1731.95</ele>
        <time>2019-09-10T13:30:06Z</time>
      </trkpt>
      <trkpt lat="45.38105" lon="6.74595">
        <ele>1733.39</ele>
        <time>2019-09-10T13:30:20Z</time>
      </trkpt>
      <trkpt lat="45.38105" lon="6.74594">
        <ele>1733.39</ele>
        <time>2019-09-10T13:30:25Z</time>
      </trkpt>
      <trkpt lat="45.38096" lon="6.74586">
        <ele>1731.95</ele>
        <time>2019-09-10T13:30:35Z</time>
      </trkpt>
      <trkpt lat="45.38087" lon="6.74569">
        <ele>1731.95</ele>
        <time>2019-09-10T13:30:52Z</time>
      </trkpt>
      <trkpt lat="45.38079" lon="6.74547">
        <ele>1727.63</ele>
        <time>2019-09-10T13:31:09Z</time>
      </trkpt>
      <trkpt lat="45.38077" lon="6.74533">
        <ele>1727.15</ele>
        <time>2019-09-10T13:31:21Z</time>
      </trkpt>
      <trkpt lat="45.38076" lon="6.74515">
        <ele>1725.7</ele>
        <time>2019-09-10T13:31:32Z</time>
      </trkpt>
      <trkpt lat="45.38075" lon="6.74504">
        <ele>1724.74</ele>
        <time>2019-09-10T13:31:39Z</time>
      </trkpt>
      <trkpt lat="45.38074" lon="6.74482">
        <ele>1726.18</ele>
        <time>2019-09-10T13:31:58Z</time>
      </trkpt>
      <trkpt lat="45.38074" lon="6.74481">
        <ele>1726.67</ele>
        <time>2019-09-10T13:31:59Z</time>
      </trkpt>
      <trkpt lat="45.38075" lon="6.74466">
        <ele>1727.15</ele>
        <time>2019-09-10T13:32:08Z</time>
      </trkpt>
      <trkpt lat="45.38076" lon="6.74463">
        <ele>1727.63</ele>
        <time>2019-09-10T13:32:10Z</time>
      </trkpt>
      <trkpt lat="45.38076" lon="6.74455">
        <ele>1727.15</ele>
        <time>2019-09-10T13:32:16Z</time>
      </trkpt>
      <trkpt lat="45.38077" lon="6.74452">
        <ele>1726.67</ele>
        <time>2019-09-10T13:32:18Z</time>
      </trkpt>
      <trkpt lat="45.38077" lon="6.74436">
        <ele>1723.78</ele>
        <time>2019-09-10T13:32:28Z</time>
      </trkpt>
      <trkpt lat="45.38076" lon="6.74428">
        <ele>1722.34</ele>
        <time>2019-09-10T13:32:33Z</time>
      </trkpt>
      <trkpt lat="45.38078" lon="6.74424">
        <ele>1720.9</ele>
        <time>2019-09-10T13:32:36Z</time>
      </trkpt>
      <trkpt lat="45.38078" lon="6.74421">
        <ele>1719.94</ele>
        <time>2019-09-10T13:32:38Z</time>
      </trkpt>
      <trkpt lat="45.38079" lon="6.74418">
        <ele>1719.46</ele>
        <time>2019-09-10T13:32:40Z</time>
      </trkpt>
      <trkpt lat="45.38083" lon="6.74406">
        <ele>1716.09</ele>
        <time>2019-09-10T13:32:51Z</time>
      </trkpt>
      <trkpt lat="45.38087" lon="6.74395">
        <ele>1716.09</ele>
        <time>2019-09-10T13:32:59Z</time>
      </trkpt>
      <trkpt lat="45.38085" lon="6.74389">
        <ele>1714.17</ele>
        <time>2019-09-10T13:33:10Z</time>
      </trkpt>
      <trkpt lat="45.38084" lon="6.74385">
        <ele>1714.17</ele>
        <time>2019-09-10T13:33:13Z</time>
      </trkpt>
      <trkpt lat="45.38084" lon="6.74382">
        <ele>1713.69</ele>
        <time>2019-09-10T13:33:15Z</time>
      </trkpt>
      <trkpt lat="45.38079" lon="6.74357">
        <ele>1710.32</ele>
        <time>2019-09-10T13:33:31Z</time>
      </trkpt>
      <trkpt lat="45.38078" lon="6.74347">
        <ele>1708.88</ele>
        <time>2019-09-10T13:33:37Z</time>
      </trkpt>
      <trkpt lat="45.38071" lon="6.74309">
        <ele>1706.96</ele>
        <time>2019-09-10T13:33:59Z</time>
      </trkpt>
      <trkpt lat="45.38071" lon="6.74308">
        <ele>1706.48</ele>
        <time>2019-09-10T13:34:00Z</time>
      </trkpt>
      <trkpt lat="45.3807" lon="6.74295">
        <ele>1704.55</ele>
        <time>2019-09-10T13:34:07Z</time>
      </trkpt>
      <trkpt lat="45.3807" lon="6.74292">
        <ele>1704.07</ele>
        <time>2019-09-10T13:34:09Z</time>
      </trkpt>
      <trkpt lat="45.3807" lon="6.74281">
        <ele>1702.15</ele>
        <time>2019-09-10T13:34:27Z</time>
      </trkpt>
      <trkpt lat="45.3807" lon="6.74278">
        <ele>1702.15</ele>
        <time>2019-09-10T13:34:56Z</time>
      </trkpt>
      <trkpt lat="45.38064" lon="6.74264">
        <ele>1700.71</ele>
        <time>2019-09-10T13:35:13Z</time>
      </trkpt>
      <trkpt lat="45.38062" lon="6.74241">
        <ele>1698.79</ele>
        <time>2019-09-10T13:35:29Z</time>
      </trkpt>
      <trkpt lat="45.38059" lon="6.74212">
        <ele>1697.34</ele>
        <time>2019-09-10T13:35:49Z</time>
      </trkpt>
      <trkpt lat="45.38054" lon="6.74196">
        <ele>1694.94</ele>
        <time>2019-09-10T13:36:21Z</time>
      </trkpt>
      <trkpt lat="45.3805" lon="6.74168">
        <ele>1692.06</ele>
        <time>2019-09-10T13:36:41Z</time>
      </trkpt>
      <trkpt lat="45.3805" lon="6.74164">
        <ele>1691.58</ele>
        <time>2019-09-10T13:36:44Z</time>
      </trkpt>
      <trkpt lat="45.38049" lon="6.74139">
        <ele>1687.25</ele>
        <time>2019-09-10T13:37:04Z</time>
      </trkpt>
      <trkpt lat="45.3805" lon="6.74137">
        <ele>1687.73</ele>
        <time>2019-09-10T13:37:14Z</time>
      </trkpt>
      <trkpt lat="45.38049" lon="6.74125">
        <ele>1687.73</ele>
        <time>2019-09-10T13:37:24Z</time>
      </trkpt>
      <trkpt lat="45.38045" lon="6.74106">
        <ele>1683.89</ele>
        <time>2019-09-10T13:37:41Z</time>
      </trkpt>
      <trkpt lat="45.38046" lon="6.74094">
        <ele>1682.44</ele>
        <time>2019-09-10T13:37:49Z</time>
      </trkpt>
      <trkpt lat="45.38048" lon="6.7409">
        <ele>1681</ele>
        <time>2019-09-10T13:37:52Z</time>
      </trkpt>
      <trkpt lat="45.38051" lon="6.74084">
        <ele>1679.56</ele>
        <time>2019-09-10T13:37:58Z</time>
      </trkpt>
      <trkpt lat="45.38055" lon="6.74076">
        <ele>1679.08</ele>
        <time>2019-09-10T13:38:06Z</time>
      </trkpt>
      <trkpt lat="45.38062" lon="6.74069">
        <ele>1677.16</ele>
        <time>2019-09-10T13:38:15Z</time>
      </trkpt>
      <trkpt lat="45.38067" lon="6.74055">
        <ele>1675.72</ele>
        <time>2019-09-10T13:38:26Z</time>
      </trkpt>
      <trkpt lat="45.38069" lon="6.7404">
        <ele>1674.27</ele>
        <time>2019-09-10T13:38:36Z</time>
      </trkpt>
      <trkpt lat="45.38067" lon="6.74026">
        <ele>1672.83</ele>
        <time>2019-09-10T13:38:45Z</time>
      </trkpt>
      <trkpt lat="45.38064" lon="6.74015">
        <ele>1672.35</ele>
        <time>2019-09-10T13:38:53Z</time>
      </trkpt>
      <trkpt lat="45.38061" lon="6.73987">
        <ele>1670.91</ele>
        <time>2019-09-10T13:39:11Z</time>
      </trkpt>
      <trkpt lat="45.38061" lon="6.73983">
        <ele>1671.39</ele>
        <time>2019-09-10T13:39:14Z</time>
      </trkpt>
      <trkpt lat="45.38062" lon="6.73979">
        <ele>1672.35</ele>
        <time>2019-09-10T13:39:17Z</time>
      </trkpt>
      <trkpt lat="45.38061" lon="6.73969">
        <ele>1671.39</ele>
        <time>2019-09-10T13:39:24Z</time>
      </trkpt>
      <trkpt lat="45.3806" lon="6.73954">
        <ele>1671.87</ele>
        <time>2019-09-10T13:39:33Z</time>
      </trkpt>
      <trkpt lat="45.38061" lon="6.73943">
        <ele>1671.39</ele>
        <time>2019-09-10T13:39:40Z</time>
      </trkpt>
      <trkpt lat="45.38061" lon="6.73939">
        <ele>1670.91</ele>
        <time>2019-09-10T13:39:43Z</time>
      </trkpt>
      <trkpt lat="45.38066" lon="6.73912">
        <ele>1668.02</ele>
        <time>2019-09-10T13:39:59Z</time>
      </trkpt>
      <trkpt lat="45.38067" lon="6.73908">
        <ele>1667.06</ele>
        <time>2019-09-10T13:40:02Z</time>
      </trkpt>
      <trkpt lat="45.38069" lon="6.73896">
        <ele>1664.66</ele>
        <time>2019-09-10T13:40:09Z</time>
      </trkpt>
      <trkpt lat="45.38071" lon="6.73871">
        <ele>1664.66</ele>
        <time>2019-09-10T13:40:25Z</time>
      </trkpt>
      <trkpt lat="45.38071" lon="6.73865">
        <ele>1665.62</ele>
        <time>2019-09-10T13:40:28Z</time>
      </trkpt>
      <trkpt lat="45.38068" lon="6.73835">
        <ele>1669.47</ele>
        <time>2019-09-10T13:40:44Z</time>
      </trkpt>
      <trkpt lat="45.38068" lon="6.73834">
        <ele>1669.47</ele>
        <time>2019-09-10T13:40:45Z</time>
      </trkpt>
      <trkpt lat="45.38072" lon="6.73804">
        <ele>1665.62</ele>
        <time>2019-09-10T13:41:02Z</time>
      </trkpt>
      <trkpt lat="45.38076" lon="6.73789">
        <ele>1663.7</ele>
        <time>2019-09-10T13:41:11Z</time>
      </trkpt>
      <trkpt lat="45.38079" lon="6.73776">
        <ele>1662.74</ele>
        <time>2019-09-10T13:41:18Z</time>
      </trkpt>
      <trkpt lat="45.38081" lon="6.73766">
        <ele>1662.74</ele>
        <time>2019-09-10T13:41:24Z</time>
      </trkpt>
      <trkpt lat="45.3808" lon="6.73758">
        <ele>1661.3</ele>
        <time>2019-09-10T13:41:28Z</time>
      </trkpt>
      <trkpt lat="45.3808" lon="6.73754">
        <ele>1660.81</ele>
        <time>2019-09-10T13:41:30Z</time>
      </trkpt>
      <trkpt lat="45.38078" lon="6.73744">
        <ele>1659.85</ele>
        <time>2019-09-10T13:41:36Z</time>
      </trkpt>
      <trkpt lat="45.38077" lon="6.73737">
        <ele>1658.89</ele>
        <time>2019-09-10T13:41:41Z</time>
      </trkpt>
      <trkpt lat="45.38076" lon="6.73726">
        <ele>1657.45</ele>
        <time>2019-09-10T13:41:48Z</time>
      </trkpt>
      <trkpt lat="45.38075" lon="6.73721">
        <ele>1657.45</ele>
        <time>2019-09-10T13:41:51Z</time>
      </trkpt>
      <trkpt lat="45.38063" lon="6.73693">
        <ele>1660.33</ele>
        <time>2019-09-10T13:42:08Z</time>
      </trkpt>
      <trkpt lat="45.38062" lon="6.73655">
        <ele>1658.41</ele>
        <time>2019-09-10T13:42:29Z</time>
      </trkpt>
      <trkpt lat="45.38068" lon="6.7364">
        <ele>1657.45</ele>
        <time>2019-09-10T13:42:38Z</time>
      </trkpt>
      <trkpt lat="45.38074" lon="6.73633">
        <ele>1656.97</ele>
        <time>2019-09-10T13:42:44Z</time>
      </trkpt>
      <trkpt lat="45.38075" lon="6.7363">
        <ele>1657.45</ele>
        <time>2019-09-10T13:42:46Z</time>
      </trkpt>
      <trkpt lat="45.38079" lon="6.73625">
        <ele>1657.45</ele>
        <time>2019-09-10T13:42:51Z</time>
      </trkpt>
      <trkpt lat="45.38081" lon="6.73621">
        <ele>1656.97</ele>
        <time>2019-09-10T13:42:54Z</time>
      </trkpt>
      <trkpt lat="45.38093" lon="6.73613">
        <ele>1655.53</ele>
        <time>2019-09-10T13:43:04Z</time>
      </trkpt>
      <trkpt lat="45.38099" lon="6.73608">
        <ele>1654.09</ele>
        <time>2019-09-10T13:43:10Z</time>
      </trkpt>
      <trkpt lat="45.38114" lon="6.73602">
        <ele>1651.2</ele>
        <time>2019-09-10T13:43:22Z</time>
      </trkpt>
      <trkpt lat="45.38118" lon="6.736">
        <ele>1651.2</ele>
        <time>2019-09-10T13:43:25Z</time>
      </trkpt>
      <trkpt lat="45.38121" lon="6.736">
        <ele>1651.2</ele>
        <time>2019-09-10T13:43:28Z</time>
      </trkpt>
      <trkpt lat="45.38136" lon="6.73595">
        <ele>1652.64</ele>
        <time>2019-09-10T13:43:41Z</time>
      </trkpt>
      <trkpt lat="45.38155" lon="6.73604">
        <ele>1654.09</ele>
        <time>2019-09-10T13:43:56Z</time>
      </trkpt>
      <trkpt lat="45.38165" lon="6.73606">
        <ele>1655.53</ele>
        <time>2019-09-10T13:44:04Z</time>
      </trkpt>
      <trkpt lat="45.38179" lon="6.73608">
        <ele>1656.97</ele>
        <time>2019-09-10T13:44:17Z</time>
      </trkpt>
      <trkpt lat="45.38184" lon="6.7361">
        <ele>1657.93</ele>
        <time>2019-09-10T13:44:22Z</time>
      </trkpt>
      <trkpt lat="45.38191" lon="6.7361">
        <ele>1659.37</ele>
        <time>2019-09-10T13:44:43Z</time>
      </trkpt>
      <trkpt lat="45.38191" lon="6.7361">
        <ele>1659.37</ele>
        <time>2019-09-10T13:45:03Z</time>
      </trkpt>
      <trkpt lat="45.38191" lon="6.7361">
        <ele>1659.37</ele>
        <time>2019-09-10T13:45:46Z</time>
      </trkpt>
      <trkpt lat="45.38191" lon="6.73611">
        <ele>1659.85</ele>
        <time>2019-09-10T13:46:11Z</time>
      </trkpt>
      <trkpt lat="45.38191" lon="6.73612">
        <ele>1661.3</ele>
        <time>2019-09-10T13:47:42Z</time>
      </trkpt>
      <trkpt lat="45.38191" lon="6.73609">
        <ele>1661.3</ele>
        <time>2019-09-10T13:48:32Z</time>
      </trkpt>
    </trkseg>
  </trk>
</gpx>